<?xml version="1.0" encoding="UTF-8" standalone="no" ?>
<gpx xmlns="http://www.topografix.com/GPX/1/1" xmlns:xsi="http://www.w3.org/2001/XMLSchema-instance" xsi:schemaLocation="http://www.topografix.com/GPX/1/1 http://www.topografix.com/GPX/1/1/gpx.xsd" version="1.1" creator="VisuGPX - https://www.visugpx.com">
  <metadata>
    <name>Course à pied en soirée</name>
  </metadata>
  <trk>
    <name><![CDATA[Course à pied en soirée_1]]></name>
    <trkseg>
      <trkpt lat="43.64766" lon="1.37617">
        <ele>152</ele>
        <time>2025-06-18T16:09:27Z</time>
      </trkpt>
      <trkpt lat="43.64767" lon="1.37614">
        <ele>152</ele>
        <time>2025-06-18T16:09:28Z</time>
      </trkpt>
      <trkpt lat="43.64768" lon="1.37611">
        <ele>152</ele>
        <time>2025-06-18T16:09:29Z</time>
      </trkpt>
      <trkpt lat="43.64769" lon="1.37608">
        <ele>152</ele>
        <time>2025-06-18T16:09:30Z</time>
      </trkpt>
      <trkpt lat="43.64772" lon="1.37606">
        <ele>152</ele>
        <time>2025-06-18T16:09:31Z</time>
      </trkpt>
      <trkpt lat="43.64775" lon="1.37606">
        <ele>152</ele>
        <time>2025-06-18T16:09:32Z</time>
      </trkpt>
      <trkpt lat="43.64777" lon="1.37605">
        <ele>152</ele>
        <time>2025-06-18T16:09:33Z</time>
      </trkpt>
      <trkpt lat="43.6478" lon="1.37605">
        <ele>152</ele>
        <time>2025-06-18T16:09:34Z</time>
      </trkpt>
      <trkpt lat="43.6478" lon="1.37605">
        <ele>152</ele>
        <time>2025-06-18T16:09:35Z</time>
      </trkpt>
      <trkpt lat="43.64783" lon="1.37604">
        <ele>152</ele>
        <time>2025-06-18T16:09:36Z</time>
      </trkpt>
      <trkpt lat="43.64785" lon="1.37603">
        <ele>152</ele>
        <time>2025-06-18T16:09:37Z</time>
      </trkpt>
      <trkpt lat="43.64788" lon="1.37602">
        <ele>152</ele>
        <time>2025-06-18T16:09:38Z</time>
      </trkpt>
      <trkpt lat="43.6479" lon="1.37601">
        <ele>152</ele>
        <time>2025-06-18T16:09:39Z</time>
      </trkpt>
      <trkpt lat="43.64793" lon="1.376">
        <ele>152</ele>
        <time>2025-06-18T16:09:40Z</time>
      </trkpt>
      <trkpt lat="43.64795" lon="1.37599">
        <ele>152</ele>
        <time>2025-06-18T16:09:41Z</time>
      </trkpt>
      <trkpt lat="43.64797" lon="1.37598">
        <ele>152</ele>
        <time>2025-06-18T16:09:42Z</time>
      </trkpt>
      <trkpt lat="43.64797" lon="1.37598">
        <ele>152</ele>
        <time>2025-06-18T16:09:43Z</time>
      </trkpt>
      <trkpt lat="43.648" lon="1.37598">
        <ele>152</ele>
        <time>2025-06-18T16:09:44Z</time>
      </trkpt>
      <trkpt lat="43.64803" lon="1.37598">
        <ele>152</ele>
        <time>2025-06-18T16:09:45Z</time>
      </trkpt>
      <trkpt lat="43.64805" lon="1.37599">
        <ele>152</ele>
        <time>2025-06-18T16:09:46Z</time>
      </trkpt>
      <trkpt lat="43.64808" lon="1.37599">
        <ele>152</ele>
        <time>2025-06-18T16:09:47Z</time>
      </trkpt>
      <trkpt lat="43.64808" lon="1.37599">
        <ele>152</ele>
        <time>2025-06-18T16:09:48Z</time>
      </trkpt>
      <trkpt lat="43.6481" lon="1.376">
        <ele>152</ele>
        <time>2025-06-18T16:09:49Z</time>
      </trkpt>
      <trkpt lat="43.64812" lon="1.37602">
        <ele>152</ele>
        <time>2025-06-18T16:09:50Z</time>
      </trkpt>
      <trkpt lat="43.64817" lon="1.37606">
        <ele>152</ele>
        <time>2025-06-18T16:09:51Z</time>
      </trkpt>
      <trkpt lat="43.64817" lon="1.37606">
        <ele>152</ele>
        <time>2025-06-18T16:09:52Z</time>
      </trkpt>
      <trkpt lat="43.64821" lon="1.37608">
        <ele>152</ele>
        <time>2025-06-18T16:09:53Z</time>
      </trkpt>
      <trkpt lat="43.64823" lon="1.37609">
        <ele>152</ele>
        <time>2025-06-18T16:09:54Z</time>
      </trkpt>
      <trkpt lat="43.64826" lon="1.3761">
        <ele>152</ele>
        <time>2025-06-18T16:09:55Z</time>
      </trkpt>
      <trkpt lat="43.64827" lon="1.37612">
        <ele>152</ele>
        <time>2025-06-18T16:09:56Z</time>
      </trkpt>
      <trkpt lat="43.64827" lon="1.37612">
        <ele>152</ele>
        <time>2025-06-18T16:09:57Z</time>
      </trkpt>
      <trkpt lat="43.64829" lon="1.37614">
        <ele>152</ele>
        <time>2025-06-18T16:09:58Z</time>
      </trkpt>
      <trkpt lat="43.64832" lon="1.37617">
        <ele>152</ele>
        <time>2025-06-18T16:09:59Z</time>
      </trkpt>
      <trkpt lat="43.64835" lon="1.3762">
        <ele>152</ele>
        <time>2025-06-18T16:10:00Z</time>
      </trkpt>
      <trkpt lat="43.64835" lon="1.3762">
        <ele>152</ele>
        <time>2025-06-18T16:10:01Z</time>
      </trkpt>
      <trkpt lat="43.64838" lon="1.37622">
        <ele>152</ele>
        <time>2025-06-18T16:10:02Z</time>
      </trkpt>
      <trkpt lat="43.64839" lon="1.37624">
        <ele>152</ele>
        <time>2025-06-18T16:10:03Z</time>
      </trkpt>
      <trkpt lat="43.64839" lon="1.37624">
        <ele>152</ele>
        <time>2025-06-18T16:10:04Z</time>
      </trkpt>
      <trkpt lat="43.64841" lon="1.37626">
        <ele>152</ele>
        <time>2025-06-18T16:10:05Z</time>
      </trkpt>
      <trkpt lat="43.64843" lon="1.37628">
        <ele>152</ele>
        <time>2025-06-18T16:10:06Z</time>
      </trkpt>
      <trkpt lat="43.64848" lon="1.37632">
        <ele>152</ele>
        <time>2025-06-18T16:10:07Z</time>
      </trkpt>
      <trkpt lat="43.6485" lon="1.37634">
        <ele>152</ele>
        <time>2025-06-18T16:10:08Z</time>
      </trkpt>
      <trkpt lat="43.64852" lon="1.37635">
        <ele>152</ele>
        <time>2025-06-18T16:10:09Z</time>
      </trkpt>
      <trkpt lat="43.64854" lon="1.37636">
        <ele>152</ele>
        <time>2025-06-18T16:10:10Z</time>
      </trkpt>
      <trkpt lat="43.64856" lon="1.37637">
        <ele>152</ele>
        <time>2025-06-18T16:10:11Z</time>
      </trkpt>
      <trkpt lat="43.64858" lon="1.37639">
        <ele>152</ele>
        <time>2025-06-18T16:10:12Z</time>
      </trkpt>
      <trkpt lat="43.64859" lon="1.3764">
        <ele>152</ele>
        <time>2025-06-18T16:10:13Z</time>
      </trkpt>
      <trkpt lat="43.64862" lon="1.37642">
        <ele>152</ele>
        <time>2025-06-18T16:10:14Z</time>
      </trkpt>
      <trkpt lat="43.64863" lon="1.37643">
        <ele>152</ele>
        <time>2025-06-18T16:10:15Z</time>
      </trkpt>
      <trkpt lat="43.64865" lon="1.37644">
        <ele>152</ele>
        <time>2025-06-18T16:10:16Z</time>
      </trkpt>
      <trkpt lat="43.64868" lon="1.37646">
        <ele>152</ele>
        <time>2025-06-18T16:10:17Z</time>
      </trkpt>
      <trkpt lat="43.6487" lon="1.37648">
        <ele>152</ele>
        <time>2025-06-18T16:10:18Z</time>
      </trkpt>
      <trkpt lat="43.6487" lon="1.37648">
        <ele>152</ele>
        <time>2025-06-18T16:10:19Z</time>
      </trkpt>
      <trkpt lat="43.64874" lon="1.37652">
        <ele>152</ele>
        <time>2025-06-18T16:10:20Z</time>
      </trkpt>
      <trkpt lat="43.64874" lon="1.37652">
        <ele>152</ele>
        <time>2025-06-18T16:10:21Z</time>
      </trkpt>
      <trkpt lat="43.64877" lon="1.37657">
        <ele>152</ele>
        <time>2025-06-18T16:10:22Z</time>
      </trkpt>
      <trkpt lat="43.64879" lon="1.3766">
        <ele>152</ele>
        <time>2025-06-18T16:10:23Z</time>
      </trkpt>
      <trkpt lat="43.64881" lon="1.37663">
        <ele>152</ele>
        <time>2025-06-18T16:10:24Z</time>
      </trkpt>
      <trkpt lat="43.64881" lon="1.37663">
        <ele>152</ele>
        <time>2025-06-18T16:10:25Z</time>
      </trkpt>
      <trkpt lat="43.64882" lon="1.37665">
        <ele>152</ele>
        <time>2025-06-18T16:10:26Z</time>
      </trkpt>
      <trkpt lat="43.64883" lon="1.37668">
        <ele>152</ele>
        <time>2025-06-18T16:10:27Z</time>
      </trkpt>
      <trkpt lat="43.64884" lon="1.37671">
        <ele>152</ele>
        <time>2025-06-18T16:10:28Z</time>
      </trkpt>
      <trkpt lat="43.64885" lon="1.37674">
        <ele>152</ele>
        <time>2025-06-18T16:10:29Z</time>
      </trkpt>
      <trkpt lat="43.64886" lon="1.37681">
        <ele>152</ele>
        <time>2025-06-18T16:10:30Z</time>
      </trkpt>
      <trkpt lat="43.64886" lon="1.37681">
        <ele>152</ele>
        <time>2025-06-18T16:10:31Z</time>
      </trkpt>
      <trkpt lat="43.64887" lon="1.37689">
        <ele>152</ele>
        <time>2025-06-18T16:10:32Z</time>
      </trkpt>
      <trkpt lat="43.64888" lon="1.3769">
        <ele>152</ele>
        <time>2025-06-18T16:10:33Z</time>
      </trkpt>
      <trkpt lat="43.64889" lon="1.37694">
        <ele>152</ele>
        <time>2025-06-18T16:10:34Z</time>
      </trkpt>
      <trkpt lat="43.64889" lon="1.37696">
        <ele>152</ele>
        <time>2025-06-18T16:10:35Z</time>
      </trkpt>
      <trkpt lat="43.6489" lon="1.37699">
        <ele>152</ele>
        <time>2025-06-18T16:10:36Z</time>
      </trkpt>
      <trkpt lat="43.64891" lon="1.37703">
        <ele>152</ele>
        <time>2025-06-18T16:10:37Z</time>
      </trkpt>
      <trkpt lat="43.64891" lon="1.37706">
        <ele>152</ele>
        <time>2025-06-18T16:10:38Z</time>
      </trkpt>
      <trkpt lat="43.64892" lon="1.37709">
        <ele>152</ele>
        <time>2025-06-18T16:10:39Z</time>
      </trkpt>
      <trkpt lat="43.64892" lon="1.37709">
        <ele>152</ele>
        <time>2025-06-18T16:10:40Z</time>
      </trkpt>
      <trkpt lat="43.64894" lon="1.37715">
        <ele>152</ele>
        <time>2025-06-18T16:10:41Z</time>
      </trkpt>
      <trkpt lat="43.64894" lon="1.37715">
        <ele>152</ele>
        <time>2025-06-18T16:10:42Z</time>
      </trkpt>
      <trkpt lat="43.64895" lon="1.37718">
        <ele>152</ele>
        <time>2025-06-18T16:10:43Z</time>
      </trkpt>
      <trkpt lat="43.64896" lon="1.37722">
        <ele>152</ele>
        <time>2025-06-18T16:10:44Z</time>
      </trkpt>
      <trkpt lat="43.64897" lon="1.37726">
        <ele>152</ele>
        <time>2025-06-18T16:10:45Z</time>
      </trkpt>
      <trkpt lat="43.64898" lon="1.3773">
        <ele>152</ele>
        <time>2025-06-18T16:10:46Z</time>
      </trkpt>
      <trkpt lat="43.64898" lon="1.37733">
        <ele>152</ele>
        <time>2025-06-18T16:10:47Z</time>
      </trkpt>
      <trkpt lat="43.64898" lon="1.37736">
        <ele>152</ele>
        <time>2025-06-18T16:10:48Z</time>
      </trkpt>
      <trkpt lat="43.64898" lon="1.37736">
        <ele>152</ele>
        <time>2025-06-18T16:10:49Z</time>
      </trkpt>
      <trkpt lat="43.64899" lon="1.3774">
        <ele>152</ele>
        <time>2025-06-18T16:10:50Z</time>
      </trkpt>
      <trkpt lat="43.64899" lon="1.3774">
        <ele>152</ele>
        <time>2025-06-18T16:10:51Z</time>
      </trkpt>
      <trkpt lat="43.64901" lon="1.37748">
        <ele>152</ele>
        <time>2025-06-18T16:10:52Z</time>
      </trkpt>
      <trkpt lat="43.64902" lon="1.37751">
        <ele>152</ele>
        <time>2025-06-18T16:10:53Z</time>
      </trkpt>
      <trkpt lat="43.64902" lon="1.37751">
        <ele>152</ele>
        <time>2025-06-18T16:10:54Z</time>
      </trkpt>
      <trkpt lat="43.64903" lon="1.37757">
        <ele>152</ele>
        <time>2025-06-18T16:10:55Z</time>
      </trkpt>
      <trkpt lat="43.64904" lon="1.3776">
        <ele>152</ele>
        <time>2025-06-18T16:10:56Z</time>
      </trkpt>
      <trkpt lat="43.64904" lon="1.37763">
        <ele>152</ele>
        <time>2025-06-18T16:10:57Z</time>
      </trkpt>
      <trkpt lat="43.64904" lon="1.37763">
        <ele>152</ele>
        <time>2025-06-18T16:10:58Z</time>
      </trkpt>
      <trkpt lat="43.64905" lon="1.37771">
        <ele>151</ele>
        <time>2025-06-18T16:10:59Z</time>
      </trkpt>
      <trkpt lat="43.64905" lon="1.37773">
        <ele>151</ele>
        <time>2025-06-18T16:11:00Z</time>
      </trkpt>
      <trkpt lat="43.64905" lon="1.37773">
        <ele>152</ele>
        <time>2025-06-18T16:11:01Z</time>
      </trkpt>
      <trkpt lat="43.64907" lon="1.3778">
        <ele>152</ele>
        <time>2025-06-18T16:11:02Z</time>
      </trkpt>
      <trkpt lat="43.64907" lon="1.37783">
        <ele>152</ele>
        <time>2025-06-18T16:11:03Z</time>
      </trkpt>
      <trkpt lat="43.64908" lon="1.37787">
        <ele>152</ele>
        <time>2025-06-18T16:11:04Z</time>
      </trkpt>
      <trkpt lat="43.64909" lon="1.3779">
        <ele>152</ele>
        <time>2025-06-18T16:11:05Z</time>
      </trkpt>
      <trkpt lat="43.64909" lon="1.37793">
        <ele>152</ele>
        <time>2025-06-18T16:11:06Z</time>
      </trkpt>
      <trkpt lat="43.64909" lon="1.37796">
        <ele>152</ele>
        <time>2025-06-18T16:11:07Z</time>
      </trkpt>
      <trkpt lat="43.64909" lon="1.37796">
        <ele>151</ele>
        <time>2025-06-18T16:11:08Z</time>
      </trkpt>
      <trkpt lat="43.6491" lon="1.37802">
        <ele>151</ele>
        <time>2025-06-18T16:11:09Z</time>
      </trkpt>
      <trkpt lat="43.6491" lon="1.37802">
        <ele>151</ele>
        <time>2025-06-18T16:11:10Z</time>
      </trkpt>
      <trkpt lat="43.64911" lon="1.37805">
        <ele>152</ele>
        <time>2025-06-18T16:11:11Z</time>
      </trkpt>
      <trkpt lat="43.64912" lon="1.37808">
        <ele>152</ele>
        <time>2025-06-18T16:11:12Z</time>
      </trkpt>
      <trkpt lat="43.64913" lon="1.37811">
        <ele>152</ele>
        <time>2025-06-18T16:11:13Z</time>
      </trkpt>
      <trkpt lat="43.64914" lon="1.37814">
        <ele>152</ele>
        <time>2025-06-18T16:11:14Z</time>
      </trkpt>
      <trkpt lat="43.64915" lon="1.37817">
        <ele>152</ele>
        <time>2025-06-18T16:11:15Z</time>
      </trkpt>
      <trkpt lat="43.64916" lon="1.37821">
        <ele>152</ele>
        <time>2025-06-18T16:11:16Z</time>
      </trkpt>
      <trkpt lat="43.64916" lon="1.37824">
        <ele>152</ele>
        <time>2025-06-18T16:11:17Z</time>
      </trkpt>
      <trkpt lat="43.64917" lon="1.37828">
        <ele>152</ele>
        <time>2025-06-18T16:11:18Z</time>
      </trkpt>
      <trkpt lat="43.64918" lon="1.37832">
        <ele>152</ele>
        <time>2025-06-18T16:11:19Z</time>
      </trkpt>
      <trkpt lat="43.64919" lon="1.37835">
        <ele>151</ele>
        <time>2025-06-18T16:11:20Z</time>
      </trkpt>
      <trkpt lat="43.6492" lon="1.37838">
        <ele>151</ele>
        <time>2025-06-18T16:11:21Z</time>
      </trkpt>
      <trkpt lat="43.64921" lon="1.37842">
        <ele>151</ele>
        <time>2025-06-18T16:11:22Z</time>
      </trkpt>
      <trkpt lat="43.64922" lon="1.37845">
        <ele>151</ele>
        <time>2025-06-18T16:11:23Z</time>
      </trkpt>
      <trkpt lat="43.64923" lon="1.37848">
        <ele>151</ele>
        <time>2025-06-18T16:11:24Z</time>
      </trkpt>
      <trkpt lat="43.64924" lon="1.37851">
        <ele>151</ele>
        <time>2025-06-18T16:11:25Z</time>
      </trkpt>
      <trkpt lat="43.64926" lon="1.37855">
        <ele>151</ele>
        <time>2025-06-18T16:11:26Z</time>
      </trkpt>
      <trkpt lat="43.64927" lon="1.37858">
        <ele>151</ele>
        <time>2025-06-18T16:11:27Z</time>
      </trkpt>
      <trkpt lat="43.64929" lon="1.37861">
        <ele>151</ele>
        <time>2025-06-18T16:11:28Z</time>
      </trkpt>
      <trkpt lat="43.64929" lon="1.37861">
        <ele>151</ele>
        <time>2025-06-18T16:11:29Z</time>
      </trkpt>
      <trkpt lat="43.64931" lon="1.37867">
        <ele>151</ele>
        <time>2025-06-18T16:11:30Z</time>
      </trkpt>
      <trkpt lat="43.64931" lon="1.3787">
        <ele>151</ele>
        <time>2025-06-18T16:11:31Z</time>
      </trkpt>
      <trkpt lat="43.64932" lon="1.37872">
        <ele>151</ele>
        <time>2025-06-18T16:11:32Z</time>
      </trkpt>
      <trkpt lat="43.64932" lon="1.37872">
        <ele>151</ele>
        <time>2025-06-18T16:11:33Z</time>
      </trkpt>
      <trkpt lat="43.64932" lon="1.37875">
        <ele>151</ele>
        <time>2025-06-18T16:11:34Z</time>
      </trkpt>
      <trkpt lat="43.64933" lon="1.37879">
        <ele>151</ele>
        <time>2025-06-18T16:11:35Z</time>
      </trkpt>
      <trkpt lat="43.64933" lon="1.37882">
        <ele>151</ele>
        <time>2025-06-18T16:11:36Z</time>
      </trkpt>
      <trkpt lat="43.64934" lon="1.37885">
        <ele>151</ele>
        <time>2025-06-18T16:11:37Z</time>
      </trkpt>
      <trkpt lat="43.64937" lon="1.37892">
        <ele>151</ele>
        <time>2025-06-18T16:11:38Z</time>
      </trkpt>
      <trkpt lat="43.64937" lon="1.37892">
        <ele>151</ele>
        <time>2025-06-18T16:11:39Z</time>
      </trkpt>
      <trkpt lat="43.64938" lon="1.37895">
        <ele>151</ele>
        <time>2025-06-18T16:11:40Z</time>
      </trkpt>
      <trkpt lat="43.64939" lon="1.37898">
        <ele>151</ele>
        <time>2025-06-18T16:11:41Z</time>
      </trkpt>
      <trkpt lat="43.6494" lon="1.37904">
        <ele>151</ele>
        <time>2025-06-18T16:11:42Z</time>
      </trkpt>
      <trkpt lat="43.64941" lon="1.37907">
        <ele>151</ele>
        <time>2025-06-18T16:11:43Z</time>
      </trkpt>
      <trkpt lat="43.64943" lon="1.3791">
        <ele>151</ele>
        <time>2025-06-18T16:11:44Z</time>
      </trkpt>
      <trkpt lat="43.64944" lon="1.37913">
        <ele>151</ele>
        <time>2025-06-18T16:11:45Z</time>
      </trkpt>
      <trkpt lat="43.64944" lon="1.37913">
        <ele>151</ele>
        <time>2025-06-18T16:11:46Z</time>
      </trkpt>
      <trkpt lat="43.64946" lon="1.37919">
        <ele>151</ele>
        <time>2025-06-18T16:11:47Z</time>
      </trkpt>
      <trkpt lat="43.64946" lon="1.37922">
        <ele>151</ele>
        <time>2025-06-18T16:11:48Z</time>
      </trkpt>
      <trkpt lat="43.64947" lon="1.37925">
        <ele>151</ele>
        <time>2025-06-18T16:11:49Z</time>
      </trkpt>
      <trkpt lat="43.64948" lon="1.37928">
        <ele>150</ele>
        <time>2025-06-18T16:11:50Z</time>
      </trkpt>
      <trkpt lat="43.64948" lon="1.37931">
        <ele>150</ele>
        <time>2025-06-18T16:11:51Z</time>
      </trkpt>
      <trkpt lat="43.64949" lon="1.37934">
        <ele>150</ele>
        <time>2025-06-18T16:11:52Z</time>
      </trkpt>
      <trkpt lat="43.6495" lon="1.37937">
        <ele>150</ele>
        <time>2025-06-18T16:11:53Z</time>
      </trkpt>
      <trkpt lat="43.6495" lon="1.3794">
        <ele>150</ele>
        <time>2025-06-18T16:11:54Z</time>
      </trkpt>
      <trkpt lat="43.6495" lon="1.3794">
        <ele>150</ele>
        <time>2025-06-18T16:11:55Z</time>
      </trkpt>
      <trkpt lat="43.64951" lon="1.37942">
        <ele>150</ele>
        <time>2025-06-18T16:11:56Z</time>
      </trkpt>
      <trkpt lat="43.64951" lon="1.37947">
        <ele>150</ele>
        <time>2025-06-18T16:11:57Z</time>
      </trkpt>
      <trkpt lat="43.64951" lon="1.37951">
        <ele>150</ele>
        <time>2025-06-18T16:11:58Z</time>
      </trkpt>
      <trkpt lat="43.64952" lon="1.37956">
        <ele>150</ele>
        <time>2025-06-18T16:11:59Z</time>
      </trkpt>
      <trkpt lat="43.64952" lon="1.37959">
        <ele>150</ele>
        <time>2025-06-18T16:12:00Z</time>
      </trkpt>
      <trkpt lat="43.64952" lon="1.37962">
        <ele>150</ele>
        <time>2025-06-18T16:12:01Z</time>
      </trkpt>
      <trkpt lat="43.64952" lon="1.37962">
        <ele>150</ele>
        <time>2025-06-18T16:12:02Z</time>
      </trkpt>
      <trkpt lat="43.64952" lon="1.37965">
        <ele>150</ele>
        <time>2025-06-18T16:12:03Z</time>
      </trkpt>
      <trkpt lat="43.64952" lon="1.37968">
        <ele>150</ele>
        <time>2025-06-18T16:12:04Z</time>
      </trkpt>
      <trkpt lat="43.64952" lon="1.37971">
        <ele>150</ele>
        <time>2025-06-18T16:12:05Z</time>
      </trkpt>
      <trkpt lat="43.64953" lon="1.37975">
        <ele>150</ele>
        <time>2025-06-18T16:12:06Z</time>
      </trkpt>
      <trkpt lat="43.64954" lon="1.37978">
        <ele>150</ele>
        <time>2025-06-18T16:12:07Z</time>
      </trkpt>
      <trkpt lat="43.64956" lon="1.37982">
        <ele>150</ele>
        <time>2025-06-18T16:12:08Z</time>
      </trkpt>
      <trkpt lat="43.64957" lon="1.37985">
        <ele>150</ele>
        <time>2025-06-18T16:12:09Z</time>
      </trkpt>
      <trkpt lat="43.64959" lon="1.37987">
        <ele>151</ele>
        <time>2025-06-18T16:12:10Z</time>
      </trkpt>
      <trkpt lat="43.64959" lon="1.37987">
        <ele>151</ele>
        <time>2025-06-18T16:12:11Z</time>
      </trkpt>
      <trkpt lat="43.64963" lon="1.37993">
        <ele>151</ele>
        <time>2025-06-18T16:12:12Z</time>
      </trkpt>
      <trkpt lat="43.64964" lon="1.37995">
        <ele>151</ele>
        <time>2025-06-18T16:12:13Z</time>
      </trkpt>
      <trkpt lat="43.64965" lon="1.37998">
        <ele>151</ele>
        <time>2025-06-18T16:12:14Z</time>
      </trkpt>
      <trkpt lat="43.64966" lon="1.38002">
        <ele>150</ele>
        <time>2025-06-18T16:12:15Z</time>
      </trkpt>
      <trkpt lat="43.64966" lon="1.38002">
        <ele>150</ele>
        <time>2025-06-18T16:12:16Z</time>
      </trkpt>
      <trkpt lat="43.6497" lon="1.38009">
        <ele>150</ele>
        <time>2025-06-18T16:12:17Z</time>
      </trkpt>
      <trkpt lat="43.6497" lon="1.38009">
        <ele>151</ele>
        <time>2025-06-18T16:12:18Z</time>
      </trkpt>
      <trkpt lat="43.64971" lon="1.38013">
        <ele>151</ele>
        <time>2025-06-18T16:12:19Z</time>
      </trkpt>
      <trkpt lat="43.64972" lon="1.38016">
        <ele>151</ele>
        <time>2025-06-18T16:12:20Z</time>
      </trkpt>
      <trkpt lat="43.64974" lon="1.38019">
        <ele>150</ele>
        <time>2025-06-18T16:12:21Z</time>
      </trkpt>
      <trkpt lat="43.64976" lon="1.38028">
        <ele>150</ele>
        <time>2025-06-18T16:12:22Z</time>
      </trkpt>
      <trkpt lat="43.64976" lon="1.38029">
        <ele>150</ele>
        <time>2025-06-18T16:12:23Z</time>
      </trkpt>
      <trkpt lat="43.64976" lon="1.38029">
        <ele>150</ele>
        <time>2025-06-18T16:12:24Z</time>
      </trkpt>
      <trkpt lat="43.64977" lon="1.38035">
        <ele>150</ele>
        <time>2025-06-18T16:12:25Z</time>
      </trkpt>
      <trkpt lat="43.64978" lon="1.38038">
        <ele>150</ele>
        <time>2025-06-18T16:12:26Z</time>
      </trkpt>
      <trkpt lat="43.64979" lon="1.38041">
        <ele>150</ele>
        <time>2025-06-18T16:12:27Z</time>
      </trkpt>
      <trkpt lat="43.64979" lon="1.38044">
        <ele>150</ele>
        <time>2025-06-18T16:12:28Z</time>
      </trkpt>
      <trkpt lat="43.6498" lon="1.38047">
        <ele>150</ele>
        <time>2025-06-18T16:12:29Z</time>
      </trkpt>
      <trkpt lat="43.64981" lon="1.3805">
        <ele>151</ele>
        <time>2025-06-18T16:12:30Z</time>
      </trkpt>
      <trkpt lat="43.64981" lon="1.38052">
        <ele>151</ele>
        <time>2025-06-18T16:12:31Z</time>
      </trkpt>
      <trkpt lat="43.64982" lon="1.38055">
        <ele>151</ele>
        <time>2025-06-18T16:12:32Z</time>
      </trkpt>
      <trkpt lat="43.64982" lon="1.38055">
        <ele>151</ele>
        <time>2025-06-18T16:12:33Z</time>
      </trkpt>
      <trkpt lat="43.64984" lon="1.38061">
        <ele>150</ele>
        <time>2025-06-18T16:12:34Z</time>
      </trkpt>
      <trkpt lat="43.64985" lon="1.38064">
        <ele>150</ele>
        <time>2025-06-18T16:12:35Z</time>
      </trkpt>
      <trkpt lat="43.64986" lon="1.38067">
        <ele>150</ele>
        <time>2025-06-18T16:12:36Z</time>
      </trkpt>
      <trkpt lat="43.64987" lon="1.3807">
        <ele>150</ele>
        <time>2025-06-18T16:12:37Z</time>
      </trkpt>
      <trkpt lat="43.64987" lon="1.3807">
        <ele>150</ele>
        <time>2025-06-18T16:12:38Z</time>
      </trkpt>
      <trkpt lat="43.64989" lon="1.38075">
        <ele>150</ele>
        <time>2025-06-18T16:12:39Z</time>
      </trkpt>
      <trkpt lat="43.6499" lon="1.38079">
        <ele>150</ele>
        <time>2025-06-18T16:12:40Z</time>
      </trkpt>
      <trkpt lat="43.6499" lon="1.38079">
        <ele>150</ele>
        <time>2025-06-18T16:12:41Z</time>
      </trkpt>
      <trkpt lat="43.64992" lon="1.38085">
        <ele>150</ele>
        <time>2025-06-18T16:12:42Z</time>
      </trkpt>
      <trkpt lat="43.64992" lon="1.38085">
        <ele>151</ele>
        <time>2025-06-18T16:12:43Z</time>
      </trkpt>
      <trkpt lat="43.64994" lon="1.38091">
        <ele>151</ele>
        <time>2025-06-18T16:12:44Z</time>
      </trkpt>
      <trkpt lat="43.64995" lon="1.38095">
        <ele>151</ele>
        <time>2025-06-18T16:12:45Z</time>
      </trkpt>
      <trkpt lat="43.64997" lon="1.38098">
        <ele>151</ele>
        <time>2025-06-18T16:12:46Z</time>
      </trkpt>
      <trkpt lat="43.64997" lon="1.381">
        <ele>151</ele>
        <time>2025-06-18T16:12:47Z</time>
      </trkpt>
      <trkpt lat="43.64998" lon="1.38103">
        <ele>151</ele>
        <time>2025-06-18T16:12:48Z</time>
      </trkpt>
      <trkpt lat="43.64998" lon="1.38103">
        <ele>151</ele>
        <time>2025-06-18T16:12:49Z</time>
      </trkpt>
      <trkpt lat="43.65" lon="1.38108">
        <ele>151</ele>
        <time>2025-06-18T16:12:50Z</time>
      </trkpt>
      <trkpt lat="43.65002" lon="1.38113">
        <ele>151</ele>
        <time>2025-06-18T16:12:51Z</time>
      </trkpt>
      <trkpt lat="43.65002" lon="1.38113">
        <ele>151</ele>
        <time>2025-06-18T16:12:52Z</time>
      </trkpt>
      <trkpt lat="43.65004" lon="1.3812">
        <ele>151</ele>
        <time>2025-06-18T16:12:53Z</time>
      </trkpt>
      <trkpt lat="43.65005" lon="1.38123">
        <ele>151</ele>
        <time>2025-06-18T16:12:54Z</time>
      </trkpt>
      <trkpt lat="43.65006" lon="1.38126">
        <ele>151</ele>
        <time>2025-06-18T16:12:55Z</time>
      </trkpt>
      <trkpt lat="43.65008" lon="1.38131">
        <ele>151</ele>
        <time>2025-06-18T16:12:57Z</time>
      </trkpt>
      <trkpt lat="43.65009" lon="1.38135">
        <ele>151</ele>
        <time>2025-06-18T16:12:58Z</time>
      </trkpt>
      <trkpt lat="43.6501" lon="1.38139">
        <ele>151</ele>
        <time>2025-06-18T16:12:59Z</time>
      </trkpt>
      <trkpt lat="43.65011" lon="1.38143">
        <ele>151</ele>
        <time>2025-06-18T16:13:00Z</time>
      </trkpt>
      <trkpt lat="43.65011" lon="1.38147">
        <ele>151</ele>
        <time>2025-06-18T16:13:01Z</time>
      </trkpt>
      <trkpt lat="43.65012" lon="1.3815">
        <ele>151</ele>
        <time>2025-06-18T16:13:02Z</time>
      </trkpt>
      <trkpt lat="43.65012" lon="1.38154">
        <ele>151</ele>
        <time>2025-06-18T16:13:03Z</time>
      </trkpt>
      <trkpt lat="43.65011" lon="1.38157">
        <ele>151</ele>
        <time>2025-06-18T16:13:04Z</time>
      </trkpt>
      <trkpt lat="43.65011" lon="1.38161">
        <ele>151</ele>
        <time>2025-06-18T16:13:05Z</time>
      </trkpt>
      <trkpt lat="43.65011" lon="1.38163">
        <ele>151</ele>
        <time>2025-06-18T16:13:06Z</time>
      </trkpt>
      <trkpt lat="43.65011" lon="1.38163">
        <ele>152</ele>
        <time>2025-06-18T16:13:07Z</time>
      </trkpt>
      <trkpt lat="43.65011" lon="1.38169">
        <ele>152</ele>
        <time>2025-06-18T16:13:08Z</time>
      </trkpt>
      <trkpt lat="43.65011" lon="1.38169">
        <ele>152</ele>
        <time>2025-06-18T16:13:09Z</time>
      </trkpt>
      <trkpt lat="43.6501" lon="1.38172">
        <ele>151</ele>
        <time>2025-06-18T16:13:10Z</time>
      </trkpt>
      <trkpt lat="43.6501" lon="1.38172">
        <ele>151</ele>
        <time>2025-06-18T16:13:11Z</time>
      </trkpt>
      <trkpt lat="43.65009" lon="1.38176">
        <ele>151</ele>
        <time>2025-06-18T16:13:12Z</time>
      </trkpt>
      <trkpt lat="43.65013" lon="1.38179">
        <ele>151</ele>
        <time>2025-06-18T16:13:13Z</time>
      </trkpt>
      <trkpt lat="43.65014" lon="1.38182">
        <ele>152</ele>
        <time>2025-06-18T16:13:14Z</time>
      </trkpt>
      <trkpt lat="43.65014" lon="1.38182">
        <ele>152</ele>
        <time>2025-06-18T16:13:15Z</time>
      </trkpt>
      <trkpt lat="43.65015" lon="1.38184">
        <ele>152</ele>
        <time>2025-06-18T16:13:16Z</time>
      </trkpt>
      <trkpt lat="43.65016" lon="1.38188">
        <ele>151</ele>
        <time>2025-06-18T16:13:17Z</time>
      </trkpt>
      <trkpt lat="43.65016" lon="1.3819">
        <ele>151</ele>
        <time>2025-06-18T16:13:18Z</time>
      </trkpt>
      <trkpt lat="43.65016" lon="1.3819">
        <ele>151</ele>
        <time>2025-06-18T16:13:19Z</time>
      </trkpt>
      <trkpt lat="43.65018" lon="1.38196">
        <ele>151</ele>
        <time>2025-06-18T16:13:20Z</time>
      </trkpt>
      <trkpt lat="43.65018" lon="1.38198">
        <ele>152</ele>
        <time>2025-06-18T16:13:21Z</time>
      </trkpt>
      <trkpt lat="43.65019" lon="1.38201">
        <ele>152</ele>
        <time>2025-06-18T16:13:22Z</time>
      </trkpt>
      <trkpt lat="43.65019" lon="1.38205">
        <ele>152</ele>
        <time>2025-06-18T16:13:23Z</time>
      </trkpt>
      <trkpt lat="43.6502" lon="1.38208">
        <ele>151</ele>
        <time>2025-06-18T16:13:24Z</time>
      </trkpt>
      <trkpt lat="43.6502" lon="1.38208">
        <ele>151</ele>
        <time>2025-06-18T16:13:25Z</time>
      </trkpt>
      <trkpt lat="43.65022" lon="1.38216">
        <ele>151</ele>
        <time>2025-06-18T16:13:26Z</time>
      </trkpt>
      <trkpt lat="43.65022" lon="1.38218">
        <ele>151</ele>
        <time>2025-06-18T16:13:27Z</time>
      </trkpt>
      <trkpt lat="43.65022" lon="1.38218">
        <ele>151</ele>
        <time>2025-06-18T16:13:28Z</time>
      </trkpt>
      <trkpt lat="43.65023" lon="1.38224">
        <ele>151</ele>
        <time>2025-06-18T16:13:29Z</time>
      </trkpt>
      <trkpt lat="43.65023" lon="1.38227">
        <ele>151</ele>
        <time>2025-06-18T16:13:30Z</time>
      </trkpt>
      <trkpt lat="43.65023" lon="1.38227">
        <ele>151</ele>
        <time>2025-06-18T16:13:31Z</time>
      </trkpt>
      <trkpt lat="43.65024" lon="1.3823">
        <ele>151</ele>
        <time>2025-06-18T16:13:32Z</time>
      </trkpt>
      <trkpt lat="43.65025" lon="1.38233">
        <ele>151</ele>
        <time>2025-06-18T16:13:33Z</time>
      </trkpt>
      <trkpt lat="43.65026" lon="1.38236">
        <ele>151</ele>
        <time>2025-06-18T16:13:34Z</time>
      </trkpt>
      <trkpt lat="43.65026" lon="1.38239">
        <ele>151</ele>
        <time>2025-06-18T16:13:35Z</time>
      </trkpt>
      <trkpt lat="43.65028" lon="1.38246">
        <ele>152</ele>
        <time>2025-06-18T16:13:36Z</time>
      </trkpt>
      <trkpt lat="43.65028" lon="1.38249">
        <ele>152</ele>
        <time>2025-06-18T16:13:37Z</time>
      </trkpt>
      <trkpt lat="43.65029" lon="1.38252">
        <ele>151</ele>
        <time>2025-06-18T16:13:38Z</time>
      </trkpt>
      <trkpt lat="43.65029" lon="1.38254">
        <ele>151</ele>
        <time>2025-06-18T16:13:39Z</time>
      </trkpt>
      <trkpt lat="43.65029" lon="1.38254">
        <ele>151</ele>
        <time>2025-06-18T16:13:40Z</time>
      </trkpt>
      <trkpt lat="43.65029" lon="1.38258">
        <ele>152</ele>
        <time>2025-06-18T16:13:41Z</time>
      </trkpt>
      <trkpt lat="43.65031" lon="1.38264">
        <ele>152</ele>
        <time>2025-06-18T16:13:42Z</time>
      </trkpt>
      <trkpt lat="43.65031" lon="1.38264">
        <ele>152</ele>
        <time>2025-06-18T16:13:43Z</time>
      </trkpt>
      <trkpt lat="43.65032" lon="1.3827">
        <ele>152</ele>
        <time>2025-06-18T16:13:44Z</time>
      </trkpt>
      <trkpt lat="43.65032" lon="1.3827">
        <ele>151</ele>
        <time>2025-06-18T16:13:45Z</time>
      </trkpt>
      <trkpt lat="43.65035" lon="1.38277">
        <ele>151</ele>
        <time>2025-06-18T16:13:46Z</time>
      </trkpt>
      <trkpt lat="43.65036" lon="1.38279">
        <ele>151</ele>
        <time>2025-06-18T16:13:47Z</time>
      </trkpt>
      <trkpt lat="43.65036" lon="1.38282">
        <ele>151</ele>
        <time>2025-06-18T16:13:48Z</time>
      </trkpt>
      <trkpt lat="43.65037" lon="1.38286">
        <ele>151</ele>
        <time>2025-06-18T16:13:49Z</time>
      </trkpt>
      <trkpt lat="43.65037" lon="1.38286">
        <ele>151</ele>
        <time>2025-06-18T16:13:50Z</time>
      </trkpt>
      <trkpt lat="43.65039" lon="1.38292">
        <ele>151</ele>
        <time>2025-06-18T16:13:51Z</time>
      </trkpt>
      <trkpt lat="43.65039" lon="1.38295">
        <ele>151</ele>
        <time>2025-06-18T16:13:52Z</time>
      </trkpt>
      <trkpt lat="43.65041" lon="1.38299">
        <ele>151</ele>
        <time>2025-06-18T16:13:53Z</time>
      </trkpt>
      <trkpt lat="43.65041" lon="1.38299">
        <ele>151</ele>
        <time>2025-06-18T16:13:54Z</time>
      </trkpt>
      <trkpt lat="43.65043" lon="1.38306">
        <ele>151</ele>
        <time>2025-06-18T16:13:55Z</time>
      </trkpt>
      <trkpt lat="43.65044" lon="1.38309">
        <ele>152</ele>
        <time>2025-06-18T16:13:56Z</time>
      </trkpt>
      <trkpt lat="43.65045" lon="1.38312">
        <ele>152</ele>
        <time>2025-06-18T16:13:57Z</time>
      </trkpt>
      <trkpt lat="43.65045" lon="1.38314">
        <ele>152</ele>
        <time>2025-06-18T16:13:58Z</time>
      </trkpt>
      <trkpt lat="43.65046" lon="1.38317">
        <ele>151</ele>
        <time>2025-06-18T16:13:59Z</time>
      </trkpt>
      <trkpt lat="43.65047" lon="1.38321">
        <ele>151</ele>
        <time>2025-06-18T16:14:00Z</time>
      </trkpt>
      <trkpt lat="43.65047" lon="1.38321">
        <ele>151</ele>
        <time>2025-06-18T16:14:01Z</time>
      </trkpt>
      <trkpt lat="43.65048" lon="1.38324">
        <ele>151</ele>
        <time>2025-06-18T16:14:02Z</time>
      </trkpt>
      <trkpt lat="43.65049" lon="1.38326">
        <ele>151</ele>
        <time>2025-06-18T16:14:03Z</time>
      </trkpt>
      <trkpt lat="43.65052" lon="1.38332">
        <ele>151</ele>
        <time>2025-06-18T16:14:04Z</time>
      </trkpt>
      <trkpt lat="43.65052" lon="1.38332">
        <ele>151</ele>
        <time>2025-06-18T16:14:05Z</time>
      </trkpt>
      <trkpt lat="43.65054" lon="1.38338">
        <ele>151</ele>
        <time>2025-06-18T16:14:06Z</time>
      </trkpt>
      <trkpt lat="43.65055" lon="1.38341">
        <ele>151</ele>
        <time>2025-06-18T16:14:07Z</time>
      </trkpt>
      <trkpt lat="43.65057" lon="1.38344">
        <ele>151</ele>
        <time>2025-06-18T16:14:08Z</time>
      </trkpt>
      <trkpt lat="43.65058" lon="1.38347">
        <ele>151</ele>
        <time>2025-06-18T16:14:09Z</time>
      </trkpt>
      <trkpt lat="43.6506" lon="1.3835">
        <ele>152</ele>
        <time>2025-06-18T16:14:10Z</time>
      </trkpt>
      <trkpt lat="43.65061" lon="1.38353">
        <ele>152</ele>
        <time>2025-06-18T16:14:11Z</time>
      </trkpt>
      <trkpt lat="43.65062" lon="1.38356">
        <ele>151</ele>
        <time>2025-06-18T16:14:12Z</time>
      </trkpt>
      <trkpt lat="43.65063" lon="1.3836">
        <ele>151</ele>
        <time>2025-06-18T16:14:13Z</time>
      </trkpt>
      <trkpt lat="43.65065" lon="1.38363">
        <ele>151</ele>
        <time>2025-06-18T16:14:14Z</time>
      </trkpt>
      <trkpt lat="43.65066" lon="1.38367">
        <ele>151</ele>
        <time>2025-06-18T16:14:15Z</time>
      </trkpt>
      <trkpt lat="43.65067" lon="1.3837">
        <ele>151</ele>
        <time>2025-06-18T16:14:16Z</time>
      </trkpt>
      <trkpt lat="43.65068" lon="1.38373">
        <ele>151</ele>
        <time>2025-06-18T16:14:17Z</time>
      </trkpt>
      <trkpt lat="43.6507" lon="1.38376">
        <ele>151</ele>
        <time>2025-06-18T16:14:18Z</time>
      </trkpt>
      <trkpt lat="43.65071" lon="1.38379">
        <ele>151</ele>
        <time>2025-06-18T16:14:19Z</time>
      </trkpt>
      <trkpt lat="43.65072" lon="1.38383">
        <ele>151</ele>
        <time>2025-06-18T16:14:20Z</time>
      </trkpt>
      <trkpt lat="43.65072" lon="1.38386">
        <ele>151</ele>
        <time>2025-06-18T16:14:21Z</time>
      </trkpt>
      <trkpt lat="43.65072" lon="1.38386">
        <ele>151</ele>
        <time>2025-06-18T16:14:22Z</time>
      </trkpt>
      <trkpt lat="43.65074" lon="1.38392">
        <ele>151</ele>
        <time>2025-06-18T16:14:23Z</time>
      </trkpt>
      <trkpt lat="43.65074" lon="1.38392">
        <ele>151</ele>
        <time>2025-06-18T16:14:24Z</time>
      </trkpt>
      <trkpt lat="43.65076" lon="1.38398">
        <ele>151</ele>
        <time>2025-06-18T16:14:25Z</time>
      </trkpt>
      <trkpt lat="43.65077" lon="1.38401">
        <ele>151</ele>
        <time>2025-06-18T16:14:26Z</time>
      </trkpt>
      <trkpt lat="43.65078" lon="1.38404">
        <ele>151</ele>
        <time>2025-06-18T16:14:27Z</time>
      </trkpt>
      <trkpt lat="43.65079" lon="1.38407">
        <ele>151</ele>
        <time>2025-06-18T16:14:28Z</time>
      </trkpt>
      <trkpt lat="43.65079" lon="1.3841">
        <ele>150</ele>
        <time>2025-06-18T16:14:29Z</time>
      </trkpt>
      <trkpt lat="43.6508" lon="1.38414">
        <ele>150</ele>
        <time>2025-06-18T16:14:30Z</time>
      </trkpt>
      <trkpt lat="43.65081" lon="1.38418">
        <ele>150</ele>
        <time>2025-06-18T16:14:31Z</time>
      </trkpt>
      <trkpt lat="43.65081" lon="1.38418">
        <ele>150</ele>
        <time>2025-06-18T16:14:32Z</time>
      </trkpt>
      <trkpt lat="43.65084" lon="1.38424">
        <ele>151</ele>
        <time>2025-06-18T16:14:33Z</time>
      </trkpt>
      <trkpt lat="43.65085" lon="1.38427">
        <ele>151</ele>
        <time>2025-06-18T16:14:34Z</time>
      </trkpt>
      <trkpt lat="43.65085" lon="1.3843">
        <ele>151</ele>
        <time>2025-06-18T16:14:35Z</time>
      </trkpt>
      <trkpt lat="43.65085" lon="1.3843">
        <ele>151</ele>
        <time>2025-06-18T16:14:36Z</time>
      </trkpt>
      <trkpt lat="43.65087" lon="1.38437">
        <ele>151</ele>
        <time>2025-06-18T16:14:37Z</time>
      </trkpt>
      <trkpt lat="43.65087" lon="1.38438">
        <ele>151</ele>
        <time>2025-06-18T16:14:38Z</time>
      </trkpt>
      <trkpt lat="43.65087" lon="1.38438">
        <ele>151</ele>
        <time>2025-06-18T16:14:39Z</time>
      </trkpt>
      <trkpt lat="43.65088" lon="1.38442">
        <ele>150</ele>
        <time>2025-06-18T16:14:40Z</time>
      </trkpt>
      <trkpt lat="43.65089" lon="1.38445">
        <ele>150</ele>
        <time>2025-06-18T16:14:41Z</time>
      </trkpt>
      <trkpt lat="43.65091" lon="1.38451">
        <ele>150</ele>
        <time>2025-06-18T16:14:42Z</time>
      </trkpt>
      <trkpt lat="43.65092" lon="1.38453">
        <ele>150</ele>
        <time>2025-06-18T16:14:43Z</time>
      </trkpt>
      <trkpt lat="43.65093" lon="1.38457">
        <ele>150</ele>
        <time>2025-06-18T16:14:44Z</time>
      </trkpt>
      <trkpt lat="43.65094" lon="1.3846">
        <ele>150</ele>
        <time>2025-06-18T16:14:45Z</time>
      </trkpt>
      <trkpt lat="43.65094" lon="1.3846">
        <ele>150</ele>
        <time>2025-06-18T16:14:46Z</time>
      </trkpt>
      <trkpt lat="43.65097" lon="1.38466">
        <ele>151</ele>
        <time>2025-06-18T16:14:47Z</time>
      </trkpt>
      <trkpt lat="43.65097" lon="1.38466">
        <ele>151</ele>
        <time>2025-06-18T16:14:48Z</time>
      </trkpt>
      <trkpt lat="43.65099" lon="1.38472">
        <ele>151</ele>
        <time>2025-06-18T16:14:49Z</time>
      </trkpt>
      <trkpt lat="43.65099" lon="1.38475">
        <ele>150</ele>
        <time>2025-06-18T16:14:50Z</time>
      </trkpt>
      <trkpt lat="43.65099" lon="1.38475">
        <ele>150</ele>
        <time>2025-06-18T16:14:51Z</time>
      </trkpt>
      <trkpt lat="43.65102" lon="1.38481">
        <ele>150</ele>
        <time>2025-06-18T16:14:52Z</time>
      </trkpt>
      <trkpt lat="43.65103" lon="1.38484">
        <ele>150</ele>
        <time>2025-06-18T16:14:53Z</time>
      </trkpt>
      <trkpt lat="43.65104" lon="1.38487">
        <ele>150</ele>
        <time>2025-06-18T16:14:54Z</time>
      </trkpt>
      <trkpt lat="43.65105" lon="1.3849">
        <ele>150</ele>
        <time>2025-06-18T16:14:55Z</time>
      </trkpt>
      <trkpt lat="43.65106" lon="1.38493">
        <ele>150</ele>
        <time>2025-06-18T16:14:56Z</time>
      </trkpt>
      <trkpt lat="43.65107" lon="1.38497">
        <ele>150</ele>
        <time>2025-06-18T16:14:57Z</time>
      </trkpt>
      <trkpt lat="43.65107" lon="1.38497">
        <ele>150</ele>
        <time>2025-06-18T16:14:58Z</time>
      </trkpt>
      <trkpt lat="43.65109" lon="1.38504">
        <ele>150</ele>
        <time>2025-06-18T16:14:59Z</time>
      </trkpt>
      <trkpt lat="43.65109" lon="1.38508">
        <ele>150</ele>
        <time>2025-06-18T16:15:00Z</time>
      </trkpt>
      <trkpt lat="43.65109" lon="1.38508">
        <ele>149</ele>
        <time>2025-06-18T16:15:01Z</time>
      </trkpt>
      <trkpt lat="43.65108" lon="1.38515">
        <ele>149</ele>
        <time>2025-06-18T16:15:02Z</time>
      </trkpt>
      <trkpt lat="43.65108" lon="1.38515">
        <ele>149</ele>
        <time>2025-06-18T16:15:03Z</time>
      </trkpt>
      <trkpt lat="43.65107" lon="1.38522">
        <ele>149</ele>
        <time>2025-06-18T16:15:04Z</time>
      </trkpt>
      <trkpt lat="43.65106" lon="1.38525">
        <ele>150</ele>
        <time>2025-06-18T16:15:05Z</time>
      </trkpt>
      <trkpt lat="43.65106" lon="1.38525">
        <ele>150</ele>
        <time>2025-06-18T16:15:06Z</time>
      </trkpt>
      <trkpt lat="43.65108" lon="1.38531">
        <ele>150</ele>
        <time>2025-06-18T16:15:07Z</time>
      </trkpt>
      <trkpt lat="43.65108" lon="1.38531">
        <ele>150</ele>
        <time>2025-06-18T16:15:08Z</time>
      </trkpt>
      <trkpt lat="43.65111" lon="1.38536">
        <ele>150</ele>
        <time>2025-06-18T16:15:09Z</time>
      </trkpt>
      <trkpt lat="43.65114" lon="1.38537">
        <ele>150</ele>
        <time>2025-06-18T16:15:10Z</time>
      </trkpt>
      <trkpt lat="43.65116" lon="1.38538">
        <ele>150</ele>
        <time>2025-06-18T16:15:11Z</time>
      </trkpt>
      <trkpt lat="43.65118" lon="1.38539">
        <ele>150</ele>
        <time>2025-06-18T16:15:12Z</time>
      </trkpt>
      <trkpt lat="43.6512" lon="1.38541">
        <ele>150</ele>
        <time>2025-06-18T16:15:13Z</time>
      </trkpt>
      <trkpt lat="43.65122" lon="1.38543">
        <ele>150</ele>
        <time>2025-06-18T16:15:14Z</time>
      </trkpt>
      <trkpt lat="43.65122" lon="1.38543">
        <ele>150</ele>
        <time>2025-06-18T16:15:15Z</time>
      </trkpt>
      <trkpt lat="43.65125" lon="1.3855">
        <ele>150</ele>
        <time>2025-06-18T16:15:16Z</time>
      </trkpt>
      <trkpt lat="43.65125" lon="1.3855">
        <ele>150</ele>
        <time>2025-06-18T16:15:17Z</time>
      </trkpt>
      <trkpt lat="43.65128" lon="1.38557">
        <ele>150</ele>
        <time>2025-06-18T16:15:18Z</time>
      </trkpt>
      <trkpt lat="43.65129" lon="1.38561">
        <ele>150</ele>
        <time>2025-06-18T16:15:19Z</time>
      </trkpt>
      <trkpt lat="43.6513" lon="1.38565">
        <ele>150</ele>
        <time>2025-06-18T16:15:20Z</time>
      </trkpt>
      <trkpt lat="43.65131" lon="1.38568">
        <ele>150</ele>
        <time>2025-06-18T16:15:21Z</time>
      </trkpt>
      <trkpt lat="43.65131" lon="1.38568">
        <ele>150</ele>
        <time>2025-06-18T16:15:22Z</time>
      </trkpt>
      <trkpt lat="43.65133" lon="1.38574">
        <ele>150</ele>
        <time>2025-06-18T16:15:23Z</time>
      </trkpt>
      <trkpt lat="43.65134" lon="1.38577">
        <ele>150</ele>
        <time>2025-06-18T16:15:24Z</time>
      </trkpt>
      <trkpt lat="43.65134" lon="1.38581">
        <ele>150</ele>
        <time>2025-06-18T16:15:25Z</time>
      </trkpt>
      <trkpt lat="43.65135" lon="1.38584">
        <ele>150</ele>
        <time>2025-06-18T16:15:26Z</time>
      </trkpt>
      <trkpt lat="43.65136" lon="1.38588">
        <ele>149</ele>
        <time>2025-06-18T16:15:27Z</time>
      </trkpt>
      <trkpt lat="43.65137" lon="1.38591">
        <ele>149</ele>
        <time>2025-06-18T16:15:28Z</time>
      </trkpt>
      <trkpt lat="43.65137" lon="1.38591">
        <ele>149</ele>
        <time>2025-06-18T16:15:29Z</time>
      </trkpt>
      <trkpt lat="43.65139" lon="1.38598">
        <ele>149</ele>
        <time>2025-06-18T16:15:30Z</time>
      </trkpt>
      <trkpt lat="43.65139" lon="1.38598">
        <ele>149</ele>
        <time>2025-06-18T16:15:31Z</time>
      </trkpt>
      <trkpt lat="43.6514" lon="1.38604">
        <ele>149</ele>
        <time>2025-06-18T16:15:32Z</time>
      </trkpt>
      <trkpt lat="43.6514" lon="1.38604">
        <ele>149</ele>
        <time>2025-06-18T16:15:33Z</time>
      </trkpt>
      <trkpt lat="43.65141" lon="1.38611">
        <ele>149</ele>
        <time>2025-06-18T16:15:34Z</time>
      </trkpt>
      <trkpt lat="43.65142" lon="1.38614">
        <ele>149</ele>
        <time>2025-06-18T16:15:35Z</time>
      </trkpt>
      <trkpt lat="43.65142" lon="1.38617">
        <ele>149</ele>
        <time>2025-06-18T16:15:36Z</time>
      </trkpt>
      <trkpt lat="43.65143" lon="1.38621">
        <ele>149</ele>
        <time>2025-06-18T16:15:37Z</time>
      </trkpt>
      <trkpt lat="43.65143" lon="1.38621">
        <ele>149</ele>
        <time>2025-06-18T16:15:38Z</time>
      </trkpt>
      <trkpt lat="43.65145" lon="1.38627">
        <ele>149</ele>
        <time>2025-06-18T16:15:39Z</time>
      </trkpt>
      <trkpt lat="43.65145" lon="1.38627">
        <ele>149</ele>
        <time>2025-06-18T16:15:40Z</time>
      </trkpt>
      <trkpt lat="43.65147" lon="1.38633">
        <ele>149</ele>
        <time>2025-06-18T16:15:41Z</time>
      </trkpt>
      <trkpt lat="43.65148" lon="1.38637">
        <ele>149</ele>
        <time>2025-06-18T16:15:42Z</time>
      </trkpt>
      <trkpt lat="43.65149" lon="1.3864">
        <ele>149</ele>
        <time>2025-06-18T16:15:43Z</time>
      </trkpt>
      <trkpt lat="43.65149" lon="1.3864">
        <ele>150</ele>
        <time>2025-06-18T16:15:44Z</time>
      </trkpt>
      <trkpt lat="43.65151" lon="1.38645">
        <ele>150</ele>
        <time>2025-06-18T16:15:45Z</time>
      </trkpt>
      <trkpt lat="43.65154" lon="1.38648">
        <ele>149</ele>
        <time>2025-06-18T16:15:46Z</time>
      </trkpt>
      <trkpt lat="43.65155" lon="1.38651">
        <ele>149</ele>
        <time>2025-06-18T16:15:47Z</time>
      </trkpt>
      <trkpt lat="43.65156" lon="1.38654">
        <ele>149</ele>
        <time>2025-06-18T16:15:48Z</time>
      </trkpt>
      <trkpt lat="43.65157" lon="1.38657">
        <ele>149</ele>
        <time>2025-06-18T16:15:49Z</time>
      </trkpt>
      <trkpt lat="43.65158" lon="1.3866">
        <ele>149</ele>
        <time>2025-06-18T16:15:50Z</time>
      </trkpt>
      <trkpt lat="43.6516" lon="1.38663">
        <ele>149</ele>
        <time>2025-06-18T16:15:51Z</time>
      </trkpt>
      <trkpt lat="43.65162" lon="1.38666">
        <ele>149</ele>
        <time>2025-06-18T16:15:52Z</time>
      </trkpt>
      <trkpt lat="43.65162" lon="1.38666">
        <ele>149</ele>
        <time>2025-06-18T16:15:53Z</time>
      </trkpt>
      <trkpt lat="43.65165" lon="1.38671">
        <ele>149</ele>
        <time>2025-06-18T16:15:54Z</time>
      </trkpt>
      <trkpt lat="43.65166" lon="1.38674">
        <ele>150</ele>
        <time>2025-06-18T16:15:55Z</time>
      </trkpt>
      <trkpt lat="43.65168" lon="1.38676">
        <ele>150</ele>
        <time>2025-06-18T16:15:56Z</time>
      </trkpt>
      <trkpt lat="43.65169" lon="1.38678">
        <ele>150</ele>
        <time>2025-06-18T16:15:57Z</time>
      </trkpt>
      <trkpt lat="43.65169" lon="1.38678">
        <ele>150</ele>
        <time>2025-06-18T16:15:58Z</time>
      </trkpt>
      <trkpt lat="43.6517" lon="1.38681">
        <ele>150</ele>
        <time>2025-06-18T16:15:59Z</time>
      </trkpt>
      <trkpt lat="43.6517" lon="1.38681">
        <ele>150</ele>
        <time>2025-06-18T16:16:00Z</time>
      </trkpt>
      <trkpt lat="43.65173" lon="1.38687">
        <ele>150</ele>
        <time>2025-06-18T16:16:01Z</time>
      </trkpt>
      <trkpt lat="43.65174" lon="1.3869">
        <ele>149</ele>
        <time>2025-06-18T16:16:02Z</time>
      </trkpt>
      <trkpt lat="43.65176" lon="1.38693">
        <ele>149</ele>
        <time>2025-06-18T16:16:03Z</time>
      </trkpt>
      <trkpt lat="43.65178" lon="1.38696">
        <ele>149</ele>
        <time>2025-06-18T16:16:04Z</time>
      </trkpt>
      <trkpt lat="43.65179" lon="1.387">
        <ele>150</ele>
        <time>2025-06-18T16:16:05Z</time>
      </trkpt>
      <trkpt lat="43.65179" lon="1.387">
        <ele>150</ele>
        <time>2025-06-18T16:16:06Z</time>
      </trkpt>
      <trkpt lat="43.6518" lon="1.38703">
        <ele>150</ele>
        <time>2025-06-18T16:16:07Z</time>
      </trkpt>
      <trkpt lat="43.65182" lon="1.3871">
        <ele>150</ele>
        <time>2025-06-18T16:16:08Z</time>
      </trkpt>
      <trkpt lat="43.65183" lon="1.38713">
        <ele>150</ele>
        <time>2025-06-18T16:16:09Z</time>
      </trkpt>
      <trkpt lat="43.65184" lon="1.38716">
        <ele>150</ele>
        <time>2025-06-18T16:16:10Z</time>
      </trkpt>
      <trkpt lat="43.65185" lon="1.38719">
        <ele>150</ele>
        <time>2025-06-18T16:16:11Z</time>
      </trkpt>
      <trkpt lat="43.65185" lon="1.38719">
        <ele>149</ele>
        <time>2025-06-18T16:16:12Z</time>
      </trkpt>
      <trkpt lat="43.65187" lon="1.38725">
        <ele>149</ele>
        <time>2025-06-18T16:16:13Z</time>
      </trkpt>
      <trkpt lat="43.65187" lon="1.38725">
        <ele>149</ele>
        <time>2025-06-18T16:16:14Z</time>
      </trkpt>
      <trkpt lat="43.65189" lon="1.38731">
        <ele>150</ele>
        <time>2025-06-18T16:16:15Z</time>
      </trkpt>
      <trkpt lat="43.6519" lon="1.38733">
        <ele>150</ele>
        <time>2025-06-18T16:16:16Z</time>
      </trkpt>
      <trkpt lat="43.6519" lon="1.38733">
        <ele>150</ele>
        <time>2025-06-18T16:16:17Z</time>
      </trkpt>
      <trkpt lat="43.65191" lon="1.38738">
        <ele>150</ele>
        <time>2025-06-18T16:16:18Z</time>
      </trkpt>
      <trkpt lat="43.65192" lon="1.38741">
        <ele>150</ele>
        <time>2025-06-18T16:16:19Z</time>
      </trkpt>
      <trkpt lat="43.65193" lon="1.38745">
        <ele>150</ele>
        <time>2025-06-18T16:16:20Z</time>
      </trkpt>
      <trkpt lat="43.65194" lon="1.38749">
        <ele>150</ele>
        <time>2025-06-18T16:16:21Z</time>
      </trkpt>
      <trkpt lat="43.65196" lon="1.38754">
        <ele>150</ele>
        <time>2025-06-18T16:16:22Z</time>
      </trkpt>
      <trkpt lat="43.65197" lon="1.38757">
        <ele>150</ele>
        <time>2025-06-18T16:16:23Z</time>
      </trkpt>
      <trkpt lat="43.65197" lon="1.38757">
        <ele>149</ele>
        <time>2025-06-18T16:16:24Z</time>
      </trkpt>
      <trkpt lat="43.65199" lon="1.38764">
        <ele>149</ele>
        <time>2025-06-18T16:16:25Z</time>
      </trkpt>
      <trkpt lat="43.652" lon="1.38766">
        <ele>149</ele>
        <time>2025-06-18T16:16:26Z</time>
      </trkpt>
      <trkpt lat="43.65201" lon="1.38769">
        <ele>149</ele>
        <time>2025-06-18T16:16:27Z</time>
      </trkpt>
      <trkpt lat="43.65202" lon="1.38771">
        <ele>149</ele>
        <time>2025-06-18T16:16:28Z</time>
      </trkpt>
      <trkpt lat="43.65202" lon="1.38771">
        <ele>149</ele>
        <time>2025-06-18T16:16:29Z</time>
      </trkpt>
      <trkpt lat="43.65205" lon="1.38776">
        <ele>150</ele>
        <time>2025-06-18T16:16:30Z</time>
      </trkpt>
      <trkpt lat="43.65205" lon="1.38776">
        <ele>150</ele>
        <time>2025-06-18T16:16:31Z</time>
      </trkpt>
      <trkpt lat="43.65208" lon="1.38782">
        <ele>150</ele>
        <time>2025-06-18T16:16:32Z</time>
      </trkpt>
      <trkpt lat="43.65208" lon="1.38782">
        <ele>150</ele>
        <time>2025-06-18T16:16:33Z</time>
      </trkpt>
      <trkpt lat="43.65212" lon="1.38787">
        <ele>150</ele>
        <time>2025-06-18T16:16:34Z</time>
      </trkpt>
      <trkpt lat="43.65213" lon="1.3879">
        <ele>150</ele>
        <time>2025-06-18T16:16:35Z</time>
      </trkpt>
      <trkpt lat="43.65214" lon="1.38793">
        <ele>150</ele>
        <time>2025-06-18T16:16:36Z</time>
      </trkpt>
      <trkpt lat="43.65216" lon="1.38796">
        <ele>149</ele>
        <time>2025-06-18T16:16:37Z</time>
      </trkpt>
      <trkpt lat="43.65216" lon="1.38796">
        <ele>149</ele>
        <time>2025-06-18T16:16:38Z</time>
      </trkpt>
      <trkpt lat="43.65219" lon="1.38801">
        <ele>149</ele>
        <time>2025-06-18T16:16:39Z</time>
      </trkpt>
      <trkpt lat="43.65221" lon="1.38804">
        <ele>149</ele>
        <time>2025-06-18T16:16:40Z</time>
      </trkpt>
      <trkpt lat="43.65221" lon="1.38804">
        <ele>149</ele>
        <time>2025-06-18T16:16:41Z</time>
      </trkpt>
      <trkpt lat="43.65224" lon="1.38809">
        <ele>149</ele>
        <time>2025-06-18T16:16:42Z</time>
      </trkpt>
      <trkpt lat="43.65224" lon="1.38809">
        <ele>149</ele>
        <time>2025-06-18T16:16:43Z</time>
      </trkpt>
      <trkpt lat="43.65226" lon="1.38815">
        <ele>149</ele>
        <time>2025-06-18T16:16:44Z</time>
      </trkpt>
      <trkpt lat="43.65226" lon="1.38815">
        <ele>149</ele>
        <time>2025-06-18T16:16:45Z</time>
      </trkpt>
      <trkpt lat="43.65225" lon="1.38819">
        <ele>149</ele>
        <time>2025-06-18T16:17:05Z</time>
      </trkpt>
      <trkpt lat="43.65225" lon="1.38819">
        <ele>149</ele>
        <time>2025-06-18T16:17:06Z</time>
      </trkpt>
      <trkpt lat="43.6523" lon="1.38827">
        <ele>149</ele>
        <time>2025-06-18T16:17:07Z</time>
      </trkpt>
      <trkpt lat="43.65232" lon="1.3883">
        <ele>149</ele>
        <time>2025-06-18T16:17:08Z</time>
      </trkpt>
      <trkpt lat="43.65232" lon="1.3883">
        <ele>149</ele>
        <time>2025-06-18T16:17:09Z</time>
      </trkpt>
      <trkpt lat="43.65237" lon="1.38835">
        <ele>149</ele>
        <time>2025-06-18T16:17:10Z</time>
      </trkpt>
      <trkpt lat="43.65237" lon="1.38835">
        <ele>149</ele>
        <time>2025-06-18T16:17:11Z</time>
      </trkpt>
      <trkpt lat="43.65241" lon="1.38841">
        <ele>149</ele>
        <time>2025-06-18T16:17:12Z</time>
      </trkpt>
      <trkpt lat="43.65243" lon="1.38844">
        <ele>149</ele>
        <time>2025-06-18T16:17:13Z</time>
      </trkpt>
      <trkpt lat="43.65245" lon="1.38847">
        <ele>148</ele>
        <time>2025-06-18T16:17:14Z</time>
      </trkpt>
      <trkpt lat="43.65246" lon="1.3885">
        <ele>148</ele>
        <time>2025-06-18T16:17:15Z</time>
      </trkpt>
      <trkpt lat="43.65249" lon="1.38853">
        <ele>148</ele>
        <time>2025-06-18T16:17:16Z</time>
      </trkpt>
      <trkpt lat="43.65251" lon="1.38855">
        <ele>148</ele>
        <time>2025-06-18T16:17:17Z</time>
      </trkpt>
      <trkpt lat="43.65253" lon="1.38858">
        <ele>148</ele>
        <time>2025-06-18T16:17:18Z</time>
      </trkpt>
      <trkpt lat="43.65255" lon="1.38861">
        <ele>147</ele>
        <time>2025-06-18T16:17:19Z</time>
      </trkpt>
      <trkpt lat="43.65256" lon="1.38864">
        <ele>147</ele>
        <time>2025-06-18T16:17:20Z</time>
      </trkpt>
      <trkpt lat="43.65256" lon="1.38864">
        <ele>147</ele>
        <time>2025-06-18T16:17:21Z</time>
      </trkpt>
      <trkpt lat="43.6526" lon="1.38869">
        <ele>147</ele>
        <time>2025-06-18T16:17:22Z</time>
      </trkpt>
      <trkpt lat="43.65262" lon="1.38871">
        <ele>147</ele>
        <time>2025-06-18T16:17:23Z</time>
      </trkpt>
      <trkpt lat="43.65262" lon="1.38871">
        <ele>147</ele>
        <time>2025-06-18T16:17:24Z</time>
      </trkpt>
      <trkpt lat="43.65264" lon="1.38876">
        <ele>147</ele>
        <time>2025-06-18T16:17:25Z</time>
      </trkpt>
      <trkpt lat="43.65266" lon="1.38879">
        <ele>147</ele>
        <time>2025-06-18T16:17:26Z</time>
      </trkpt>
      <trkpt lat="43.65268" lon="1.38881">
        <ele>146</ele>
        <time>2025-06-18T16:17:27Z</time>
      </trkpt>
      <trkpt lat="43.65268" lon="1.38881">
        <ele>146</ele>
        <time>2025-06-18T16:17:28Z</time>
      </trkpt>
      <trkpt lat="43.65271" lon="1.38888">
        <ele>145</ele>
        <time>2025-06-18T16:17:29Z</time>
      </trkpt>
      <trkpt lat="43.65271" lon="1.38888">
        <ele>145</ele>
        <time>2025-06-18T16:17:30Z</time>
      </trkpt>
      <trkpt lat="43.65275" lon="1.38894">
        <ele>144</ele>
        <time>2025-06-18T16:17:31Z</time>
      </trkpt>
      <trkpt lat="43.65277" lon="1.38898">
        <ele>144</ele>
        <time>2025-06-18T16:17:32Z</time>
      </trkpt>
      <trkpt lat="43.65279" lon="1.389">
        <ele>144</ele>
        <time>2025-06-18T16:17:33Z</time>
      </trkpt>
      <trkpt lat="43.6528" lon="1.38903">
        <ele>144</ele>
        <time>2025-06-18T16:17:34Z</time>
      </trkpt>
      <trkpt lat="43.6528" lon="1.38903">
        <ele>144</ele>
        <time>2025-06-18T16:17:35Z</time>
      </trkpt>
      <trkpt lat="43.65284" lon="1.38909">
        <ele>144</ele>
        <time>2025-06-18T16:17:36Z</time>
      </trkpt>
      <trkpt lat="43.65286" lon="1.38911">
        <ele>143</ele>
        <time>2025-06-18T16:17:37Z</time>
      </trkpt>
      <trkpt lat="43.65286" lon="1.38911">
        <ele>143</ele>
        <time>2025-06-18T16:17:38Z</time>
      </trkpt>
      <trkpt lat="43.65291" lon="1.38915">
        <ele>143</ele>
        <time>2025-06-18T16:17:39Z</time>
      </trkpt>
      <trkpt lat="43.65291" lon="1.38915">
        <ele>143</ele>
        <time>2025-06-18T16:17:40Z</time>
      </trkpt>
      <trkpt lat="43.65296" lon="1.38918">
        <ele>142</ele>
        <time>2025-06-18T16:17:41Z</time>
      </trkpt>
      <trkpt lat="43.65299" lon="1.38919">
        <ele>142</ele>
        <time>2025-06-18T16:17:42Z</time>
      </trkpt>
      <trkpt lat="43.65299" lon="1.38919">
        <ele>142</ele>
        <time>2025-06-18T16:17:43Z</time>
      </trkpt>
      <trkpt lat="43.65305" lon="1.38922">
        <ele>142</ele>
        <time>2025-06-18T16:17:44Z</time>
      </trkpt>
      <trkpt lat="43.65307" lon="1.38924">
        <ele>142</ele>
        <time>2025-06-18T16:17:45Z</time>
      </trkpt>
      <trkpt lat="43.65309" lon="1.38927">
        <ele>141</ele>
        <time>2025-06-18T16:17:46Z</time>
      </trkpt>
      <trkpt lat="43.65309" lon="1.38927">
        <ele>141</ele>
        <time>2025-06-18T16:17:47Z</time>
      </trkpt>
      <trkpt lat="43.65312" lon="1.38935">
        <ele>140</ele>
        <time>2025-06-18T16:17:48Z</time>
      </trkpt>
      <trkpt lat="43.65312" lon="1.38935">
        <ele>140</ele>
        <time>2025-06-18T16:17:49Z</time>
      </trkpt>
      <trkpt lat="43.65315" lon="1.38943">
        <ele>140</ele>
        <time>2025-06-18T16:17:50Z</time>
      </trkpt>
      <trkpt lat="43.65316" lon="1.38948">
        <ele>139</ele>
        <time>2025-06-18T16:17:51Z</time>
      </trkpt>
      <trkpt lat="43.65317" lon="1.38952">
        <ele>139</ele>
        <time>2025-06-18T16:17:52Z</time>
      </trkpt>
      <trkpt lat="43.65318" lon="1.38956">
        <ele>139</ele>
        <time>2025-06-18T16:17:53Z</time>
      </trkpt>
      <trkpt lat="43.65321" lon="1.38965">
        <ele>138</ele>
        <time>2025-06-18T16:17:55Z</time>
      </trkpt>
      <trkpt lat="43.65321" lon="1.38965">
        <ele>138</ele>
        <time>2025-06-18T16:17:56Z</time>
      </trkpt>
      <trkpt lat="43.65324" lon="1.38974">
        <ele>137</ele>
        <time>2025-06-18T16:17:57Z</time>
      </trkpt>
      <trkpt lat="43.65324" lon="1.38974">
        <ele>136</ele>
        <time>2025-06-18T16:17:58Z</time>
      </trkpt>
      <trkpt lat="43.65328" lon="1.38982">
        <ele>136</ele>
        <time>2025-06-18T16:17:59Z</time>
      </trkpt>
      <trkpt lat="43.65329" lon="1.38985">
        <ele>136</ele>
        <time>2025-06-18T16:18:00Z</time>
      </trkpt>
      <trkpt lat="43.65329" lon="1.38985">
        <ele>136</ele>
        <time>2025-06-18T16:18:01Z</time>
      </trkpt>
      <trkpt lat="43.65331" lon="1.38992">
        <ele>135</ele>
        <time>2025-06-18T16:18:02Z</time>
      </trkpt>
      <trkpt lat="43.65332" lon="1.38996">
        <ele>135</ele>
        <time>2025-06-18T16:18:03Z</time>
      </trkpt>
      <trkpt lat="43.65331" lon="1.39">
        <ele>135</ele>
        <time>2025-06-18T16:18:04Z</time>
      </trkpt>
      <trkpt lat="43.6533" lon="1.39004">
        <ele>135</ele>
        <time>2025-06-18T16:18:05Z</time>
      </trkpt>
      <trkpt lat="43.65328" lon="1.39008">
        <ele>134</ele>
        <time>2025-06-18T16:18:06Z</time>
      </trkpt>
      <trkpt lat="43.65327" lon="1.39013">
        <ele>134</ele>
        <time>2025-06-18T16:18:07Z</time>
      </trkpt>
      <trkpt lat="43.65327" lon="1.39013">
        <ele>134</ele>
        <time>2025-06-18T16:18:08Z</time>
      </trkpt>
      <trkpt lat="43.65325" lon="1.3902">
        <ele>133</ele>
        <time>2025-06-18T16:18:09Z</time>
      </trkpt>
      <trkpt lat="43.65325" lon="1.3902">
        <ele>133</ele>
        <time>2025-06-18T16:18:10Z</time>
      </trkpt>
      <trkpt lat="43.65324" lon="1.39026">
        <ele>133</ele>
        <time>2025-06-18T16:18:11Z</time>
      </trkpt>
      <trkpt lat="43.65324" lon="1.39026">
        <ele>133</ele>
        <time>2025-06-18T16:18:12Z</time>
      </trkpt>
      <trkpt lat="43.65323" lon="1.39032">
        <ele>133</ele>
        <time>2025-06-18T16:18:13Z</time>
      </trkpt>
      <trkpt lat="43.65323" lon="1.39032">
        <ele>133</ele>
        <time>2025-06-18T16:18:14Z</time>
      </trkpt>
      <trkpt lat="43.65319" lon="1.39038">
        <ele>133</ele>
        <time>2025-06-18T16:18:15Z</time>
      </trkpt>
      <trkpt lat="43.65316" lon="1.39039">
        <ele>133</ele>
        <time>2025-06-18T16:18:16Z</time>
      </trkpt>
      <trkpt lat="43.65314" lon="1.3904">
        <ele>133</ele>
        <time>2025-06-18T16:18:17Z</time>
      </trkpt>
      <trkpt lat="43.65314" lon="1.3904">
        <ele>133</ele>
        <time>2025-06-18T16:18:18Z</time>
      </trkpt>
      <trkpt lat="43.65308" lon="1.3904">
        <ele>133</ele>
        <time>2025-06-18T16:18:19Z</time>
      </trkpt>
      <trkpt lat="43.65305" lon="1.39039">
        <ele>133</ele>
        <time>2025-06-18T16:18:20Z</time>
      </trkpt>
      <trkpt lat="43.65305" lon="1.39039">
        <ele>133</ele>
        <time>2025-06-18T16:18:21Z</time>
      </trkpt>
      <trkpt lat="43.65298" lon="1.39038">
        <ele>133</ele>
        <time>2025-06-18T16:18:22Z</time>
      </trkpt>
      <trkpt lat="43.65295" lon="1.39037">
        <ele>133</ele>
        <time>2025-06-18T16:18:23Z</time>
      </trkpt>
      <trkpt lat="43.65292" lon="1.39036">
        <ele>133</ele>
        <time>2025-06-18T16:18:24Z</time>
      </trkpt>
      <trkpt lat="43.65292" lon="1.39036">
        <ele>133</ele>
        <time>2025-06-18T16:18:25Z</time>
      </trkpt>
      <trkpt lat="43.65286" lon="1.39036">
        <ele>133</ele>
        <time>2025-06-18T16:18:26Z</time>
      </trkpt>
      <trkpt lat="43.65284" lon="1.39035">
        <ele>133</ele>
        <time>2025-06-18T16:18:27Z</time>
      </trkpt>
      <trkpt lat="43.65284" lon="1.39035">
        <ele>133</ele>
        <time>2025-06-18T16:18:28Z</time>
      </trkpt>
      <trkpt lat="43.65279" lon="1.39034">
        <ele>133</ele>
        <time>2025-06-18T16:18:29Z</time>
      </trkpt>
      <trkpt lat="43.65276" lon="1.39034">
        <ele>133</ele>
        <time>2025-06-18T16:18:30Z</time>
      </trkpt>
      <trkpt lat="43.65273" lon="1.39033">
        <ele>133</ele>
        <time>2025-06-18T16:18:31Z</time>
      </trkpt>
      <trkpt lat="43.6527" lon="1.39033">
        <ele>133</ele>
        <time>2025-06-18T16:18:32Z</time>
      </trkpt>
      <trkpt lat="43.65267" lon="1.39033">
        <ele>133</ele>
        <time>2025-06-18T16:18:33Z</time>
      </trkpt>
      <trkpt lat="43.65264" lon="1.39033">
        <ele>133</ele>
        <time>2025-06-18T16:18:34Z</time>
      </trkpt>
      <trkpt lat="43.65261" lon="1.39033">
        <ele>133</ele>
        <time>2025-06-18T16:18:35Z</time>
      </trkpt>
      <trkpt lat="43.65258" lon="1.39033">
        <ele>133</ele>
        <time>2025-06-18T16:18:36Z</time>
      </trkpt>
      <trkpt lat="43.65255" lon="1.39032">
        <ele>133</ele>
        <time>2025-06-18T16:18:37Z</time>
      </trkpt>
      <trkpt lat="43.65252" lon="1.39032">
        <ele>133</ele>
        <time>2025-06-18T16:18:38Z</time>
      </trkpt>
      <trkpt lat="43.6525" lon="1.3903">
        <ele>133</ele>
        <time>2025-06-18T16:18:39Z</time>
      </trkpt>
      <trkpt lat="43.65247" lon="1.39029">
        <ele>133</ele>
        <time>2025-06-18T16:18:40Z</time>
      </trkpt>
      <trkpt lat="43.65244" lon="1.39027">
        <ele>133</ele>
        <time>2025-06-18T16:18:41Z</time>
      </trkpt>
      <trkpt lat="43.65244" lon="1.39027">
        <ele>133</ele>
        <time>2025-06-18T16:18:42Z</time>
      </trkpt>
      <trkpt lat="43.65239" lon="1.39023">
        <ele>133</ele>
        <time>2025-06-18T16:18:43Z</time>
      </trkpt>
      <trkpt lat="43.65237" lon="1.39021">
        <ele>133</ele>
        <time>2025-06-18T16:18:44Z</time>
      </trkpt>
      <trkpt lat="43.65234" lon="1.3902">
        <ele>133</ele>
        <time>2025-06-18T16:18:45Z</time>
      </trkpt>
      <trkpt lat="43.65232" lon="1.39018">
        <ele>133</ele>
        <time>2025-06-18T16:18:46Z</time>
      </trkpt>
      <trkpt lat="43.65232" lon="1.39018">
        <ele>133</ele>
        <time>2025-06-18T16:18:47Z</time>
      </trkpt>
      <trkpt lat="43.65227" lon="1.39016">
        <ele>133</ele>
        <time>2025-06-18T16:18:48Z</time>
      </trkpt>
      <trkpt lat="43.65223" lon="1.39016">
        <ele>133</ele>
        <time>2025-06-18T16:18:49Z</time>
      </trkpt>
      <trkpt lat="43.65221" lon="1.39015">
        <ele>134</ele>
        <time>2025-06-18T16:18:50Z</time>
      </trkpt>
      <trkpt lat="43.65218" lon="1.39014">
        <ele>134</ele>
        <time>2025-06-18T16:18:51Z</time>
      </trkpt>
      <trkpt lat="43.65218" lon="1.39014">
        <ele>134</ele>
        <time>2025-06-18T16:18:52Z</time>
      </trkpt>
      <trkpt lat="43.65213" lon="1.39014">
        <ele>134</ele>
        <time>2025-06-18T16:18:53Z</time>
      </trkpt>
      <trkpt lat="43.6521" lon="1.39014">
        <ele>134</ele>
        <time>2025-06-18T16:18:54Z</time>
      </trkpt>
      <trkpt lat="43.65207" lon="1.39013">
        <ele>134</ele>
        <time>2025-06-18T16:18:55Z</time>
      </trkpt>
      <trkpt lat="43.65204" lon="1.39014">
        <ele>134</ele>
        <time>2025-06-18T16:18:56Z</time>
      </trkpt>
      <trkpt lat="43.65204" lon="1.39014">
        <ele>133</ele>
        <time>2025-06-18T16:18:57Z</time>
      </trkpt>
      <trkpt lat="43.65198" lon="1.39014">
        <ele>133</ele>
        <time>2025-06-18T16:18:58Z</time>
      </trkpt>
      <trkpt lat="43.65198" lon="1.39014">
        <ele>133</ele>
        <time>2025-06-18T16:18:59Z</time>
      </trkpt>
      <trkpt lat="43.65192" lon="1.39016">
        <ele>133</ele>
        <time>2025-06-18T16:19:00Z</time>
      </trkpt>
      <trkpt lat="43.65189" lon="1.39016">
        <ele>133</ele>
        <time>2025-06-18T16:19:01Z</time>
      </trkpt>
      <trkpt lat="43.65186" lon="1.39016">
        <ele>133</ele>
        <time>2025-06-18T16:19:02Z</time>
      </trkpt>
      <trkpt lat="43.65183" lon="1.39016">
        <ele>133</ele>
        <time>2025-06-18T16:19:03Z</time>
      </trkpt>
      <trkpt lat="43.65181" lon="1.39016">
        <ele>133</ele>
        <time>2025-06-18T16:19:04Z</time>
      </trkpt>
      <trkpt lat="43.65178" lon="1.39016">
        <ele>133</ele>
        <time>2025-06-18T16:19:05Z</time>
      </trkpt>
      <trkpt lat="43.65175" lon="1.39017">
        <ele>133</ele>
        <time>2025-06-18T16:19:06Z</time>
      </trkpt>
      <trkpt lat="43.65173" lon="1.39018">
        <ele>133</ele>
        <time>2025-06-18T16:19:07Z</time>
      </trkpt>
      <trkpt lat="43.6517" lon="1.39018">
        <ele>133</ele>
        <time>2025-06-18T16:19:08Z</time>
      </trkpt>
      <trkpt lat="43.65168" lon="1.39019">
        <ele>133</ele>
        <time>2025-06-18T16:19:09Z</time>
      </trkpt>
      <trkpt lat="43.65165" lon="1.39019">
        <ele>133</ele>
        <time>2025-06-18T16:19:10Z</time>
      </trkpt>
      <trkpt lat="43.65163" lon="1.39019">
        <ele>133</ele>
        <time>2025-06-18T16:19:11Z</time>
      </trkpt>
      <trkpt lat="43.6516" lon="1.3902">
        <ele>133</ele>
        <time>2025-06-18T16:19:12Z</time>
      </trkpt>
      <trkpt lat="43.6516" lon="1.3902">
        <ele>133</ele>
        <time>2025-06-18T16:19:13Z</time>
      </trkpt>
      <trkpt lat="43.65155" lon="1.3902">
        <ele>133</ele>
        <time>2025-06-18T16:19:14Z</time>
      </trkpt>
      <trkpt lat="43.65153" lon="1.3902">
        <ele>133</ele>
        <time>2025-06-18T16:19:15Z</time>
      </trkpt>
      <trkpt lat="43.6515" lon="1.3902">
        <ele>133</ele>
        <time>2025-06-18T16:19:16Z</time>
      </trkpt>
      <trkpt lat="43.65147" lon="1.3902">
        <ele>133</ele>
        <time>2025-06-18T16:19:17Z</time>
      </trkpt>
      <trkpt lat="43.65147" lon="1.3902">
        <ele>133</ele>
        <time>2025-06-18T16:19:18Z</time>
      </trkpt>
      <trkpt lat="43.65142" lon="1.3902">
        <ele>133</ele>
        <time>2025-06-18T16:19:19Z</time>
      </trkpt>
      <trkpt lat="43.65139" lon="1.3902">
        <ele>132</ele>
        <time>2025-06-18T16:19:20Z</time>
      </trkpt>
      <trkpt lat="43.65137" lon="1.3902">
        <ele>132</ele>
        <time>2025-06-18T16:19:21Z</time>
      </trkpt>
      <trkpt lat="43.65137" lon="1.3902">
        <ele>133</ele>
        <time>2025-06-18T16:19:22Z</time>
      </trkpt>
      <trkpt lat="43.65131" lon="1.3902">
        <ele>133</ele>
        <time>2025-06-18T16:19:23Z</time>
      </trkpt>
      <trkpt lat="43.65131" lon="1.3902">
        <ele>133</ele>
        <time>2025-06-18T16:19:24Z</time>
      </trkpt>
      <trkpt lat="43.65126" lon="1.3902">
        <ele>133</ele>
        <time>2025-06-18T16:19:25Z</time>
      </trkpt>
      <trkpt lat="43.65123" lon="1.3902">
        <ele>133</ele>
        <time>2025-06-18T16:19:26Z</time>
      </trkpt>
      <trkpt lat="43.65121" lon="1.39019">
        <ele>133</ele>
        <time>2025-06-18T16:19:27Z</time>
      </trkpt>
      <trkpt lat="43.65118" lon="1.39019">
        <ele>133</ele>
        <time>2025-06-18T16:19:28Z</time>
      </trkpt>
      <trkpt lat="43.65116" lon="1.39018">
        <ele>133</ele>
        <time>2025-06-18T16:19:29Z</time>
      </trkpt>
      <trkpt lat="43.65113" lon="1.39018">
        <ele>133</ele>
        <time>2025-06-18T16:19:30Z</time>
      </trkpt>
      <trkpt lat="43.65111" lon="1.39018">
        <ele>133</ele>
        <time>2025-06-18T16:19:31Z</time>
      </trkpt>
      <trkpt lat="43.65108" lon="1.39018">
        <ele>134</ele>
        <time>2025-06-18T16:19:32Z</time>
      </trkpt>
      <trkpt lat="43.65105" lon="1.39018">
        <ele>134</ele>
        <time>2025-06-18T16:19:33Z</time>
      </trkpt>
      <trkpt lat="43.65103" lon="1.39017">
        <ele>134</ele>
        <time>2025-06-18T16:19:34Z</time>
      </trkpt>
      <trkpt lat="43.651" lon="1.39017">
        <ele>134</ele>
        <time>2025-06-18T16:19:35Z</time>
      </trkpt>
      <trkpt lat="43.65098" lon="1.39017">
        <ele>133</ele>
        <time>2025-06-18T16:19:36Z</time>
      </trkpt>
      <trkpt lat="43.65098" lon="1.39017">
        <ele>133</ele>
        <time>2025-06-18T16:19:37Z</time>
      </trkpt>
      <trkpt lat="43.65092" lon="1.39018">
        <ele>133</ele>
        <time>2025-06-18T16:19:38Z</time>
      </trkpt>
      <trkpt lat="43.65092" lon="1.39018">
        <ele>133</ele>
        <time>2025-06-18T16:19:39Z</time>
      </trkpt>
      <trkpt lat="43.6509" lon="1.39019">
        <ele>134</ele>
        <time>2025-06-18T16:19:40Z</time>
      </trkpt>
      <trkpt lat="43.65085" lon="1.39023">
        <ele>134</ele>
        <time>2025-06-18T16:19:41Z</time>
      </trkpt>
      <trkpt lat="43.65085" lon="1.39023">
        <ele>134</ele>
        <time>2025-06-18T16:19:42Z</time>
      </trkpt>
      <trkpt lat="43.65079" lon="1.39026">
        <ele>134</ele>
        <time>2025-06-18T16:19:43Z</time>
      </trkpt>
      <trkpt lat="43.65077" lon="1.39028">
        <ele>134</ele>
        <time>2025-06-18T16:19:44Z</time>
      </trkpt>
      <trkpt lat="43.65075" lon="1.3903">
        <ele>134</ele>
        <time>2025-06-18T16:19:45Z</time>
      </trkpt>
      <trkpt lat="43.65072" lon="1.39033">
        <ele>134</ele>
        <time>2025-06-18T16:19:46Z</time>
      </trkpt>
      <trkpt lat="43.65071" lon="1.39036">
        <ele>134</ele>
        <time>2025-06-18T16:19:47Z</time>
      </trkpt>
      <trkpt lat="43.6507" lon="1.39039">
        <ele>134</ele>
        <time>2025-06-18T16:19:48Z</time>
      </trkpt>
      <trkpt lat="43.6507" lon="1.39039">
        <ele>134</ele>
        <time>2025-06-18T16:19:49Z</time>
      </trkpt>
      <trkpt lat="43.65069" lon="1.39045">
        <ele>134</ele>
        <time>2025-06-18T16:19:50Z</time>
      </trkpt>
      <trkpt lat="43.65069" lon="1.39045">
        <ele>134</ele>
        <time>2025-06-18T16:19:51Z</time>
      </trkpt>
      <trkpt lat="43.65069" lon="1.39053">
        <ele>134</ele>
        <time>2025-06-18T16:19:52Z</time>
      </trkpt>
      <trkpt lat="43.6507" lon="1.39057">
        <ele>134</ele>
        <time>2025-06-18T16:19:53Z</time>
      </trkpt>
      <trkpt lat="43.6507" lon="1.3906">
        <ele>134</ele>
        <time>2025-06-18T16:19:54Z</time>
      </trkpt>
      <trkpt lat="43.65071" lon="1.39064">
        <ele>134</ele>
        <time>2025-06-18T16:19:55Z</time>
      </trkpt>
      <trkpt lat="43.65071" lon="1.39064">
        <ele>134</ele>
        <time>2025-06-18T16:19:56Z</time>
      </trkpt>
      <trkpt lat="43.65071" lon="1.39071">
        <ele>134</ele>
        <time>2025-06-18T16:19:57Z</time>
      </trkpt>
      <trkpt lat="43.65072" lon="1.39075">
        <ele>134</ele>
        <time>2025-06-18T16:19:58Z</time>
      </trkpt>
      <trkpt lat="43.65072" lon="1.39075">
        <ele>134</ele>
        <time>2025-06-18T16:19:59Z</time>
      </trkpt>
      <trkpt lat="43.65073" lon="1.39083">
        <ele>134</ele>
        <time>2025-06-18T16:20:00Z</time>
      </trkpt>
      <trkpt lat="43.65073" lon="1.39087">
        <ele>134</ele>
        <time>2025-06-18T16:20:01Z</time>
      </trkpt>
      <trkpt lat="43.65073" lon="1.3909">
        <ele>134</ele>
        <time>2025-06-18T16:20:02Z</time>
      </trkpt>
      <trkpt lat="43.65073" lon="1.39094">
        <ele>135</ele>
        <time>2025-06-18T16:20:03Z</time>
      </trkpt>
      <trkpt lat="43.65073" lon="1.39098">
        <ele>135</ele>
        <time>2025-06-18T16:20:04Z</time>
      </trkpt>
      <trkpt lat="43.65074" lon="1.39101">
        <ele>135</ele>
        <time>2025-06-18T16:20:05Z</time>
      </trkpt>
      <trkpt lat="43.65074" lon="1.39105">
        <ele>135</ele>
        <time>2025-06-18T16:20:06Z</time>
      </trkpt>
      <trkpt lat="43.65074" lon="1.39109">
        <ele>135</ele>
        <time>2025-06-18T16:20:07Z</time>
      </trkpt>
      <trkpt lat="43.65074" lon="1.39109">
        <ele>135</ele>
        <time>2025-06-18T16:20:08Z</time>
      </trkpt>
      <trkpt lat="43.65075" lon="1.39117">
        <ele>135</ele>
        <time>2025-06-18T16:20:09Z</time>
      </trkpt>
      <trkpt lat="43.65074" lon="1.39121">
        <ele>135</ele>
        <time>2025-06-18T16:20:10Z</time>
      </trkpt>
      <trkpt lat="43.65074" lon="1.39125">
        <ele>134</ele>
        <time>2025-06-18T16:20:11Z</time>
      </trkpt>
      <trkpt lat="43.65073" lon="1.39128">
        <ele>134</ele>
        <time>2025-06-18T16:20:12Z</time>
      </trkpt>
      <trkpt lat="43.65072" lon="1.39132">
        <ele>134</ele>
        <time>2025-06-18T16:20:13Z</time>
      </trkpt>
      <trkpt lat="43.6507" lon="1.39135">
        <ele>134</ele>
        <time>2025-06-18T16:20:14Z</time>
      </trkpt>
      <trkpt lat="43.65068" lon="1.39138">
        <ele>134</ele>
        <time>2025-06-18T16:20:15Z</time>
      </trkpt>
      <trkpt lat="43.65065" lon="1.39141">
        <ele>134</ele>
        <time>2025-06-18T16:20:16Z</time>
      </trkpt>
      <trkpt lat="43.65065" lon="1.39141">
        <ele>134</ele>
        <time>2025-06-18T16:20:17Z</time>
      </trkpt>
      <trkpt lat="43.6506" lon="1.39145">
        <ele>134</ele>
        <time>2025-06-18T16:20:18Z</time>
      </trkpt>
      <trkpt lat="43.65057" lon="1.39146">
        <ele>134</ele>
        <time>2025-06-18T16:20:19Z</time>
      </trkpt>
      <trkpt lat="43.65054" lon="1.39146">
        <ele>134</ele>
        <time>2025-06-18T16:20:20Z</time>
      </trkpt>
      <trkpt lat="43.65052" lon="1.39147">
        <ele>134</ele>
        <time>2025-06-18T16:20:21Z</time>
      </trkpt>
      <trkpt lat="43.65049" lon="1.39147">
        <ele>134</ele>
        <time>2025-06-18T16:20:22Z</time>
      </trkpt>
      <trkpt lat="43.65046" lon="1.39148">
        <ele>134</ele>
        <time>2025-06-18T16:20:23Z</time>
      </trkpt>
      <trkpt lat="43.65046" lon="1.39148">
        <ele>134</ele>
        <time>2025-06-18T16:20:24Z</time>
      </trkpt>
      <trkpt lat="43.6504" lon="1.39149">
        <ele>134</ele>
        <time>2025-06-18T16:20:25Z</time>
      </trkpt>
      <trkpt lat="43.65038" lon="1.3915">
        <ele>134</ele>
        <time>2025-06-18T16:20:26Z</time>
      </trkpt>
      <trkpt lat="43.65038" lon="1.3915">
        <ele>134</ele>
        <time>2025-06-18T16:20:27Z</time>
      </trkpt>
      <trkpt lat="43.65034" lon="1.39149">
        <ele>135</ele>
        <time>2025-06-18T16:20:28Z</time>
      </trkpt>
      <trkpt lat="43.65032" lon="1.39149">
        <ele>135</ele>
        <time>2025-06-18T16:20:29Z</time>
      </trkpt>
      <trkpt lat="43.65029" lon="1.3915">
        <ele>135</ele>
        <time>2025-06-18T16:20:30Z</time>
      </trkpt>
      <trkpt lat="43.65027" lon="1.3915">
        <ele>135</ele>
        <time>2025-06-18T16:20:31Z</time>
      </trkpt>
      <trkpt lat="43.65025" lon="1.3915">
        <ele>135</ele>
        <time>2025-06-18T16:20:32Z</time>
      </trkpt>
      <trkpt lat="43.65022" lon="1.3915">
        <ele>135</ele>
        <time>2025-06-18T16:20:33Z</time>
      </trkpt>
      <trkpt lat="43.65022" lon="1.3915">
        <ele>135</ele>
        <time>2025-06-18T16:20:34Z</time>
      </trkpt>
      <trkpt lat="43.65016" lon="1.39151">
        <ele>135</ele>
        <time>2025-06-18T16:20:35Z</time>
      </trkpt>
      <trkpt lat="43.65016" lon="1.39151">
        <ele>135</ele>
        <time>2025-06-18T16:20:36Z</time>
      </trkpt>
      <trkpt lat="43.6501" lon="1.39153">
        <ele>135</ele>
        <time>2025-06-18T16:20:37Z</time>
      </trkpt>
      <trkpt lat="43.6501" lon="1.39153">
        <ele>135</ele>
        <time>2025-06-18T16:20:38Z</time>
      </trkpt>
      <trkpt lat="43.65005" lon="1.39154">
        <ele>135</ele>
        <time>2025-06-18T16:20:39Z</time>
      </trkpt>
      <trkpt lat="43.65002" lon="1.39155">
        <ele>135</ele>
        <time>2025-06-18T16:20:40Z</time>
      </trkpt>
      <trkpt lat="43.65002" lon="1.39155">
        <ele>135</ele>
        <time>2025-06-18T16:20:41Z</time>
      </trkpt>
      <trkpt lat="43.64997" lon="1.39156">
        <ele>135</ele>
        <time>2025-06-18T16:20:42Z</time>
      </trkpt>
      <trkpt lat="43.64997" lon="1.39156">
        <ele>135</ele>
        <time>2025-06-18T16:20:43Z</time>
      </trkpt>
      <trkpt lat="43.64992" lon="1.39156">
        <ele>135</ele>
        <time>2025-06-18T16:20:44Z</time>
      </trkpt>
      <trkpt lat="43.64992" lon="1.39156">
        <ele>135</ele>
        <time>2025-06-18T16:20:45Z</time>
      </trkpt>
      <trkpt lat="43.64986" lon="1.39158">
        <ele>135</ele>
        <time>2025-06-18T16:20:46Z</time>
      </trkpt>
      <trkpt lat="43.64986" lon="1.39158">
        <ele>135</ele>
        <time>2025-06-18T16:20:47Z</time>
      </trkpt>
      <trkpt lat="43.64981" lon="1.3916">
        <ele>134</ele>
        <time>2025-06-18T16:20:48Z</time>
      </trkpt>
      <trkpt lat="43.64978" lon="1.39161">
        <ele>134</ele>
        <time>2025-06-18T16:20:49Z</time>
      </trkpt>
      <trkpt lat="43.64978" lon="1.39161">
        <ele>135</ele>
        <time>2025-06-18T16:20:50Z</time>
      </trkpt>
      <trkpt lat="43.64973" lon="1.39162">
        <ele>135</ele>
        <time>2025-06-18T16:20:51Z</time>
      </trkpt>
      <trkpt lat="43.6497" lon="1.39162">
        <ele>135</ele>
        <time>2025-06-18T16:20:52Z</time>
      </trkpt>
      <trkpt lat="43.64964" lon="1.39163">
        <ele>135</ele>
        <time>2025-06-18T16:20:54Z</time>
      </trkpt>
      <trkpt lat="43.64962" lon="1.39162">
        <ele>135</ele>
        <time>2025-06-18T16:20:55Z</time>
      </trkpt>
      <trkpt lat="43.64959" lon="1.39161">
        <ele>135</ele>
        <time>2025-06-18T16:20:56Z</time>
      </trkpt>
      <trkpt lat="43.64959" lon="1.39161">
        <ele>135</ele>
        <time>2025-06-18T16:20:57Z</time>
      </trkpt>
      <trkpt lat="43.64955" lon="1.39156">
        <ele>135</ele>
        <time>2025-06-18T16:20:58Z</time>
      </trkpt>
      <trkpt lat="43.64955" lon="1.39156">
        <ele>135</ele>
        <time>2025-06-18T16:20:59Z</time>
      </trkpt>
      <trkpt lat="43.64952" lon="1.39149">
        <ele>135</ele>
        <time>2025-06-18T16:21:00Z</time>
      </trkpt>
      <trkpt lat="43.64951" lon="1.39146">
        <ele>135</ele>
        <time>2025-06-18T16:21:01Z</time>
      </trkpt>
      <trkpt lat="43.64951" lon="1.39142">
        <ele>134</ele>
        <time>2025-06-18T16:21:02Z</time>
      </trkpt>
      <trkpt lat="43.6495" lon="1.39138">
        <ele>134</ele>
        <time>2025-06-18T16:21:03Z</time>
      </trkpt>
      <trkpt lat="43.64949" lon="1.39134">
        <ele>134</ele>
        <time>2025-06-18T16:21:04Z</time>
      </trkpt>
      <trkpt lat="43.64948" lon="1.3913">
        <ele>134</ele>
        <time>2025-06-18T16:21:05Z</time>
      </trkpt>
      <trkpt lat="43.64947" lon="1.39127">
        <ele>134</ele>
        <time>2025-06-18T16:21:06Z</time>
      </trkpt>
      <trkpt lat="43.64945" lon="1.39124">
        <ele>134</ele>
        <time>2025-06-18T16:21:07Z</time>
      </trkpt>
      <trkpt lat="43.64942" lon="1.39122">
        <ele>134</ele>
        <time>2025-06-18T16:21:08Z</time>
      </trkpt>
      <trkpt lat="43.6494" lon="1.3912">
        <ele>135</ele>
        <time>2025-06-18T16:21:09Z</time>
      </trkpt>
      <trkpt lat="43.64937" lon="1.39119">
        <ele>135</ele>
        <time>2025-06-18T16:21:10Z</time>
      </trkpt>
      <trkpt lat="43.64937" lon="1.39119">
        <ele>135</ele>
        <time>2025-06-18T16:21:11Z</time>
      </trkpt>
      <trkpt lat="43.64932" lon="1.39118">
        <ele>135</ele>
        <time>2025-06-18T16:21:12Z</time>
      </trkpt>
      <trkpt lat="43.64929" lon="1.39118">
        <ele>135</ele>
        <time>2025-06-18T16:21:13Z</time>
      </trkpt>
      <trkpt lat="43.64926" lon="1.39118">
        <ele>135</ele>
        <time>2025-06-18T16:21:14Z</time>
      </trkpt>
      <trkpt lat="43.64923" lon="1.39118">
        <ele>135</ele>
        <time>2025-06-18T16:21:15Z</time>
      </trkpt>
      <trkpt lat="43.64921" lon="1.39118">
        <ele>135</ele>
        <time>2025-06-18T16:21:16Z</time>
      </trkpt>
      <trkpt lat="43.64918" lon="1.39117">
        <ele>135</ele>
        <time>2025-06-18T16:21:17Z</time>
      </trkpt>
      <trkpt lat="43.64918" lon="1.39117">
        <ele>135</ele>
        <time>2025-06-18T16:21:18Z</time>
      </trkpt>
      <trkpt lat="43.64913" lon="1.39118">
        <ele>135</ele>
        <time>2025-06-18T16:21:19Z</time>
      </trkpt>
      <trkpt lat="43.6491" lon="1.39118">
        <ele>135</ele>
        <time>2025-06-18T16:21:20Z</time>
      </trkpt>
      <trkpt lat="43.64908" lon="1.39119">
        <ele>135</ele>
        <time>2025-06-18T16:21:21Z</time>
      </trkpt>
      <trkpt lat="43.64905" lon="1.39119">
        <ele>135</ele>
        <time>2025-06-18T16:21:22Z</time>
      </trkpt>
      <trkpt lat="43.64902" lon="1.39119">
        <ele>135</ele>
        <time>2025-06-18T16:21:23Z</time>
      </trkpt>
      <trkpt lat="43.64899" lon="1.3912">
        <ele>135</ele>
        <time>2025-06-18T16:21:24Z</time>
      </trkpt>
      <trkpt lat="43.64896" lon="1.39121">
        <ele>135</ele>
        <time>2025-06-18T16:21:25Z</time>
      </trkpt>
      <trkpt lat="43.64894" lon="1.39121">
        <ele>135</ele>
        <time>2025-06-18T16:21:26Z</time>
      </trkpt>
      <trkpt lat="43.64891" lon="1.39122">
        <ele>135</ele>
        <time>2025-06-18T16:21:27Z</time>
      </trkpt>
      <trkpt lat="43.64888" lon="1.39123">
        <ele>135</ele>
        <time>2025-06-18T16:21:28Z</time>
      </trkpt>
      <trkpt lat="43.64885" lon="1.39123">
        <ele>135</ele>
        <time>2025-06-18T16:21:29Z</time>
      </trkpt>
      <trkpt lat="43.64883" lon="1.39124">
        <ele>135</ele>
        <time>2025-06-18T16:21:30Z</time>
      </trkpt>
      <trkpt lat="43.64883" lon="1.39124">
        <ele>135</ele>
        <time>2025-06-18T16:21:31Z</time>
      </trkpt>
      <trkpt lat="43.6488" lon="1.39125">
        <ele>135</ele>
        <time>2025-06-18T16:21:32Z</time>
      </trkpt>
      <trkpt lat="43.64874" lon="1.39127">
        <ele>135</ele>
        <time>2025-06-18T16:21:33Z</time>
      </trkpt>
      <trkpt lat="43.64872" lon="1.39128">
        <ele>135</ele>
        <time>2025-06-18T16:21:34Z</time>
      </trkpt>
      <trkpt lat="43.64869" lon="1.39129">
        <ele>135</ele>
        <time>2025-06-18T16:21:35Z</time>
      </trkpt>
      <trkpt lat="43.64866" lon="1.39129">
        <ele>135</ele>
        <time>2025-06-18T16:21:36Z</time>
      </trkpt>
      <trkpt lat="43.64864" lon="1.3913">
        <ele>134</ele>
        <time>2025-06-18T16:21:37Z</time>
      </trkpt>
      <trkpt lat="43.64861" lon="1.39131">
        <ele>134</ele>
        <time>2025-06-18T16:21:38Z</time>
      </trkpt>
      <trkpt lat="43.64861" lon="1.39131">
        <ele>134</ele>
        <time>2025-06-18T16:21:39Z</time>
      </trkpt>
      <trkpt lat="43.64855" lon="1.39132">
        <ele>134</ele>
        <time>2025-06-18T16:21:40Z</time>
      </trkpt>
      <trkpt lat="43.64853" lon="1.39133">
        <ele>135</ele>
        <time>2025-06-18T16:21:41Z</time>
      </trkpt>
      <trkpt lat="43.6485" lon="1.39134">
        <ele>135</ele>
        <time>2025-06-18T16:21:42Z</time>
      </trkpt>
      <trkpt lat="43.64847" lon="1.39135">
        <ele>135</ele>
        <time>2025-06-18T16:21:43Z</time>
      </trkpt>
      <trkpt lat="43.64847" lon="1.39135">
        <ele>135</ele>
        <time>2025-06-18T16:21:44Z</time>
      </trkpt>
      <trkpt lat="43.64843" lon="1.39138">
        <ele>135</ele>
        <time>2025-06-18T16:21:45Z</time>
      </trkpt>
      <trkpt lat="43.6484" lon="1.39139">
        <ele>135</ele>
        <time>2025-06-18T16:21:46Z</time>
      </trkpt>
      <trkpt lat="43.64837" lon="1.39141">
        <ele>135</ele>
        <time>2025-06-18T16:21:47Z</time>
      </trkpt>
      <trkpt lat="43.64837" lon="1.39141">
        <ele>135</ele>
        <time>2025-06-18T16:21:48Z</time>
      </trkpt>
      <trkpt lat="43.64833" lon="1.39144">
        <ele>135</ele>
        <time>2025-06-18T16:21:49Z</time>
      </trkpt>
      <trkpt lat="43.6483" lon="1.39146">
        <ele>135</ele>
        <time>2025-06-18T16:21:50Z</time>
      </trkpt>
      <trkpt lat="43.64828" lon="1.39148">
        <ele>135</ele>
        <time>2025-06-18T16:21:51Z</time>
      </trkpt>
      <trkpt lat="43.64828" lon="1.39148">
        <ele>135</ele>
        <time>2025-06-18T16:21:52Z</time>
      </trkpt>
      <trkpt lat="43.64823" lon="1.39151">
        <ele>135</ele>
        <time>2025-06-18T16:21:53Z</time>
      </trkpt>
      <trkpt lat="43.6482" lon="1.39153">
        <ele>135</ele>
        <time>2025-06-18T16:21:54Z</time>
      </trkpt>
      <trkpt lat="43.64818" lon="1.39154">
        <ele>135</ele>
        <time>2025-06-18T16:21:55Z</time>
      </trkpt>
      <trkpt lat="43.64816" lon="1.39156">
        <ele>135</ele>
        <time>2025-06-18T16:21:56Z</time>
      </trkpt>
      <trkpt lat="43.64813" lon="1.39158">
        <ele>135</ele>
        <time>2025-06-18T16:21:57Z</time>
      </trkpt>
      <trkpt lat="43.6481" lon="1.3916">
        <ele>135</ele>
        <time>2025-06-18T16:21:58Z</time>
      </trkpt>
      <trkpt lat="43.64808" lon="1.39162">
        <ele>135</ele>
        <time>2025-06-18T16:21:59Z</time>
      </trkpt>
      <trkpt lat="43.64805" lon="1.39163">
        <ele>135</ele>
        <time>2025-06-18T16:22:00Z</time>
      </trkpt>
      <trkpt lat="43.64803" lon="1.39165">
        <ele>135</ele>
        <time>2025-06-18T16:22:01Z</time>
      </trkpt>
      <trkpt lat="43.648" lon="1.39167">
        <ele>135</ele>
        <time>2025-06-18T16:22:02Z</time>
      </trkpt>
      <trkpt lat="43.64798" lon="1.39169">
        <ele>134</ele>
        <time>2025-06-18T16:22:03Z</time>
      </trkpt>
      <trkpt lat="43.64795" lon="1.3917">
        <ele>134</ele>
        <time>2025-06-18T16:22:04Z</time>
      </trkpt>
      <trkpt lat="43.64795" lon="1.3917">
        <ele>134</ele>
        <time>2025-06-18T16:22:05Z</time>
      </trkpt>
      <trkpt lat="43.6479" lon="1.39174">
        <ele>134</ele>
        <time>2025-06-18T16:22:06Z</time>
      </trkpt>
      <trkpt lat="43.64787" lon="1.39176">
        <ele>134</ele>
        <time>2025-06-18T16:22:07Z</time>
      </trkpt>
      <trkpt lat="43.64784" lon="1.39177">
        <ele>134</ele>
        <time>2025-06-18T16:22:08Z</time>
      </trkpt>
      <trkpt lat="43.64781" lon="1.39179">
        <ele>134</ele>
        <time>2025-06-18T16:22:09Z</time>
      </trkpt>
      <trkpt lat="43.64779" lon="1.3918">
        <ele>134</ele>
        <time>2025-06-18T16:22:10Z</time>
      </trkpt>
      <trkpt lat="43.64776" lon="1.39181">
        <ele>134</ele>
        <time>2025-06-18T16:22:11Z</time>
      </trkpt>
      <trkpt lat="43.64773" lon="1.39182">
        <ele>135</ele>
        <time>2025-06-18T16:22:12Z</time>
      </trkpt>
      <trkpt lat="43.6477" lon="1.39183">
        <ele>135</ele>
        <time>2025-06-18T16:22:13Z</time>
      </trkpt>
      <trkpt lat="43.64768" lon="1.39185">
        <ele>134</ele>
        <time>2025-06-18T16:22:14Z</time>
      </trkpt>
      <trkpt lat="43.64768" lon="1.39185">
        <ele>134</ele>
        <time>2025-06-18T16:22:15Z</time>
      </trkpt>
      <trkpt lat="43.64763" lon="1.39188">
        <ele>134</ele>
        <time>2025-06-18T16:22:16Z</time>
      </trkpt>
      <trkpt lat="43.6476" lon="1.39189">
        <ele>134</ele>
        <time>2025-06-18T16:22:17Z</time>
      </trkpt>
      <trkpt lat="43.64758" lon="1.39191">
        <ele>134</ele>
        <time>2025-06-18T16:22:18Z</time>
      </trkpt>
      <trkpt lat="43.64756" lon="1.39192">
        <ele>134</ele>
        <time>2025-06-18T16:22:19Z</time>
      </trkpt>
      <trkpt lat="43.64753" lon="1.39193">
        <ele>134</ele>
        <time>2025-06-18T16:22:20Z</time>
      </trkpt>
      <trkpt lat="43.64751" lon="1.39195">
        <ele>134</ele>
        <time>2025-06-18T16:22:21Z</time>
      </trkpt>
      <trkpt lat="43.64748" lon="1.39197">
        <ele>134</ele>
        <time>2025-06-18T16:22:22Z</time>
      </trkpt>
      <trkpt lat="43.64746" lon="1.39199">
        <ele>135</ele>
        <time>2025-06-18T16:22:23Z</time>
      </trkpt>
      <trkpt lat="43.64744" lon="1.39201">
        <ele>135</ele>
        <time>2025-06-18T16:22:24Z</time>
      </trkpt>
      <trkpt lat="43.64742" lon="1.39202">
        <ele>135</ele>
        <time>2025-06-18T16:22:25Z</time>
      </trkpt>
      <trkpt lat="43.64739" lon="1.39204">
        <ele>135</ele>
        <time>2025-06-18T16:22:26Z</time>
      </trkpt>
      <trkpt lat="43.64737" lon="1.39205">
        <ele>135</ele>
        <time>2025-06-18T16:22:27Z</time>
      </trkpt>
      <trkpt lat="43.64737" lon="1.39205">
        <ele>135</ele>
        <time>2025-06-18T16:22:28Z</time>
      </trkpt>
      <trkpt lat="43.64735" lon="1.39207">
        <ele>134</ele>
        <time>2025-06-18T16:22:29Z</time>
      </trkpt>
      <trkpt lat="43.6473" lon="1.3921">
        <ele>134</ele>
        <time>2025-06-18T16:22:30Z</time>
      </trkpt>
      <trkpt lat="43.64727" lon="1.39212">
        <ele>134</ele>
        <time>2025-06-18T16:22:31Z</time>
      </trkpt>
      <trkpt lat="43.64725" lon="1.39213">
        <ele>134</ele>
        <time>2025-06-18T16:22:32Z</time>
      </trkpt>
      <trkpt lat="43.64722" lon="1.39215">
        <ele>134</ele>
        <time>2025-06-18T16:22:33Z</time>
      </trkpt>
      <trkpt lat="43.64722" lon="1.39215">
        <ele>134</ele>
        <time>2025-06-18T16:22:34Z</time>
      </trkpt>
      <trkpt lat="43.64717" lon="1.39219">
        <ele>134</ele>
        <time>2025-06-18T16:22:35Z</time>
      </trkpt>
      <trkpt lat="43.64715" lon="1.39221">
        <ele>134</ele>
        <time>2025-06-18T16:22:36Z</time>
      </trkpt>
      <trkpt lat="43.64712" lon="1.39222">
        <ele>134</ele>
        <time>2025-06-18T16:22:37Z</time>
      </trkpt>
      <trkpt lat="43.64709" lon="1.39223">
        <ele>135</ele>
        <time>2025-06-18T16:22:38Z</time>
      </trkpt>
      <trkpt lat="43.64707" lon="1.39225">
        <ele>135</ele>
        <time>2025-06-18T16:22:39Z</time>
      </trkpt>
      <trkpt lat="43.64704" lon="1.39226">
        <ele>135</ele>
        <time>2025-06-18T16:22:40Z</time>
      </trkpt>
      <trkpt lat="43.64704" lon="1.39226">
        <ele>135</ele>
        <time>2025-06-18T16:22:41Z</time>
      </trkpt>
      <trkpt lat="43.64702" lon="1.39228">
        <ele>135</ele>
        <time>2025-06-18T16:22:42Z</time>
      </trkpt>
      <trkpt lat="43.64697" lon="1.39231">
        <ele>135</ele>
        <time>2025-06-18T16:22:43Z</time>
      </trkpt>
      <trkpt lat="43.64694" lon="1.39233">
        <ele>135</ele>
        <time>2025-06-18T16:22:44Z</time>
      </trkpt>
      <trkpt lat="43.64691" lon="1.39235">
        <ele>135</ele>
        <time>2025-06-18T16:22:45Z</time>
      </trkpt>
      <trkpt lat="43.64688" lon="1.39236">
        <ele>135</ele>
        <time>2025-06-18T16:22:46Z</time>
      </trkpt>
      <trkpt lat="43.64685" lon="1.39238">
        <ele>135</ele>
        <time>2025-06-18T16:22:47Z</time>
      </trkpt>
      <trkpt lat="43.64685" lon="1.39238">
        <ele>135</ele>
        <time>2025-06-18T16:22:48Z</time>
      </trkpt>
      <trkpt lat="43.6468" lon="1.39241">
        <ele>135</ele>
        <time>2025-06-18T16:22:49Z</time>
      </trkpt>
      <trkpt lat="43.64678" lon="1.39242">
        <ele>135</ele>
        <time>2025-06-18T16:22:50Z</time>
      </trkpt>
      <trkpt lat="43.64675" lon="1.39244">
        <ele>135</ele>
        <time>2025-06-18T16:22:51Z</time>
      </trkpt>
      <trkpt lat="43.64673" lon="1.39245">
        <ele>135</ele>
        <time>2025-06-18T16:22:52Z</time>
      </trkpt>
      <trkpt lat="43.6467" lon="1.39247">
        <ele>135</ele>
        <time>2025-06-18T16:22:53Z</time>
      </trkpt>
      <trkpt lat="43.64668" lon="1.39249">
        <ele>135</ele>
        <time>2025-06-18T16:22:54Z</time>
      </trkpt>
      <trkpt lat="43.64668" lon="1.39249">
        <ele>135</ele>
        <time>2025-06-18T16:22:55Z</time>
      </trkpt>
      <trkpt lat="43.64664" lon="1.39252">
        <ele>135</ele>
        <time>2025-06-18T16:22:56Z</time>
      </trkpt>
      <trkpt lat="43.64661" lon="1.39254">
        <ele>135</ele>
        <time>2025-06-18T16:22:57Z</time>
      </trkpt>
      <trkpt lat="43.64658" lon="1.39255">
        <ele>135</ele>
        <time>2025-06-18T16:22:58Z</time>
      </trkpt>
      <trkpt lat="43.64656" lon="1.39256">
        <ele>135</ele>
        <time>2025-06-18T16:22:59Z</time>
      </trkpt>
      <trkpt lat="43.64653" lon="1.39257">
        <ele>135</ele>
        <time>2025-06-18T16:23:00Z</time>
      </trkpt>
      <trkpt lat="43.64651" lon="1.39258">
        <ele>135</ele>
        <time>2025-06-18T16:23:01Z</time>
      </trkpt>
      <trkpt lat="43.64648" lon="1.39259">
        <ele>135</ele>
        <time>2025-06-18T16:23:02Z</time>
      </trkpt>
      <trkpt lat="43.64646" lon="1.39261">
        <ele>135</ele>
        <time>2025-06-18T16:23:03Z</time>
      </trkpt>
      <trkpt lat="43.64643" lon="1.39262">
        <ele>135</ele>
        <time>2025-06-18T16:23:04Z</time>
      </trkpt>
      <trkpt lat="43.6464" lon="1.39263">
        <ele>135</ele>
        <time>2025-06-18T16:23:05Z</time>
      </trkpt>
      <trkpt lat="43.64637" lon="1.39264">
        <ele>135</ele>
        <time>2025-06-18T16:23:06Z</time>
      </trkpt>
      <trkpt lat="43.64637" lon="1.39264">
        <ele>135</ele>
        <time>2025-06-18T16:23:07Z</time>
      </trkpt>
      <trkpt lat="43.64632" lon="1.39267">
        <ele>135</ele>
        <time>2025-06-18T16:23:08Z</time>
      </trkpt>
      <trkpt lat="43.64629" lon="1.39268">
        <ele>135</ele>
        <time>2025-06-18T16:23:09Z</time>
      </trkpt>
      <trkpt lat="43.64627" lon="1.3927">
        <ele>135</ele>
        <time>2025-06-18T16:23:10Z</time>
      </trkpt>
      <trkpt lat="43.64624" lon="1.39271">
        <ele>135</ele>
        <time>2025-06-18T16:23:11Z</time>
      </trkpt>
      <trkpt lat="43.64621" lon="1.39273">
        <ele>135</ele>
        <time>2025-06-18T16:23:12Z</time>
      </trkpt>
      <trkpt lat="43.64619" lon="1.39274">
        <ele>135</ele>
        <time>2025-06-18T16:23:13Z</time>
      </trkpt>
      <trkpt lat="43.64619" lon="1.39274">
        <ele>135</ele>
        <time>2025-06-18T16:23:14Z</time>
      </trkpt>
      <trkpt lat="43.64613" lon="1.39277">
        <ele>135</ele>
        <time>2025-06-18T16:23:15Z</time>
      </trkpt>
      <trkpt lat="43.64611" lon="1.39278">
        <ele>135</ele>
        <time>2025-06-18T16:23:16Z</time>
      </trkpt>
      <trkpt lat="43.64609" lon="1.39279">
        <ele>135</ele>
        <time>2025-06-18T16:23:17Z</time>
      </trkpt>
      <trkpt lat="43.64606" lon="1.3928">
        <ele>135</ele>
        <time>2025-06-18T16:23:18Z</time>
      </trkpt>
      <trkpt lat="43.64603" lon="1.39282">
        <ele>135</ele>
        <time>2025-06-18T16:23:19Z</time>
      </trkpt>
      <trkpt lat="43.646" lon="1.39283">
        <ele>135</ele>
        <time>2025-06-18T16:23:20Z</time>
      </trkpt>
      <trkpt lat="43.64598" lon="1.39284">
        <ele>135</ele>
        <time>2025-06-18T16:23:21Z</time>
      </trkpt>
      <trkpt lat="43.64595" lon="1.39285">
        <ele>135</ele>
        <time>2025-06-18T16:23:22Z</time>
      </trkpt>
      <trkpt lat="43.64592" lon="1.39286">
        <ele>135</ele>
        <time>2025-06-18T16:23:23Z</time>
      </trkpt>
      <trkpt lat="43.6459" lon="1.39287">
        <ele>135</ele>
        <time>2025-06-18T16:23:24Z</time>
      </trkpt>
      <trkpt lat="43.6459" lon="1.39287">
        <ele>135</ele>
        <time>2025-06-18T16:23:25Z</time>
      </trkpt>
      <trkpt lat="43.64584" lon="1.39289">
        <ele>135</ele>
        <time>2025-06-18T16:23:26Z</time>
      </trkpt>
      <trkpt lat="43.64581" lon="1.3929">
        <ele>135</ele>
        <time>2025-06-18T16:23:27Z</time>
      </trkpt>
      <trkpt lat="43.64578" lon="1.39291">
        <ele>135</ele>
        <time>2025-06-18T16:23:28Z</time>
      </trkpt>
      <trkpt lat="43.64578" lon="1.39291">
        <ele>135</ele>
        <time>2025-06-18T16:23:29Z</time>
      </trkpt>
      <trkpt lat="43.64573" lon="1.39292">
        <ele>135</ele>
        <time>2025-06-18T16:23:30Z</time>
      </trkpt>
      <trkpt lat="43.64573" lon="1.39292">
        <ele>135</ele>
        <time>2025-06-18T16:23:31Z</time>
      </trkpt>
      <trkpt lat="43.64567" lon="1.39294">
        <ele>136</ele>
        <time>2025-06-18T16:23:32Z</time>
      </trkpt>
      <trkpt lat="43.64564" lon="1.39295">
        <ele>136</ele>
        <time>2025-06-18T16:23:33Z</time>
      </trkpt>
      <trkpt lat="43.64562" lon="1.39296">
        <ele>136</ele>
        <time>2025-06-18T16:23:34Z</time>
      </trkpt>
      <trkpt lat="43.64559" lon="1.39296">
        <ele>136</ele>
        <time>2025-06-18T16:23:35Z</time>
      </trkpt>
      <trkpt lat="43.64556" lon="1.39297">
        <ele>136</ele>
        <time>2025-06-18T16:23:36Z</time>
      </trkpt>
      <trkpt lat="43.64553" lon="1.39298">
        <ele>136</ele>
        <time>2025-06-18T16:23:37Z</time>
      </trkpt>
      <trkpt lat="43.6455" lon="1.39299">
        <ele>136</ele>
        <time>2025-06-18T16:23:38Z</time>
      </trkpt>
      <trkpt lat="43.6455" lon="1.39299">
        <ele>136</ele>
        <time>2025-06-18T16:23:39Z</time>
      </trkpt>
      <trkpt lat="43.64544" lon="1.393">
        <ele>136</ele>
        <time>2025-06-18T16:23:40Z</time>
      </trkpt>
      <trkpt lat="43.64542" lon="1.39301">
        <ele>136</ele>
        <time>2025-06-18T16:23:41Z</time>
      </trkpt>
      <trkpt lat="43.64539" lon="1.39301">
        <ele>136</ele>
        <time>2025-06-18T16:23:42Z</time>
      </trkpt>
      <trkpt lat="43.64536" lon="1.39302">
        <ele>136</ele>
        <time>2025-06-18T16:23:43Z</time>
      </trkpt>
      <trkpt lat="43.64536" lon="1.39302">
        <ele>136</ele>
        <time>2025-06-18T16:23:44Z</time>
      </trkpt>
      <trkpt lat="43.6453" lon="1.39304">
        <ele>136</ele>
        <time>2025-06-18T16:23:45Z</time>
      </trkpt>
      <trkpt lat="43.64528" lon="1.39305">
        <ele>136</ele>
        <time>2025-06-18T16:23:46Z</time>
      </trkpt>
      <trkpt lat="43.64528" lon="1.39305">
        <ele>136</ele>
        <time>2025-06-18T16:23:47Z</time>
      </trkpt>
      <trkpt lat="43.64523" lon="1.39306">
        <ele>135</ele>
        <time>2025-06-18T16:23:48Z</time>
      </trkpt>
      <trkpt lat="43.6452" lon="1.39306">
        <ele>135</ele>
        <time>2025-06-18T16:23:49Z</time>
      </trkpt>
      <trkpt lat="43.6452" lon="1.39306">
        <ele>135</ele>
        <time>2025-06-18T16:23:50Z</time>
      </trkpt>
      <trkpt lat="43.64514" lon="1.39307">
        <ele>135</ele>
        <time>2025-06-18T16:23:51Z</time>
      </trkpt>
      <trkpt lat="43.64514" lon="1.39307">
        <ele>135</ele>
        <time>2025-06-18T16:23:52Z</time>
      </trkpt>
      <trkpt lat="43.64509" lon="1.39308">
        <ele>136</ele>
        <time>2025-06-18T16:23:53Z</time>
      </trkpt>
      <trkpt lat="43.64506" lon="1.39308">
        <ele>136</ele>
        <time>2025-06-18T16:23:54Z</time>
      </trkpt>
      <trkpt lat="43.64503" lon="1.39308">
        <ele>136</ele>
        <time>2025-06-18T16:23:55Z</time>
      </trkpt>
      <trkpt lat="43.64501" lon="1.39308">
        <ele>136</ele>
        <time>2025-06-18T16:23:56Z</time>
      </trkpt>
      <trkpt lat="43.64501" lon="1.39308">
        <ele>136</ele>
        <time>2025-06-18T16:23:57Z</time>
      </trkpt>
      <trkpt lat="43.64496" lon="1.39309">
        <ele>136</ele>
        <time>2025-06-18T16:23:58Z</time>
      </trkpt>
      <trkpt lat="43.64493" lon="1.39308">
        <ele>136</ele>
        <time>2025-06-18T16:23:59Z</time>
      </trkpt>
      <trkpt lat="43.64491" lon="1.39308">
        <ele>136</ele>
        <time>2025-06-18T16:24:00Z</time>
      </trkpt>
      <trkpt lat="43.64489" lon="1.39308">
        <ele>136</ele>
        <time>2025-06-18T16:24:01Z</time>
      </trkpt>
      <trkpt lat="43.64487" lon="1.39308">
        <ele>136</ele>
        <time>2025-06-18T16:24:02Z</time>
      </trkpt>
      <trkpt lat="43.64487" lon="1.39308">
        <ele>136</ele>
        <time>2025-06-18T16:24:03Z</time>
      </trkpt>
      <trkpt lat="43.64487" lon="1.39308">
        <ele>137</ele>
        <time>2025-06-18T16:24:04Z</time>
      </trkpt>
      <trkpt lat="43.64482" lon="1.39311">
        <ele>137</ele>
        <time>2025-06-18T16:24:05Z</time>
      </trkpt>
      <trkpt lat="43.6448" lon="1.39312">
        <ele>137</ele>
        <time>2025-06-18T16:24:06Z</time>
      </trkpt>
      <trkpt lat="43.6448" lon="1.39312">
        <ele>137</ele>
        <time>2025-06-18T16:24:07Z</time>
      </trkpt>
      <trkpt lat="43.64475" lon="1.39313">
        <ele>137</ele>
        <time>2025-06-18T16:24:08Z</time>
      </trkpt>
      <trkpt lat="43.64475" lon="1.39313">
        <ele>137</ele>
        <time>2025-06-18T16:24:09Z</time>
      </trkpt>
      <trkpt lat="43.6447" lon="1.39313">
        <ele>137</ele>
        <time>2025-06-18T16:24:10Z</time>
      </trkpt>
      <trkpt lat="43.64467" lon="1.39313">
        <ele>137</ele>
        <time>2025-06-18T16:24:11Z</time>
      </trkpt>
      <trkpt lat="43.64467" lon="1.39313">
        <ele>137</ele>
        <time>2025-06-18T16:24:12Z</time>
      </trkpt>
      <trkpt lat="43.64464" lon="1.39313">
        <ele>137</ele>
        <time>2025-06-18T16:24:13Z</time>
      </trkpt>
      <trkpt lat="43.64464" lon="1.39313">
        <ele>137</ele>
        <time>2025-06-18T16:24:14Z</time>
      </trkpt>
      <trkpt lat="43.64476" lon="1.39538">
        <ele>134</ele>
        <time>2025-06-18T16:27:45Z</time>
      </trkpt>
      <trkpt lat="43.64476" lon="1.39538">
        <ele>134</ele>
        <time>2025-06-18T16:27:46Z</time>
      </trkpt>
      <trkpt lat="43.64474" lon="1.3954">
        <ele>134</ele>
        <time>2025-06-18T16:27:47Z</time>
      </trkpt>
      <trkpt lat="43.64473" lon="1.39543">
        <ele>134</ele>
        <time>2025-06-18T16:27:48Z</time>
      </trkpt>
      <trkpt lat="43.64473" lon="1.39543">
        <ele>133</ele>
        <time>2025-06-18T16:27:49Z</time>
      </trkpt>
      <trkpt lat="43.64474" lon="1.39545">
        <ele>133</ele>
        <time>2025-06-18T16:27:50Z</time>
      </trkpt>
      <trkpt lat="43.64474" lon="1.39545">
        <ele>133</ele>
        <time>2025-06-18T16:27:51Z</time>
      </trkpt>
      <trkpt lat="43.64475" lon="1.39547">
        <ele>133</ele>
        <time>2025-06-18T16:27:52Z</time>
      </trkpt>
      <trkpt lat="43.64475" lon="1.39547">
        <ele>133</ele>
        <time>2025-06-18T16:27:53Z</time>
      </trkpt>
      <trkpt lat="43.64476" lon="1.3955">
        <ele>134</ele>
        <time>2025-06-18T16:27:54Z</time>
      </trkpt>
      <trkpt lat="43.64476" lon="1.3955">
        <ele>134</ele>
        <time>2025-06-18T16:27:55Z</time>
      </trkpt>
      <trkpt lat="43.64476" lon="1.3955">
        <ele>135</ele>
        <time>2025-06-18T16:27:56Z</time>
      </trkpt>
      <trkpt lat="43.64476" lon="1.3955">
        <ele>136</ele>
        <time>2025-06-18T16:27:57Z</time>
      </trkpt>
      <trkpt lat="43.64474" lon="1.39549">
        <ele>136</ele>
        <time>2025-06-18T16:27:58Z</time>
      </trkpt>
      <trkpt lat="43.64474" lon="1.39549">
        <ele>136</ele>
        <time>2025-06-18T16:27:59Z</time>
      </trkpt>
      <trkpt lat="43.64473" lon="1.39546">
        <ele>135</ele>
        <time>2025-06-18T16:28:00Z</time>
      </trkpt>
      <trkpt lat="43.64473" lon="1.39546">
        <ele>135</ele>
        <time>2025-06-18T16:28:01Z</time>
      </trkpt>
      <trkpt lat="43.64473" lon="1.39546">
        <ele>134</ele>
        <time>2025-06-18T16:28:02Z</time>
      </trkpt>
      <trkpt lat="43.64473" lon="1.39546">
        <ele>134</ele>
        <time>2025-06-18T16:28:03Z</time>
      </trkpt>
      <trkpt lat="43.64473" lon="1.39546">
        <ele>134</ele>
        <time>2025-06-18T16:28:04Z</time>
      </trkpt>
      <trkpt lat="43.64473" lon="1.39546">
        <ele>133</ele>
        <time>2025-06-18T16:28:05Z</time>
      </trkpt>
      <trkpt lat="43.64474" lon="1.3955">
        <ele>133</ele>
        <time>2025-06-18T16:28:06Z</time>
      </trkpt>
      <trkpt lat="43.64474" lon="1.3955">
        <ele>133</ele>
        <time>2025-06-18T16:28:07Z</time>
      </trkpt>
      <trkpt lat="43.64474" lon="1.3955">
        <ele>134</ele>
        <time>2025-06-18T16:28:08Z</time>
      </trkpt>
      <trkpt lat="43.64475" lon="1.39552">
        <ele>134</ele>
        <time>2025-06-18T16:28:09Z</time>
      </trkpt>
      <trkpt lat="43.64475" lon="1.39552">
        <ele>135</ele>
        <time>2025-06-18T16:28:10Z</time>
      </trkpt>
      <trkpt lat="43.64475" lon="1.39552">
        <ele>135</ele>
        <time>2025-06-18T16:28:11Z</time>
      </trkpt>
      <trkpt lat="43.64473" lon="1.39549">
        <ele>135</ele>
        <time>2025-06-18T16:28:12Z</time>
      </trkpt>
      <trkpt lat="43.64473" lon="1.39549">
        <ele>135</ele>
        <time>2025-06-18T16:28:13Z</time>
      </trkpt>
      <trkpt lat="43.64472" lon="1.39546">
        <ele>135</ele>
        <time>2025-06-18T16:28:14Z</time>
      </trkpt>
      <trkpt lat="43.64472" lon="1.39546">
        <ele>135</ele>
        <time>2025-06-18T16:28:15Z</time>
      </trkpt>
      <trkpt lat="43.64472" lon="1.39546">
        <ele>134</ele>
        <time>2025-06-18T16:28:16Z</time>
      </trkpt>
      <trkpt lat="43.64472" lon="1.39546">
        <ele>134</ele>
        <time>2025-06-18T16:28:17Z</time>
      </trkpt>
      <trkpt lat="43.64472" lon="1.39546">
        <ele>133</ele>
        <time>2025-06-18T16:28:18Z</time>
      </trkpt>
      <trkpt lat="43.64472" lon="1.39546">
        <ele>133</ele>
        <time>2025-06-18T16:28:19Z</time>
      </trkpt>
      <trkpt lat="43.64474" lon="1.39549">
        <ele>133</ele>
        <time>2025-06-18T16:28:20Z</time>
      </trkpt>
      <trkpt lat="43.64474" lon="1.39549">
        <ele>133</ele>
        <time>2025-06-18T16:28:21Z</time>
      </trkpt>
      <trkpt lat="43.64475" lon="1.39552">
        <ele>134</ele>
        <time>2025-06-18T16:28:22Z</time>
      </trkpt>
      <trkpt lat="43.64475" lon="1.39552">
        <ele>134</ele>
        <time>2025-06-18T16:28:23Z</time>
      </trkpt>
      <trkpt lat="43.64475" lon="1.39552">
        <ele>134</ele>
        <time>2025-06-18T16:28:24Z</time>
      </trkpt>
      <trkpt lat="43.64475" lon="1.39552">
        <ele>134</ele>
        <time>2025-06-18T16:28:25Z</time>
      </trkpt>
      <trkpt lat="43.64474" lon="1.39549">
        <ele>134</ele>
        <time>2025-06-18T16:28:26Z</time>
      </trkpt>
      <trkpt lat="43.64474" lon="1.39549">
        <ele>134</ele>
        <time>2025-06-18T16:28:27Z</time>
      </trkpt>
      <trkpt lat="43.64473" lon="1.39547">
        <ele>134</ele>
        <time>2025-06-18T16:28:28Z</time>
      </trkpt>
      <trkpt lat="43.64473" lon="1.39547">
        <ele>134</ele>
        <time>2025-06-18T16:28:29Z</time>
      </trkpt>
      <trkpt lat="43.64473" lon="1.39547">
        <ele>134</ele>
        <time>2025-06-18T16:28:30Z</time>
      </trkpt>
      <trkpt lat="43.64473" lon="1.39547">
        <ele>134</ele>
        <time>2025-06-18T16:28:31Z</time>
      </trkpt>
      <trkpt lat="43.64473" lon="1.39547">
        <ele>133</ele>
        <time>2025-06-18T16:28:32Z</time>
      </trkpt>
      <trkpt lat="43.64473" lon="1.39547">
        <ele>133</ele>
        <time>2025-06-18T16:28:33Z</time>
      </trkpt>
      <trkpt lat="43.64474" lon="1.39551">
        <ele>133</ele>
        <time>2025-06-18T16:28:34Z</time>
      </trkpt>
      <trkpt lat="43.64474" lon="1.39551">
        <ele>133</ele>
        <time>2025-06-18T16:28:35Z</time>
      </trkpt>
      <trkpt lat="43.64474" lon="1.39551">
        <ele>133</ele>
        <time>2025-06-18T16:28:36Z</time>
      </trkpt>
      <trkpt lat="43.64475" lon="1.39553">
        <ele>133</ele>
        <time>2025-06-18T16:28:37Z</time>
      </trkpt>
      <trkpt lat="43.64475" lon="1.39553">
        <ele>134</ele>
        <time>2025-06-18T16:28:38Z</time>
      </trkpt>
      <trkpt lat="43.64474" lon="1.39551">
        <ele>134</ele>
        <time>2025-06-18T16:28:39Z</time>
      </trkpt>
      <trkpt lat="43.64474" lon="1.39551">
        <ele>134</ele>
        <time>2025-06-18T16:28:40Z</time>
      </trkpt>
      <trkpt lat="43.64473" lon="1.39548">
        <ele>134</ele>
        <time>2025-06-18T16:28:41Z</time>
      </trkpt>
      <trkpt lat="43.64473" lon="1.39548">
        <ele>134</ele>
        <time>2025-06-18T16:28:42Z</time>
      </trkpt>
      <trkpt lat="43.64473" lon="1.39548">
        <ele>134</ele>
        <time>2025-06-18T16:28:43Z</time>
      </trkpt>
      <trkpt lat="43.64473" lon="1.39545">
        <ele>134</ele>
        <time>2025-06-18T16:28:44Z</time>
      </trkpt>
      <trkpt lat="43.64473" lon="1.39545">
        <ele>133</ele>
        <time>2025-06-18T16:28:45Z</time>
      </trkpt>
      <trkpt lat="43.64473" lon="1.39545">
        <ele>132</ele>
        <time>2025-06-18T16:28:46Z</time>
      </trkpt>
      <trkpt lat="43.64473" lon="1.39547">
        <ele>132</ele>
        <time>2025-06-18T16:28:47Z</time>
      </trkpt>
      <trkpt lat="43.64473" lon="1.39547">
        <ele>132</ele>
        <time>2025-06-18T16:28:48Z</time>
      </trkpt>
      <trkpt lat="43.64473" lon="1.3955">
        <ele>133</ele>
        <time>2025-06-18T16:28:49Z</time>
      </trkpt>
      <trkpt lat="43.64473" lon="1.3955">
        <ele>133</ele>
        <time>2025-06-18T16:28:50Z</time>
      </trkpt>
      <trkpt lat="43.64475" lon="1.39553">
        <ele>133</ele>
        <time>2025-06-18T16:28:51Z</time>
      </trkpt>
      <trkpt lat="43.64475" lon="1.39553">
        <ele>134</ele>
        <time>2025-06-18T16:28:52Z</time>
      </trkpt>
      <trkpt lat="43.64474" lon="1.3955">
        <ele>134</ele>
        <time>2025-06-18T16:28:53Z</time>
      </trkpt>
      <trkpt lat="43.64474" lon="1.3955">
        <ele>134</ele>
        <time>2025-06-18T16:28:54Z</time>
      </trkpt>
      <trkpt lat="43.64473" lon="1.39548">
        <ele>134</ele>
        <time>2025-06-18T16:28:55Z</time>
      </trkpt>
      <trkpt lat="43.64473" lon="1.39548">
        <ele>134</ele>
        <time>2025-06-18T16:28:56Z</time>
      </trkpt>
      <trkpt lat="43.64473" lon="1.39545">
        <ele>134</ele>
        <time>2025-06-18T16:28:57Z</time>
      </trkpt>
      <trkpt lat="43.64473" lon="1.39545">
        <ele>133</ele>
        <time>2025-06-18T16:28:58Z</time>
      </trkpt>
      <trkpt lat="43.64475" lon="1.39543">
        <ele>132</ele>
        <time>2025-06-18T16:28:59Z</time>
      </trkpt>
      <trkpt lat="43.64475" lon="1.39543">
        <ele>133</ele>
        <time>2025-06-18T16:29:00Z</time>
      </trkpt>
      <trkpt lat="43.64475" lon="1.39543">
        <ele>133</ele>
        <time>2025-06-18T16:29:01Z</time>
      </trkpt>
      <trkpt lat="43.64478" lon="1.39542">
        <ele>133</ele>
        <time>2025-06-18T16:29:02Z</time>
      </trkpt>
      <trkpt lat="43.64478" lon="1.39542">
        <ele>133</ele>
        <time>2025-06-18T16:29:03Z</time>
      </trkpt>
      <trkpt lat="43.6448" lon="1.39541">
        <ele>133</ele>
        <time>2025-06-18T16:29:04Z</time>
      </trkpt>
      <trkpt lat="43.6448" lon="1.39541">
        <ele>133</ele>
        <time>2025-06-18T16:29:05Z</time>
      </trkpt>
      <trkpt lat="43.64482" lon="1.39539">
        <ele>133</ele>
        <time>2025-06-18T16:29:06Z</time>
      </trkpt>
      <trkpt lat="43.64482" lon="1.39539">
        <ele>133</ele>
        <time>2025-06-18T16:29:07Z</time>
      </trkpt>
      <trkpt lat="43.64483" lon="1.39537">
        <ele>132</ele>
        <time>2025-06-18T16:29:08Z</time>
      </trkpt>
      <trkpt lat="43.64483" lon="1.39537">
        <ele>132</ele>
        <time>2025-06-18T16:29:09Z</time>
      </trkpt>
      <trkpt lat="43.64483" lon="1.39537">
        <ele>132</ele>
        <time>2025-06-18T16:29:10Z</time>
      </trkpt>
      <trkpt lat="43.64483" lon="1.39533">
        <ele>132</ele>
        <time>2025-06-18T16:29:11Z</time>
      </trkpt>
      <trkpt lat="43.64483" lon="1.39533">
        <ele>132</ele>
        <time>2025-06-18T16:29:12Z</time>
      </trkpt>
      <trkpt lat="43.64483" lon="1.3953">
        <ele>132</ele>
        <time>2025-06-18T16:29:13Z</time>
      </trkpt>
      <trkpt lat="43.64483" lon="1.3953">
        <ele>132</ele>
        <time>2025-06-18T16:29:14Z</time>
      </trkpt>
      <trkpt lat="43.64482" lon="1.39527">
        <ele>132</ele>
        <time>2025-06-18T16:29:15Z</time>
      </trkpt>
      <trkpt lat="43.64482" lon="1.39527">
        <ele>133</ele>
        <time>2025-06-18T16:29:16Z</time>
      </trkpt>
      <trkpt lat="43.64482" lon="1.39524">
        <ele>133</ele>
        <time>2025-06-18T16:29:17Z</time>
      </trkpt>
      <trkpt lat="43.64482" lon="1.39524">
        <ele>132</ele>
        <time>2025-06-18T16:29:18Z</time>
      </trkpt>
      <trkpt lat="43.64482" lon="1.39524">
        <ele>132</ele>
        <time>2025-06-18T16:29:19Z</time>
      </trkpt>
      <trkpt lat="43.64481" lon="1.39521">
        <ele>132</ele>
        <time>2025-06-18T16:29:20Z</time>
      </trkpt>
      <trkpt lat="43.64481" lon="1.39521">
        <ele>132</ele>
        <time>2025-06-18T16:29:21Z</time>
      </trkpt>
      <trkpt lat="43.64481" lon="1.39518">
        <ele>132</ele>
        <time>2025-06-18T16:29:22Z</time>
      </trkpt>
      <trkpt lat="43.64481" lon="1.39518">
        <ele>132</ele>
        <time>2025-06-18T16:29:23Z</time>
      </trkpt>
      <trkpt lat="43.64481" lon="1.39518">
        <ele>132</ele>
        <time>2025-06-18T16:29:24Z</time>
      </trkpt>
      <trkpt lat="43.64481" lon="1.39515">
        <ele>132</ele>
        <time>2025-06-18T16:29:25Z</time>
      </trkpt>
      <trkpt lat="43.64481" lon="1.39515">
        <ele>132</ele>
        <time>2025-06-18T16:29:26Z</time>
      </trkpt>
      <trkpt lat="43.6448" lon="1.39511">
        <ele>132</ele>
        <time>2025-06-18T16:29:27Z</time>
      </trkpt>
      <trkpt lat="43.6448" lon="1.39511">
        <ele>132</ele>
        <time>2025-06-18T16:29:28Z</time>
      </trkpt>
      <trkpt lat="43.64479" lon="1.39509">
        <ele>132</ele>
        <time>2025-06-18T16:29:29Z</time>
      </trkpt>
      <trkpt lat="43.64479" lon="1.39509">
        <ele>132</ele>
        <time>2025-06-18T16:29:30Z</time>
      </trkpt>
      <trkpt lat="43.64479" lon="1.39509">
        <ele>132</ele>
        <time>2025-06-18T16:29:31Z</time>
      </trkpt>
      <trkpt lat="43.64479" lon="1.39509">
        <ele>132</ele>
        <time>2025-06-18T16:29:32Z</time>
      </trkpt>
      <trkpt lat="43.64479" lon="1.39509">
        <ele>132</ele>
        <time>2025-06-18T16:29:33Z</time>
      </trkpt>
      <trkpt lat="43.64479" lon="1.39509">
        <ele>133</ele>
        <time>2025-06-18T16:29:34Z</time>
      </trkpt>
      <trkpt lat="43.64479" lon="1.39509">
        <ele>133</ele>
        <time>2025-06-18T16:29:35Z</time>
      </trkpt>
      <trkpt lat="43.64479" lon="1.39511">
        <ele>133</ele>
        <time>2025-06-18T16:29:36Z</time>
      </trkpt>
      <trkpt lat="43.6448" lon="1.39514">
        <ele>132</ele>
        <time>2025-06-18T16:29:37Z</time>
      </trkpt>
      <trkpt lat="43.6448" lon="1.39514">
        <ele>132</ele>
        <time>2025-06-18T16:29:38Z</time>
      </trkpt>
      <trkpt lat="43.6448" lon="1.39514">
        <ele>132</ele>
        <time>2025-06-18T16:29:39Z</time>
      </trkpt>
      <trkpt lat="43.6448" lon="1.39517">
        <ele>132</ele>
        <time>2025-06-18T16:29:40Z</time>
      </trkpt>
      <trkpt lat="43.64481" lon="1.39519">
        <ele>132</ele>
        <time>2025-06-18T16:29:41Z</time>
      </trkpt>
      <trkpt lat="43.64481" lon="1.39519">
        <ele>132</ele>
        <time>2025-06-18T16:29:42Z</time>
      </trkpt>
      <trkpt lat="43.64481" lon="1.39522">
        <ele>132</ele>
        <time>2025-06-18T16:29:43Z</time>
      </trkpt>
      <trkpt lat="43.64481" lon="1.39522">
        <ele>132</ele>
        <time>2025-06-18T16:29:44Z</time>
      </trkpt>
      <trkpt lat="43.64481" lon="1.39522">
        <ele>132</ele>
        <time>2025-06-18T16:29:45Z</time>
      </trkpt>
      <trkpt lat="43.64482" lon="1.39524">
        <ele>132</ele>
        <time>2025-06-18T16:29:46Z</time>
      </trkpt>
      <trkpt lat="43.64483" lon="1.39527">
        <ele>132</ele>
        <time>2025-06-18T16:29:47Z</time>
      </trkpt>
      <trkpt lat="43.64483" lon="1.39527">
        <ele>132</ele>
        <time>2025-06-18T16:29:48Z</time>
      </trkpt>
      <trkpt lat="43.64483" lon="1.39531">
        <ele>132</ele>
        <time>2025-06-18T16:29:49Z</time>
      </trkpt>
      <trkpt lat="43.64483" lon="1.39531">
        <ele>132</ele>
        <time>2025-06-18T16:29:50Z</time>
      </trkpt>
      <trkpt lat="43.64483" lon="1.39534">
        <ele>132</ele>
        <time>2025-06-18T16:29:51Z</time>
      </trkpt>
      <trkpt lat="43.64483" lon="1.39534">
        <ele>132</ele>
        <time>2025-06-18T16:29:52Z</time>
      </trkpt>
      <trkpt lat="43.64483" lon="1.39537">
        <ele>132</ele>
        <time>2025-06-18T16:29:53Z</time>
      </trkpt>
      <trkpt lat="43.64483" lon="1.39537">
        <ele>132</ele>
        <time>2025-06-18T16:29:54Z</time>
      </trkpt>
      <trkpt lat="43.64481" lon="1.3954">
        <ele>132</ele>
        <time>2025-06-18T16:29:55Z</time>
      </trkpt>
      <trkpt lat="43.64481" lon="1.3954">
        <ele>132</ele>
        <time>2025-06-18T16:29:56Z</time>
      </trkpt>
      <trkpt lat="43.64481" lon="1.3954">
        <ele>132</ele>
        <time>2025-06-18T16:29:57Z</time>
      </trkpt>
      <trkpt lat="43.64479" lon="1.39542">
        <ele>132</ele>
        <time>2025-06-18T16:29:58Z</time>
      </trkpt>
      <trkpt lat="43.64476" lon="1.39542">
        <ele>132</ele>
        <time>2025-06-18T16:29:59Z</time>
      </trkpt>
      <trkpt lat="43.64476" lon="1.39542">
        <ele>132</ele>
        <time>2025-06-18T16:30:00Z</time>
      </trkpt>
      <trkpt lat="43.64474" lon="1.39542">
        <ele>132</ele>
        <time>2025-06-18T16:30:01Z</time>
      </trkpt>
      <trkpt lat="43.64474" lon="1.39542">
        <ele>132</ele>
        <time>2025-06-18T16:30:02Z</time>
      </trkpt>
      <trkpt lat="43.64474" lon="1.39542">
        <ele>133</ele>
        <time>2025-06-18T16:30:03Z</time>
      </trkpt>
      <trkpt lat="43.64473" lon="1.39545">
        <ele>133</ele>
        <time>2025-06-18T16:30:04Z</time>
      </trkpt>
      <trkpt lat="43.64473" lon="1.39545">
        <ele>133</ele>
        <time>2025-06-18T16:30:05Z</time>
      </trkpt>
      <trkpt lat="43.64473" lon="1.39545">
        <ele>133</ele>
        <time>2025-06-18T16:30:06Z</time>
      </trkpt>
      <trkpt lat="43.64473" lon="1.39547">
        <ele>133</ele>
        <time>2025-06-18T16:30:07Z</time>
      </trkpt>
      <trkpt lat="43.64473" lon="1.39547">
        <ele>133</ele>
        <time>2025-06-18T16:30:08Z</time>
      </trkpt>
      <trkpt lat="43.64473" lon="1.39547">
        <ele>133</ele>
        <time>2025-06-18T16:30:09Z</time>
      </trkpt>
      <trkpt lat="43.64473" lon="1.39547">
        <ele>133</ele>
        <time>2025-06-18T16:30:10Z</time>
      </trkpt>
      <trkpt lat="43.64473" lon="1.39547">
        <ele>132</ele>
        <time>2025-06-18T16:30:11Z</time>
      </trkpt>
      <trkpt lat="43.64474" lon="1.3955">
        <ele>132</ele>
        <time>2025-06-18T16:30:12Z</time>
      </trkpt>
      <trkpt lat="43.64474" lon="1.3955">
        <ele>133</ele>
        <time>2025-06-18T16:30:13Z</time>
      </trkpt>
      <trkpt lat="43.64474" lon="1.3955">
        <ele>134</ele>
        <time>2025-06-18T16:30:14Z</time>
      </trkpt>
      <trkpt lat="43.64474" lon="1.3955">
        <ele>134</ele>
        <time>2025-06-18T16:30:15Z</time>
      </trkpt>
      <trkpt lat="43.64474" lon="1.3955">
        <ele>134</ele>
        <time>2025-06-18T16:30:16Z</time>
      </trkpt>
      <trkpt lat="43.64474" lon="1.3955">
        <ele>134</ele>
        <time>2025-06-18T16:30:17Z</time>
      </trkpt>
      <trkpt lat="43.64474" lon="1.3955">
        <ele>134</ele>
        <time>2025-06-18T16:30:18Z</time>
      </trkpt>
      <trkpt lat="43.64472" lon="1.39548">
        <ele>134</ele>
        <time>2025-06-18T16:30:19Z</time>
      </trkpt>
      <trkpt lat="43.64472" lon="1.39548">
        <ele>134</ele>
        <time>2025-06-18T16:30:20Z</time>
      </trkpt>
      <trkpt lat="43.64472" lon="1.39548">
        <ele>134</ele>
        <time>2025-06-18T16:30:21Z</time>
      </trkpt>
      <trkpt lat="43.64472" lon="1.39545">
        <ele>133</ele>
        <time>2025-06-18T16:30:22Z</time>
      </trkpt>
      <trkpt lat="43.64472" lon="1.39545">
        <ele>133</ele>
        <time>2025-06-18T16:30:23Z</time>
      </trkpt>
      <trkpt lat="43.64472" lon="1.39545">
        <ele>132</ele>
        <time>2025-06-18T16:30:24Z</time>
      </trkpt>
      <trkpt lat="43.64472" lon="1.39545">
        <ele>132</ele>
        <time>2025-06-18T16:30:25Z</time>
      </trkpt>
      <trkpt lat="43.64472" lon="1.39545">
        <ele>132</ele>
        <time>2025-06-18T16:30:26Z</time>
      </trkpt>
      <trkpt lat="43.64472" lon="1.39545">
        <ele>132</ele>
        <time>2025-06-18T16:30:27Z</time>
      </trkpt>
      <trkpt lat="43.64473" lon="1.39547">
        <ele>132</ele>
        <time>2025-06-18T16:30:28Z</time>
      </trkpt>
      <trkpt lat="43.64473" lon="1.39547">
        <ele>132</ele>
        <time>2025-06-18T16:30:29Z</time>
      </trkpt>
      <trkpt lat="43.64473" lon="1.39547">
        <ele>132</ele>
        <time>2025-06-18T16:30:30Z</time>
      </trkpt>
      <trkpt lat="43.64473" lon="1.39547">
        <ele>132</ele>
        <time>2025-06-18T16:30:31Z</time>
      </trkpt>
      <trkpt lat="43.64473" lon="1.39547">
        <ele>132</ele>
        <time>2025-06-18T16:30:32Z</time>
      </trkpt>
      <trkpt lat="43.64473" lon="1.3955">
        <ele>133</ele>
        <time>2025-06-18T16:30:33Z</time>
      </trkpt>
      <trkpt lat="43.64473" lon="1.3955">
        <ele>134</ele>
        <time>2025-06-18T16:30:34Z</time>
      </trkpt>
      <trkpt lat="43.64473" lon="1.3955">
        <ele>134</ele>
        <time>2025-06-18T16:30:35Z</time>
      </trkpt>
      <trkpt lat="43.64473" lon="1.3955">
        <ele>134</ele>
        <time>2025-06-18T16:30:36Z</time>
      </trkpt>
      <trkpt lat="43.64473" lon="1.3955">
        <ele>134</ele>
        <time>2025-06-18T16:30:37Z</time>
      </trkpt>
      <trkpt lat="43.64473" lon="1.3955">
        <ele>134</ele>
        <time>2025-06-18T16:30:38Z</time>
      </trkpt>
      <trkpt lat="43.64472" lon="1.39548">
        <ele>134</ele>
        <time>2025-06-18T16:30:39Z</time>
      </trkpt>
      <trkpt lat="43.64472" lon="1.39548">
        <ele>134</ele>
        <time>2025-06-18T16:30:40Z</time>
      </trkpt>
      <trkpt lat="43.64472" lon="1.39548">
        <ele>133</ele>
        <time>2025-06-18T16:30:41Z</time>
      </trkpt>
      <trkpt lat="43.64472" lon="1.39548">
        <ele>132</ele>
        <time>2025-06-18T16:30:42Z</time>
      </trkpt>
      <trkpt lat="43.64472" lon="1.39545">
        <ele>132</ele>
        <time>2025-06-18T16:30:43Z</time>
      </trkpt>
      <trkpt lat="43.64472" lon="1.39545">
        <ele>132</ele>
        <time>2025-06-18T16:30:44Z</time>
      </trkpt>
      <trkpt lat="43.64472" lon="1.39545">
        <ele>131</ele>
        <time>2025-06-18T16:30:45Z</time>
      </trkpt>
      <trkpt lat="43.64472" lon="1.39545">
        <ele>131</ele>
        <time>2025-06-18T16:30:46Z</time>
      </trkpt>
      <trkpt lat="43.64472" lon="1.39545">
        <ele>132</ele>
        <time>2025-06-18T16:30:47Z</time>
      </trkpt>
      <trkpt lat="43.64472" lon="1.39548">
        <ele>132</ele>
        <time>2025-06-18T16:30:48Z</time>
      </trkpt>
      <trkpt lat="43.64472" lon="1.39548">
        <ele>132</ele>
        <time>2025-06-18T16:30:49Z</time>
      </trkpt>
      <trkpt lat="43.64472" lon="1.39548">
        <ele>132</ele>
        <time>2025-06-18T16:30:50Z</time>
      </trkpt>
      <trkpt lat="43.64472" lon="1.39548">
        <ele>132</ele>
        <time>2025-06-18T16:30:51Z</time>
      </trkpt>
      <trkpt lat="43.64472" lon="1.3955">
        <ele>132</ele>
        <time>2025-06-18T16:30:52Z</time>
      </trkpt>
      <trkpt lat="43.64472" lon="1.3955">
        <ele>132</ele>
        <time>2025-06-18T16:30:53Z</time>
      </trkpt>
      <trkpt lat="43.64472" lon="1.3955">
        <ele>133</ele>
        <time>2025-06-18T16:30:54Z</time>
      </trkpt>
      <trkpt lat="43.64472" lon="1.3955">
        <ele>133</ele>
        <time>2025-06-18T16:30:55Z</time>
      </trkpt>
      <trkpt lat="43.64472" lon="1.3955">
        <ele>134</ele>
        <time>2025-06-18T16:30:56Z</time>
      </trkpt>
      <trkpt lat="43.64472" lon="1.3955">
        <ele>134</ele>
        <time>2025-06-18T16:30:57Z</time>
      </trkpt>
      <trkpt lat="43.64472" lon="1.39547">
        <ele>134</ele>
        <time>2025-06-18T16:30:58Z</time>
      </trkpt>
      <trkpt lat="43.64472" lon="1.39547">
        <ele>134</ele>
        <time>2025-06-18T16:30:59Z</time>
      </trkpt>
      <trkpt lat="43.64472" lon="1.39547">
        <ele>133</ele>
        <time>2025-06-18T16:31:00Z</time>
      </trkpt>
      <trkpt lat="43.64472" lon="1.39547">
        <ele>133</ele>
        <time>2025-06-18T16:31:01Z</time>
      </trkpt>
      <trkpt lat="43.64471" lon="1.39545">
        <ele>133</ele>
        <time>2025-06-18T16:31:02Z</time>
      </trkpt>
      <trkpt lat="43.64471" lon="1.39545">
        <ele>133</ele>
        <time>2025-06-18T16:31:03Z</time>
      </trkpt>
      <trkpt lat="43.64471" lon="1.39545">
        <ele>133</ele>
        <time>2025-06-18T16:31:04Z</time>
      </trkpt>
      <trkpt lat="43.64471" lon="1.39545">
        <ele>132</ele>
        <time>2025-06-18T16:31:05Z</time>
      </trkpt>
      <trkpt lat="43.64471" lon="1.39545">
        <ele>132</ele>
        <time>2025-06-18T16:31:06Z</time>
      </trkpt>
      <trkpt lat="43.64471" lon="1.39545">
        <ele>132</ele>
        <time>2025-06-18T16:31:07Z</time>
      </trkpt>
      <trkpt lat="43.64472" lon="1.39547">
        <ele>132</ele>
        <time>2025-06-18T16:31:08Z</time>
      </trkpt>
      <trkpt lat="43.64472" lon="1.39547">
        <ele>132</ele>
        <time>2025-06-18T16:31:09Z</time>
      </trkpt>
      <trkpt lat="43.64472" lon="1.39547">
        <ele>132</ele>
        <time>2025-06-18T16:31:10Z</time>
      </trkpt>
      <trkpt lat="43.64472" lon="1.39547">
        <ele>133</ele>
        <time>2025-06-18T16:31:11Z</time>
      </trkpt>
      <trkpt lat="43.64472" lon="1.39547">
        <ele>134</ele>
        <time>2025-06-18T16:31:12Z</time>
      </trkpt>
      <trkpt lat="43.64472" lon="1.39547">
        <ele>134</ele>
        <time>2025-06-18T16:31:13Z</time>
      </trkpt>
      <trkpt lat="43.64472" lon="1.39547">
        <ele>134</ele>
        <time>2025-06-18T16:31:14Z</time>
      </trkpt>
      <trkpt lat="43.64472" lon="1.39547">
        <ele>134</ele>
        <time>2025-06-18T16:31:15Z</time>
      </trkpt>
      <trkpt lat="43.64472" lon="1.39547">
        <ele>134</ele>
        <time>2025-06-18T16:31:16Z</time>
      </trkpt>
      <trkpt lat="43.64472" lon="1.39547">
        <ele>134</ele>
        <time>2025-06-18T16:31:17Z</time>
      </trkpt>
      <trkpt lat="43.64472" lon="1.39547">
        <ele>134</ele>
        <time>2025-06-18T16:31:18Z</time>
      </trkpt>
      <trkpt lat="43.64472" lon="1.39547">
        <ele>134</ele>
        <time>2025-06-18T16:31:19Z</time>
      </trkpt>
      <trkpt lat="43.64472" lon="1.39547">
        <ele>134</ele>
        <time>2025-06-18T16:31:20Z</time>
      </trkpt>
      <trkpt lat="43.64472" lon="1.39544">
        <ele>133</ele>
        <time>2025-06-18T16:31:21Z</time>
      </trkpt>
      <trkpt lat="43.64472" lon="1.39544">
        <ele>133</ele>
        <time>2025-06-18T16:31:22Z</time>
      </trkpt>
      <trkpt lat="43.64472" lon="1.39544">
        <ele>133</ele>
        <time>2025-06-18T16:31:23Z</time>
      </trkpt>
      <trkpt lat="43.64472" lon="1.39544">
        <ele>132</ele>
        <time>2025-06-18T16:31:24Z</time>
      </trkpt>
      <trkpt lat="43.64472" lon="1.39544">
        <ele>132</ele>
        <time>2025-06-18T16:31:25Z</time>
      </trkpt>
      <trkpt lat="43.64472" lon="1.39544">
        <ele>132</ele>
        <time>2025-06-18T16:31:26Z</time>
      </trkpt>
      <trkpt lat="43.64472" lon="1.39544">
        <ele>131</ele>
        <time>2025-06-18T16:31:27Z</time>
      </trkpt>
      <trkpt lat="43.64472" lon="1.39544">
        <ele>131</ele>
        <time>2025-06-18T16:31:28Z</time>
      </trkpt>
      <trkpt lat="43.64474" lon="1.39546">
        <ele>132</ele>
        <time>2025-06-18T16:31:29Z</time>
      </trkpt>
      <trkpt lat="43.64474" lon="1.39546">
        <ele>132</ele>
        <time>2025-06-18T16:31:30Z</time>
      </trkpt>
      <trkpt lat="43.64474" lon="1.39546">
        <ele>132</ele>
        <time>2025-06-18T16:31:31Z</time>
      </trkpt>
      <trkpt lat="43.64474" lon="1.39546">
        <ele>132</ele>
        <time>2025-06-18T16:31:32Z</time>
      </trkpt>
      <trkpt lat="43.64474" lon="1.39546">
        <ele>132</ele>
        <time>2025-06-18T16:31:33Z</time>
      </trkpt>
      <trkpt lat="43.64474" lon="1.39546">
        <ele>133</ele>
        <time>2025-06-18T16:31:34Z</time>
      </trkpt>
      <trkpt lat="43.64474" lon="1.39546">
        <ele>133</ele>
        <time>2025-06-18T16:31:35Z</time>
      </trkpt>
      <trkpt lat="43.64474" lon="1.39546">
        <ele>133</ele>
        <time>2025-06-18T16:31:36Z</time>
      </trkpt>
      <trkpt lat="43.64474" lon="1.39546">
        <ele>133</ele>
        <time>2025-06-18T16:31:37Z</time>
      </trkpt>
      <trkpt lat="43.64474" lon="1.39546">
        <ele>133</ele>
        <time>2025-06-18T16:31:38Z</time>
      </trkpt>
      <trkpt lat="43.64474" lon="1.39546">
        <ele>133</ele>
        <time>2025-06-18T16:31:39Z</time>
      </trkpt>
      <trkpt lat="43.64474" lon="1.39546">
        <ele>132</ele>
        <time>2025-06-18T16:31:40Z</time>
      </trkpt>
      <trkpt lat="43.64474" lon="1.39546">
        <ele>132</ele>
        <time>2025-06-18T16:31:41Z</time>
      </trkpt>
      <trkpt lat="43.64472" lon="1.39544">
        <ele>132</ele>
        <time>2025-06-18T16:31:42Z</time>
      </trkpt>
      <trkpt lat="43.64472" lon="1.39544">
        <ele>132</ele>
        <time>2025-06-18T16:31:43Z</time>
      </trkpt>
      <trkpt lat="43.64472" lon="1.39544">
        <ele>132</ele>
        <time>2025-06-18T16:31:44Z</time>
      </trkpt>
      <trkpt lat="43.64472" lon="1.39544">
        <ele>132</ele>
        <time>2025-06-18T16:31:45Z</time>
      </trkpt>
      <trkpt lat="43.64472" lon="1.39544">
        <ele>131</ele>
        <time>2025-06-18T16:31:46Z</time>
      </trkpt>
      <trkpt lat="43.64472" lon="1.39544">
        <ele>131</ele>
        <time>2025-06-18T16:31:47Z</time>
      </trkpt>
      <trkpt lat="43.64472" lon="1.39544">
        <ele>132</ele>
        <time>2025-06-18T16:31:48Z</time>
      </trkpt>
      <trkpt lat="43.64472" lon="1.39547">
        <ele>132</ele>
        <time>2025-06-18T16:31:49Z</time>
      </trkpt>
      <trkpt lat="43.64472" lon="1.39547">
        <ele>132</ele>
        <time>2025-06-18T16:31:50Z</time>
      </trkpt>
      <trkpt lat="43.64472" lon="1.39547">
        <ele>132</ele>
        <time>2025-06-18T16:31:51Z</time>
      </trkpt>
      <trkpt lat="43.64474" lon="1.39549">
        <ele>132</ele>
        <time>2025-06-18T16:31:52Z</time>
      </trkpt>
      <trkpt lat="43.64474" lon="1.39549">
        <ele>132</ele>
        <time>2025-06-18T16:31:53Z</time>
      </trkpt>
      <trkpt lat="43.64474" lon="1.39549">
        <ele>132</ele>
        <time>2025-06-18T16:31:54Z</time>
      </trkpt>
      <trkpt lat="43.64474" lon="1.39549">
        <ele>132</ele>
        <time>2025-06-18T16:31:55Z</time>
      </trkpt>
      <trkpt lat="43.64474" lon="1.39549">
        <ele>133</ele>
        <time>2025-06-18T16:31:56Z</time>
      </trkpt>
      <trkpt lat="43.64474" lon="1.39549">
        <ele>133</ele>
        <time>2025-06-18T16:31:57Z</time>
      </trkpt>
      <trkpt lat="43.64474" lon="1.39549">
        <ele>133</ele>
        <time>2025-06-18T16:31:58Z</time>
      </trkpt>
      <trkpt lat="43.64474" lon="1.39549">
        <ele>133</ele>
        <time>2025-06-18T16:31:59Z</time>
      </trkpt>
      <trkpt lat="43.64474" lon="1.39549">
        <ele>133</ele>
        <time>2025-06-18T16:32:00Z</time>
      </trkpt>
      <trkpt lat="43.64474" lon="1.39549">
        <ele>133</ele>
        <time>2025-06-18T16:32:01Z</time>
      </trkpt>
      <trkpt lat="43.64472" lon="1.39547">
        <ele>133</ele>
        <time>2025-06-18T16:32:02Z</time>
      </trkpt>
      <trkpt lat="43.64472" lon="1.39547">
        <ele>132</ele>
        <time>2025-06-18T16:32:03Z</time>
      </trkpt>
      <trkpt lat="43.64472" lon="1.39547">
        <ele>132</ele>
        <time>2025-06-18T16:32:04Z</time>
      </trkpt>
      <trkpt lat="43.64473" lon="1.39544">
        <ele>131</ele>
        <time>2025-06-18T16:32:05Z</time>
      </trkpt>
      <trkpt lat="43.64473" lon="1.39544">
        <ele>131</ele>
        <time>2025-06-18T16:32:06Z</time>
      </trkpt>
      <trkpt lat="43.64474" lon="1.39542">
        <ele>131</ele>
        <time>2025-06-18T16:32:07Z</time>
      </trkpt>
      <trkpt lat="43.64474" lon="1.39542">
        <ele>131</ele>
        <time>2025-06-18T16:32:08Z</time>
      </trkpt>
      <trkpt lat="43.64476" lon="1.39541">
        <ele>131</ele>
        <time>2025-06-18T16:32:09Z</time>
      </trkpt>
      <trkpt lat="43.64476" lon="1.39541">
        <ele>131</ele>
        <time>2025-06-18T16:32:10Z</time>
      </trkpt>
      <trkpt lat="43.64479" lon="1.3954">
        <ele>131</ele>
        <time>2025-06-18T16:32:11Z</time>
      </trkpt>
      <trkpt lat="43.64479" lon="1.3954">
        <ele>131</ele>
        <time>2025-06-18T16:32:12Z</time>
      </trkpt>
      <trkpt lat="43.64481" lon="1.39538">
        <ele>131</ele>
        <time>2025-06-18T16:32:13Z</time>
      </trkpt>
      <trkpt lat="43.64481" lon="1.39538">
        <ele>131</ele>
        <time>2025-06-18T16:32:14Z</time>
      </trkpt>
      <trkpt lat="43.64482" lon="1.39535">
        <ele>131</ele>
        <time>2025-06-18T16:32:15Z</time>
      </trkpt>
      <trkpt lat="43.64482" lon="1.39535">
        <ele>131</ele>
        <time>2025-06-18T16:32:16Z</time>
      </trkpt>
      <trkpt lat="43.64482" lon="1.39535">
        <ele>131</ele>
        <time>2025-06-18T16:32:17Z</time>
      </trkpt>
      <trkpt lat="43.64482" lon="1.39532">
        <ele>131</ele>
        <time>2025-06-18T16:32:18Z</time>
      </trkpt>
      <trkpt lat="43.64482" lon="1.39529">
        <ele>131</ele>
        <time>2025-06-18T16:32:19Z</time>
      </trkpt>
      <trkpt lat="43.64482" lon="1.39529">
        <ele>131</ele>
        <time>2025-06-18T16:32:20Z</time>
      </trkpt>
      <trkpt lat="43.64482" lon="1.39526">
        <ele>131</ele>
        <time>2025-06-18T16:32:21Z</time>
      </trkpt>
      <trkpt lat="43.64482" lon="1.39526">
        <ele>131</ele>
        <time>2025-06-18T16:32:22Z</time>
      </trkpt>
      <trkpt lat="43.64482" lon="1.39523">
        <ele>131</ele>
        <time>2025-06-18T16:32:23Z</time>
      </trkpt>
      <trkpt lat="43.64482" lon="1.39523">
        <ele>131</ele>
        <time>2025-06-18T16:32:24Z</time>
      </trkpt>
      <trkpt lat="43.64482" lon="1.3952">
        <ele>130</ele>
        <time>2025-06-18T16:32:25Z</time>
      </trkpt>
      <trkpt lat="43.64482" lon="1.3952">
        <ele>131</ele>
        <time>2025-06-18T16:32:26Z</time>
      </trkpt>
      <trkpt lat="43.64481" lon="1.39517">
        <ele>131</ele>
        <time>2025-06-18T16:32:27Z</time>
      </trkpt>
      <trkpt lat="43.64481" lon="1.39517">
        <ele>131</ele>
        <time>2025-06-18T16:32:28Z</time>
      </trkpt>
      <trkpt lat="43.64481" lon="1.39517">
        <ele>131</ele>
        <time>2025-06-18T16:32:29Z</time>
      </trkpt>
      <trkpt lat="43.64481" lon="1.39517">
        <ele>131</ele>
        <time>2025-06-18T16:32:30Z</time>
      </trkpt>
      <trkpt lat="43.64481" lon="1.39517">
        <ele>131</ele>
        <time>2025-06-18T16:32:31Z</time>
      </trkpt>
      <trkpt lat="43.64481" lon="1.39514">
        <ele>131</ele>
        <time>2025-06-18T16:32:32Z</time>
      </trkpt>
      <trkpt lat="43.64481" lon="1.39514">
        <ele>131</ele>
        <time>2025-06-18T16:32:33Z</time>
      </trkpt>
      <trkpt lat="43.6448" lon="1.39512">
        <ele>131</ele>
        <time>2025-06-18T16:32:34Z</time>
      </trkpt>
      <trkpt lat="43.6448" lon="1.39512">
        <ele>131</ele>
        <time>2025-06-18T16:32:35Z</time>
      </trkpt>
      <trkpt lat="43.6448" lon="1.39508">
        <ele>131</ele>
        <time>2025-06-18T16:32:36Z</time>
      </trkpt>
      <trkpt lat="43.6448" lon="1.39508">
        <ele>130</ele>
        <time>2025-06-18T16:32:37Z</time>
      </trkpt>
      <trkpt lat="43.6448" lon="1.39508">
        <ele>130</ele>
        <time>2025-06-18T16:32:38Z</time>
      </trkpt>
      <trkpt lat="43.64479" lon="1.39505">
        <ele>130</ele>
        <time>2025-06-18T16:32:39Z</time>
      </trkpt>
      <trkpt lat="43.64479" lon="1.39505">
        <ele>130</ele>
        <time>2025-06-18T16:32:40Z</time>
      </trkpt>
      <trkpt lat="43.64479" lon="1.39505">
        <ele>130</ele>
        <time>2025-06-18T16:32:41Z</time>
      </trkpt>
      <trkpt lat="43.64479" lon="1.39507">
        <ele>130</ele>
        <time>2025-06-18T16:32:42Z</time>
      </trkpt>
      <trkpt lat="43.64479" lon="1.39507">
        <ele>130</ele>
        <time>2025-06-18T16:32:43Z</time>
      </trkpt>
      <trkpt lat="43.6448" lon="1.3951">
        <ele>130</ele>
        <time>2025-06-18T16:32:44Z</time>
      </trkpt>
      <trkpt lat="43.6448" lon="1.3951">
        <ele>130</ele>
        <time>2025-06-18T16:32:45Z</time>
      </trkpt>
      <trkpt lat="43.64481" lon="1.39513">
        <ele>130</ele>
        <time>2025-06-18T16:32:46Z</time>
      </trkpt>
      <trkpt lat="43.64481" lon="1.39513">
        <ele>130</ele>
        <time>2025-06-18T16:32:47Z</time>
      </trkpt>
      <trkpt lat="43.64481" lon="1.39516">
        <ele>130</ele>
        <time>2025-06-18T16:32:48Z</time>
      </trkpt>
      <trkpt lat="43.64481" lon="1.39516">
        <ele>130</ele>
        <time>2025-06-18T16:32:49Z</time>
      </trkpt>
      <trkpt lat="43.64481" lon="1.39518">
        <ele>130</ele>
        <time>2025-06-18T16:32:50Z</time>
      </trkpt>
      <trkpt lat="43.64481" lon="1.39518">
        <ele>130</ele>
        <time>2025-06-18T16:32:51Z</time>
      </trkpt>
      <trkpt lat="43.64481" lon="1.39521">
        <ele>130</ele>
        <time>2025-06-18T16:32:52Z</time>
      </trkpt>
      <trkpt lat="43.64481" lon="1.39521">
        <ele>130</ele>
        <time>2025-06-18T16:32:53Z</time>
      </trkpt>
      <trkpt lat="43.64482" lon="1.39524">
        <ele>131</ele>
        <time>2025-06-18T16:32:54Z</time>
      </trkpt>
      <trkpt lat="43.64482" lon="1.39524">
        <ele>131</ele>
        <time>2025-06-18T16:32:55Z</time>
      </trkpt>
      <trkpt lat="43.64483" lon="1.39528">
        <ele>131</ele>
        <time>2025-06-18T16:32:56Z</time>
      </trkpt>
      <trkpt lat="43.64483" lon="1.39528">
        <ele>130</ele>
        <time>2025-06-18T16:32:57Z</time>
      </trkpt>
      <trkpt lat="43.64484" lon="1.39531">
        <ele>130</ele>
        <time>2025-06-18T16:32:58Z</time>
      </trkpt>
      <trkpt lat="43.64484" lon="1.39531">
        <ele>130</ele>
        <time>2025-06-18T16:32:59Z</time>
      </trkpt>
      <trkpt lat="43.64484" lon="1.39531">
        <ele>130</ele>
        <time>2025-06-18T16:33:00Z</time>
      </trkpt>
      <trkpt lat="43.64484" lon="1.39535">
        <ele>130</ele>
        <time>2025-06-18T16:33:01Z</time>
      </trkpt>
      <trkpt lat="43.64484" lon="1.39535">
        <ele>130</ele>
        <time>2025-06-18T16:33:02Z</time>
      </trkpt>
      <trkpt lat="43.64483" lon="1.39538">
        <ele>130</ele>
        <time>2025-06-18T16:33:03Z</time>
      </trkpt>
      <trkpt lat="43.64482" lon="1.3954">
        <ele>130</ele>
        <time>2025-06-18T16:33:04Z</time>
      </trkpt>
      <trkpt lat="43.64482" lon="1.3954">
        <ele>130</ele>
        <time>2025-06-18T16:33:05Z</time>
      </trkpt>
      <trkpt lat="43.64479" lon="1.39541">
        <ele>130</ele>
        <time>2025-06-18T16:33:06Z</time>
      </trkpt>
      <trkpt lat="43.64479" lon="1.39541">
        <ele>130</ele>
        <time>2025-06-18T16:33:07Z</time>
      </trkpt>
      <trkpt lat="43.64477" lon="1.39542">
        <ele>130</ele>
        <time>2025-06-18T16:33:08Z</time>
      </trkpt>
      <trkpt lat="43.64477" lon="1.39542">
        <ele>130</ele>
        <time>2025-06-18T16:33:09Z</time>
      </trkpt>
      <trkpt lat="43.64475" lon="1.39542">
        <ele>130</ele>
        <time>2025-06-18T16:33:10Z</time>
      </trkpt>
      <trkpt lat="43.64475" lon="1.39542">
        <ele>130</ele>
        <time>2025-06-18T16:33:11Z</time>
      </trkpt>
      <trkpt lat="43.64475" lon="1.39542">
        <ele>130</ele>
        <time>2025-06-18T16:33:12Z</time>
      </trkpt>
      <trkpt lat="43.64473" lon="1.39543">
        <ele>130</ele>
        <time>2025-06-18T16:33:13Z</time>
      </trkpt>
      <trkpt lat="43.64473" lon="1.39543">
        <ele>130</ele>
        <time>2025-06-18T16:33:14Z</time>
      </trkpt>
      <trkpt lat="43.64473" lon="1.39543">
        <ele>130</ele>
        <time>2025-06-18T16:33:15Z</time>
      </trkpt>
      <trkpt lat="43.64473" lon="1.39543">
        <ele>130</ele>
        <time>2025-06-18T16:33:16Z</time>
      </trkpt>
      <trkpt lat="43.64473" lon="1.39543">
        <ele>130</ele>
        <time>2025-06-18T16:33:17Z</time>
      </trkpt>
      <trkpt lat="43.64473" lon="1.39543">
        <ele>130</ele>
        <time>2025-06-18T16:33:18Z</time>
      </trkpt>
      <trkpt lat="43.64473" lon="1.39546">
        <ele>130</ele>
        <time>2025-06-18T16:33:19Z</time>
      </trkpt>
      <trkpt lat="43.64473" lon="1.39546">
        <ele>131</ele>
        <time>2025-06-18T16:33:20Z</time>
      </trkpt>
      <trkpt lat="43.64473" lon="1.39548">
        <ele>131</ele>
        <time>2025-06-18T16:33:21Z</time>
      </trkpt>
      <trkpt lat="43.64473" lon="1.39548">
        <ele>131</ele>
        <time>2025-06-18T16:33:22Z</time>
      </trkpt>
      <trkpt lat="43.64473" lon="1.39548">
        <ele>131</ele>
        <time>2025-06-18T16:33:23Z</time>
      </trkpt>
      <trkpt lat="43.64473" lon="1.39548">
        <ele>131</ele>
        <time>2025-06-18T16:33:24Z</time>
      </trkpt>
      <trkpt lat="43.64475" lon="1.39552">
        <ele>131</ele>
        <time>2025-06-18T16:33:25Z</time>
      </trkpt>
      <trkpt lat="43.64475" lon="1.39552">
        <ele>132</ele>
        <time>2025-06-18T16:33:26Z</time>
      </trkpt>
      <trkpt lat="43.64475" lon="1.39552">
        <ele>132</ele>
        <time>2025-06-18T16:33:27Z</time>
      </trkpt>
      <trkpt lat="43.64475" lon="1.39552">
        <ele>132</ele>
        <time>2025-06-18T16:33:28Z</time>
      </trkpt>
      <trkpt lat="43.64475" lon="1.39552">
        <ele>132</ele>
        <time>2025-06-18T16:33:29Z</time>
      </trkpt>
      <trkpt lat="43.64475" lon="1.39552">
        <ele>132</ele>
        <time>2025-06-18T16:33:30Z</time>
      </trkpt>
      <trkpt lat="43.64474" lon="1.3955">
        <ele>132</ele>
        <time>2025-06-18T16:33:31Z</time>
      </trkpt>
      <trkpt lat="43.64474" lon="1.3955">
        <ele>132</ele>
        <time>2025-06-18T16:33:32Z</time>
      </trkpt>
      <trkpt lat="43.64474" lon="1.3955">
        <ele>132</ele>
        <time>2025-06-18T16:33:33Z</time>
      </trkpt>
      <trkpt lat="43.64474" lon="1.3955">
        <ele>132</ele>
        <time>2025-06-18T16:33:34Z</time>
      </trkpt>
      <trkpt lat="43.64473" lon="1.39546">
        <ele>131</ele>
        <time>2025-06-18T16:33:35Z</time>
      </trkpt>
      <trkpt lat="43.64473" lon="1.39546">
        <ele>131</ele>
        <time>2025-06-18T16:33:36Z</time>
      </trkpt>
      <trkpt lat="43.64473" lon="1.39546">
        <ele>130</ele>
        <time>2025-06-18T16:33:37Z</time>
      </trkpt>
      <trkpt lat="43.64473" lon="1.39546">
        <ele>130</ele>
        <time>2025-06-18T16:33:38Z</time>
      </trkpt>
      <trkpt lat="43.64473" lon="1.39546">
        <ele>130</ele>
        <time>2025-06-18T16:33:39Z</time>
      </trkpt>
      <trkpt lat="43.64473" lon="1.39546">
        <ele>130</ele>
        <time>2025-06-18T16:33:40Z</time>
      </trkpt>
      <trkpt lat="43.64473" lon="1.39546">
        <ele>129</ele>
        <time>2025-06-18T16:33:41Z</time>
      </trkpt>
      <trkpt lat="43.64473" lon="1.39546">
        <ele>130</ele>
        <time>2025-06-18T16:33:42Z</time>
      </trkpt>
      <trkpt lat="43.64473" lon="1.39546">
        <ele>130</ele>
        <time>2025-06-18T16:33:43Z</time>
      </trkpt>
      <trkpt lat="43.64473" lon="1.39546">
        <ele>131</ele>
        <time>2025-06-18T16:33:44Z</time>
      </trkpt>
      <trkpt lat="43.64473" lon="1.39546">
        <ele>131</ele>
        <time>2025-06-18T16:33:45Z</time>
      </trkpt>
      <trkpt lat="43.64473" lon="1.39546">
        <ele>131</ele>
        <time>2025-06-18T16:33:46Z</time>
      </trkpt>
      <trkpt lat="43.64473" lon="1.39546">
        <ele>131</ele>
        <time>2025-06-18T16:33:47Z</time>
      </trkpt>
      <trkpt lat="43.64473" lon="1.39546">
        <ele>131</ele>
        <time>2025-06-18T16:33:48Z</time>
      </trkpt>
      <trkpt lat="43.64473" lon="1.39546">
        <ele>131</ele>
        <time>2025-06-18T16:33:49Z</time>
      </trkpt>
      <trkpt lat="43.64473" lon="1.39549">
        <ele>131</ele>
        <time>2025-06-18T16:33:50Z</time>
      </trkpt>
      <trkpt lat="43.64473" lon="1.39549">
        <ele>131</ele>
        <time>2025-06-18T16:33:51Z</time>
      </trkpt>
      <trkpt lat="43.64473" lon="1.39549">
        <ele>131</ele>
        <time>2025-06-18T16:33:52Z</time>
      </trkpt>
      <trkpt lat="43.64474" lon="1.39552">
        <ele>131</ele>
        <time>2025-06-18T16:33:53Z</time>
      </trkpt>
      <trkpt lat="43.64474" lon="1.39552">
        <ele>132</ele>
        <time>2025-06-18T16:33:54Z</time>
      </trkpt>
      <trkpt lat="43.64474" lon="1.39552">
        <ele>132</ele>
        <time>2025-06-18T16:33:55Z</time>
      </trkpt>
      <trkpt lat="43.64474" lon="1.39552">
        <ele>132</ele>
        <time>2025-06-18T16:33:56Z</time>
      </trkpt>
      <trkpt lat="43.64474" lon="1.39552">
        <ele>132</ele>
        <time>2025-06-18T16:33:57Z</time>
      </trkpt>
      <trkpt lat="43.64474" lon="1.39552">
        <ele>132</ele>
        <time>2025-06-18T16:33:58Z</time>
      </trkpt>
      <trkpt lat="43.64473" lon="1.39549">
        <ele>132</ele>
        <time>2025-06-18T16:33:59Z</time>
      </trkpt>
      <trkpt lat="43.64473" lon="1.39549">
        <ele>132</ele>
        <time>2025-06-18T16:34:00Z</time>
      </trkpt>
      <trkpt lat="43.64473" lon="1.39549">
        <ele>132</ele>
        <time>2025-06-18T16:34:01Z</time>
      </trkpt>
      <trkpt lat="43.64472" lon="1.39546">
        <ele>131</ele>
        <time>2025-06-18T16:34:02Z</time>
      </trkpt>
      <trkpt lat="43.64472" lon="1.39546">
        <ele>131</ele>
        <time>2025-06-18T16:34:03Z</time>
      </trkpt>
      <trkpt lat="43.64472" lon="1.39546">
        <ele>131</ele>
        <time>2025-06-18T16:34:04Z</time>
      </trkpt>
      <trkpt lat="43.64472" lon="1.39546">
        <ele>130</ele>
        <time>2025-06-18T16:34:05Z</time>
      </trkpt>
      <trkpt lat="43.64472" lon="1.39546">
        <ele>130</ele>
        <time>2025-06-18T16:34:06Z</time>
      </trkpt>
      <trkpt lat="43.64472" lon="1.39546">
        <ele>130</ele>
        <time>2025-06-18T16:34:07Z</time>
      </trkpt>
      <trkpt lat="43.64472" lon="1.39546">
        <ele>130</ele>
        <time>2025-06-18T16:34:08Z</time>
      </trkpt>
      <trkpt lat="43.64472" lon="1.39546">
        <ele>130</ele>
        <time>2025-06-18T16:34:09Z</time>
      </trkpt>
      <trkpt lat="43.64472" lon="1.39546">
        <ele>130</ele>
        <time>2025-06-18T16:34:10Z</time>
      </trkpt>
      <trkpt lat="43.64472" lon="1.39546">
        <ele>130</ele>
        <time>2025-06-18T16:34:11Z</time>
      </trkpt>
      <trkpt lat="43.64472" lon="1.39546">
        <ele>130</ele>
        <time>2025-06-18T16:34:12Z</time>
      </trkpt>
      <trkpt lat="43.64472" lon="1.39546">
        <ele>130</ele>
        <time>2025-06-18T16:34:13Z</time>
      </trkpt>
      <trkpt lat="43.64472" lon="1.39546">
        <ele>131</ele>
        <time>2025-06-18T16:34:14Z</time>
      </trkpt>
      <trkpt lat="43.64474" lon="1.39548">
        <ele>131</ele>
        <time>2025-06-18T16:34:15Z</time>
      </trkpt>
      <trkpt lat="43.64474" lon="1.39548">
        <ele>131</ele>
        <time>2025-06-18T16:34:16Z</time>
      </trkpt>
      <trkpt lat="43.64474" lon="1.39548">
        <ele>131</ele>
        <time>2025-06-18T16:34:17Z</time>
      </trkpt>
      <trkpt lat="43.64474" lon="1.39548">
        <ele>131</ele>
        <time>2025-06-18T16:34:18Z</time>
      </trkpt>
      <trkpt lat="43.64475" lon="1.3955">
        <ele>131</ele>
        <time>2025-06-18T16:34:19Z</time>
      </trkpt>
      <trkpt lat="43.64475" lon="1.3955">
        <ele>131</ele>
        <time>2025-06-18T16:34:20Z</time>
      </trkpt>
      <trkpt lat="43.64475" lon="1.3955">
        <ele>131</ele>
        <time>2025-06-18T16:34:21Z</time>
      </trkpt>
      <trkpt lat="43.64476" lon="1.39552">
        <ele>131</ele>
        <time>2025-06-18T16:34:22Z</time>
      </trkpt>
      <trkpt lat="43.64476" lon="1.39552">
        <ele>132</ele>
        <time>2025-06-18T16:34:23Z</time>
      </trkpt>
      <trkpt lat="43.64476" lon="1.39552">
        <ele>132</ele>
        <time>2025-06-18T16:34:24Z</time>
      </trkpt>
      <trkpt lat="43.64476" lon="1.39552">
        <ele>132</ele>
        <time>2025-06-18T16:34:25Z</time>
      </trkpt>
      <trkpt lat="43.64476" lon="1.39552">
        <ele>132</ele>
        <time>2025-06-18T16:34:26Z</time>
      </trkpt>
      <trkpt lat="43.64475" lon="1.3955">
        <ele>132</ele>
        <time>2025-06-18T16:34:27Z</time>
      </trkpt>
      <trkpt lat="43.64475" lon="1.3955">
        <ele>132</ele>
        <time>2025-06-18T16:34:28Z</time>
      </trkpt>
      <trkpt lat="43.64475" lon="1.3955">
        <ele>132</ele>
        <time>2025-06-18T16:34:29Z</time>
      </trkpt>
      <trkpt lat="43.64475" lon="1.3955">
        <ele>131</ele>
        <time>2025-06-18T16:34:30Z</time>
      </trkpt>
      <trkpt lat="43.64474" lon="1.39547">
        <ele>131</ele>
        <time>2025-06-18T16:34:31Z</time>
      </trkpt>
      <trkpt lat="43.64473" lon="1.39545">
        <ele>130</ele>
        <time>2025-06-18T16:34:32Z</time>
      </trkpt>
      <trkpt lat="43.64473" lon="1.39545">
        <ele>130</ele>
        <time>2025-06-18T16:34:33Z</time>
      </trkpt>
      <trkpt lat="43.64473" lon="1.39545">
        <ele>130</ele>
        <time>2025-06-18T16:34:34Z</time>
      </trkpt>
      <trkpt lat="43.64473" lon="1.39545">
        <ele>130</ele>
        <time>2025-06-18T16:34:35Z</time>
      </trkpt>
      <trkpt lat="43.64473" lon="1.39545">
        <ele>130</ele>
        <time>2025-06-18T16:34:36Z</time>
      </trkpt>
      <trkpt lat="43.64473" lon="1.39545">
        <ele>130</ele>
        <time>2025-06-18T16:34:37Z</time>
      </trkpt>
      <trkpt lat="43.64473" lon="1.39545">
        <ele>130</ele>
        <time>2025-06-18T16:34:38Z</time>
      </trkpt>
      <trkpt lat="43.64473" lon="1.39545">
        <ele>130</ele>
        <time>2025-06-18T16:34:39Z</time>
      </trkpt>
      <trkpt lat="43.64473" lon="1.39545">
        <ele>130</ele>
        <time>2025-06-18T16:34:40Z</time>
      </trkpt>
      <trkpt lat="43.64473" lon="1.39545">
        <ele>130</ele>
        <time>2025-06-18T16:34:41Z</time>
      </trkpt>
      <trkpt lat="43.64473" lon="1.39545">
        <ele>130</ele>
        <time>2025-06-18T16:34:42Z</time>
      </trkpt>
      <trkpt lat="43.64473" lon="1.39545">
        <ele>130</ele>
        <time>2025-06-18T16:34:43Z</time>
      </trkpt>
      <trkpt lat="43.64473" lon="1.39545">
        <ele>130</ele>
        <time>2025-06-18T16:34:44Z</time>
      </trkpt>
      <trkpt lat="43.64473" lon="1.39548">
        <ele>130</ele>
        <time>2025-06-18T16:34:45Z</time>
      </trkpt>
      <trkpt lat="43.64473" lon="1.39548">
        <ele>130</ele>
        <time>2025-06-18T16:34:46Z</time>
      </trkpt>
      <trkpt lat="43.64474" lon="1.3955">
        <ele>130</ele>
        <time>2025-06-18T16:34:47Z</time>
      </trkpt>
      <trkpt lat="43.64474" lon="1.3955">
        <ele>130</ele>
        <time>2025-06-18T16:34:48Z</time>
      </trkpt>
      <trkpt lat="43.64474" lon="1.3955">
        <ele>130</ele>
        <time>2025-06-18T16:34:49Z</time>
      </trkpt>
      <trkpt lat="43.64475" lon="1.39553">
        <ele>130</ele>
        <time>2025-06-18T16:34:50Z</time>
      </trkpt>
      <trkpt lat="43.64475" lon="1.39553">
        <ele>130</ele>
        <time>2025-06-18T16:34:51Z</time>
      </trkpt>
      <trkpt lat="43.64475" lon="1.39553">
        <ele>131</ele>
        <time>2025-06-18T16:34:52Z</time>
      </trkpt>
      <trkpt lat="43.64475" lon="1.39553">
        <ele>131</ele>
        <time>2025-06-18T16:34:53Z</time>
      </trkpt>
      <trkpt lat="43.64441" lon="1.39224">
        <ele>132</ele>
        <time>2025-06-18T16:39:00Z</time>
      </trkpt>
      <trkpt lat="43.64441" lon="1.39224">
        <ele>132</ele>
        <time>2025-06-18T16:39:01Z</time>
      </trkpt>
      <trkpt lat="43.64438" lon="1.39221">
        <ele>132</ele>
        <time>2025-06-18T16:39:02Z</time>
      </trkpt>
      <trkpt lat="43.64437" lon="1.39219">
        <ele>132</ele>
        <time>2025-06-18T16:39:03Z</time>
      </trkpt>
      <trkpt lat="43.64434" lon="1.39217">
        <ele>132</ele>
        <time>2025-06-18T16:39:04Z</time>
      </trkpt>
      <trkpt lat="43.64432" lon="1.39214">
        <ele>132</ele>
        <time>2025-06-18T16:39:05Z</time>
      </trkpt>
      <trkpt lat="43.6443" lon="1.39212">
        <ele>132</ele>
        <time>2025-06-18T16:39:06Z</time>
      </trkpt>
      <trkpt lat="43.64428" lon="1.39209">
        <ele>133</ele>
        <time>2025-06-18T16:39:07Z</time>
      </trkpt>
      <trkpt lat="43.64428" lon="1.39209">
        <ele>133</ele>
        <time>2025-06-18T16:39:08Z</time>
      </trkpt>
      <trkpt lat="43.64424" lon="1.39204">
        <ele>134</ele>
        <time>2025-06-18T16:39:09Z</time>
      </trkpt>
      <trkpt lat="43.64423" lon="1.39202">
        <ele>134</ele>
        <time>2025-06-18T16:39:10Z</time>
      </trkpt>
      <trkpt lat="43.64421" lon="1.392">
        <ele>135</ele>
        <time>2025-06-18T16:39:11Z</time>
      </trkpt>
      <trkpt lat="43.64421" lon="1.392">
        <ele>135</ele>
        <time>2025-06-18T16:39:12Z</time>
      </trkpt>
      <trkpt lat="43.64417" lon="1.39195">
        <ele>135</ele>
        <time>2025-06-18T16:39:13Z</time>
      </trkpt>
      <trkpt lat="43.64415" lon="1.39192">
        <ele>135</ele>
        <time>2025-06-18T16:39:14Z</time>
      </trkpt>
      <trkpt lat="43.64414" lon="1.39189">
        <ele>136</ele>
        <time>2025-06-18T16:39:15Z</time>
      </trkpt>
      <trkpt lat="43.64412" lon="1.39186">
        <ele>136</ele>
        <time>2025-06-18T16:39:16Z</time>
      </trkpt>
      <trkpt lat="43.64411" lon="1.39182">
        <ele>137</ele>
        <time>2025-06-18T16:39:17Z</time>
      </trkpt>
      <trkpt lat="43.6441" lon="1.39178">
        <ele>137</ele>
        <time>2025-06-18T16:39:18Z</time>
      </trkpt>
      <trkpt lat="43.6441" lon="1.39178">
        <ele>137</ele>
        <time>2025-06-18T16:39:19Z</time>
      </trkpt>
      <trkpt lat="43.6441" lon="1.39171">
        <ele>137</ele>
        <time>2025-06-18T16:39:20Z</time>
      </trkpt>
      <trkpt lat="43.64409" lon="1.39168">
        <ele>137</ele>
        <time>2025-06-18T16:39:21Z</time>
      </trkpt>
      <trkpt lat="43.64409" lon="1.39164">
        <ele>138</ele>
        <time>2025-06-18T16:39:22Z</time>
      </trkpt>
      <trkpt lat="43.6441" lon="1.39161">
        <ele>138</ele>
        <time>2025-06-18T16:39:23Z</time>
      </trkpt>
      <trkpt lat="43.6441" lon="1.39158">
        <ele>139</ele>
        <time>2025-06-18T16:39:24Z</time>
      </trkpt>
      <trkpt lat="43.64411" lon="1.39155">
        <ele>139</ele>
        <time>2025-06-18T16:39:25Z</time>
      </trkpt>
      <trkpt lat="43.64411" lon="1.39152">
        <ele>139</ele>
        <time>2025-06-18T16:39:26Z</time>
      </trkpt>
      <trkpt lat="43.64412" lon="1.39149">
        <ele>139</ele>
        <time>2025-06-18T16:39:27Z</time>
      </trkpt>
      <trkpt lat="43.64412" lon="1.39149">
        <ele>140</ele>
        <time>2025-06-18T16:39:28Z</time>
      </trkpt>
      <trkpt lat="43.64412" lon="1.39143">
        <ele>140</ele>
        <time>2025-06-18T16:39:29Z</time>
      </trkpt>
      <trkpt lat="43.64412" lon="1.39143">
        <ele>140</ele>
        <time>2025-06-18T16:39:30Z</time>
      </trkpt>
      <trkpt lat="43.64414" lon="1.39137">
        <ele>140</ele>
        <time>2025-06-18T16:39:31Z</time>
      </trkpt>
      <trkpt lat="43.64414" lon="1.39137">
        <ele>141</ele>
        <time>2025-06-18T16:39:32Z</time>
      </trkpt>
      <trkpt lat="43.64416" lon="1.39131">
        <ele>141</ele>
        <time>2025-06-18T16:39:33Z</time>
      </trkpt>
      <trkpt lat="43.64417" lon="1.39128">
        <ele>141</ele>
        <time>2025-06-18T16:39:34Z</time>
      </trkpt>
      <trkpt lat="43.64417" lon="1.39128">
        <ele>141</ele>
        <time>2025-06-18T16:39:35Z</time>
      </trkpt>
      <trkpt lat="43.64418" lon="1.39125">
        <ele>141</ele>
        <time>2025-06-18T16:39:36Z</time>
      </trkpt>
      <trkpt lat="43.6442" lon="1.39123">
        <ele>141</ele>
        <time>2025-06-18T16:39:37Z</time>
      </trkpt>
      <trkpt lat="43.6442" lon="1.3912">
        <ele>142</ele>
        <time>2025-06-18T16:39:38Z</time>
      </trkpt>
      <trkpt lat="43.6442" lon="1.3912">
        <ele>142</ele>
        <time>2025-06-18T16:39:39Z</time>
      </trkpt>
      <trkpt lat="43.64419" lon="1.39122">
        <ele>142</ele>
        <time>2025-06-18T16:39:40Z</time>
      </trkpt>
      <trkpt lat="43.64419" lon="1.39122">
        <ele>142</ele>
        <time>2025-06-18T16:39:41Z</time>
      </trkpt>
      <trkpt lat="43.64417" lon="1.39126">
        <ele>142</ele>
        <time>2025-06-18T16:39:42Z</time>
      </trkpt>
      <trkpt lat="43.64417" lon="1.39126">
        <ele>142</ele>
        <time>2025-06-18T16:39:43Z</time>
      </trkpt>
      <trkpt lat="43.64417" lon="1.39126">
        <ele>142</ele>
        <time>2025-06-18T16:39:44Z</time>
      </trkpt>
      <trkpt lat="43.64417" lon="1.39131">
        <ele>142</ele>
        <time>2025-06-18T16:39:45Z</time>
      </trkpt>
      <trkpt lat="43.64417" lon="1.39131">
        <ele>142</ele>
        <time>2025-06-18T16:39:46Z</time>
      </trkpt>
      <trkpt lat="43.64415" lon="1.39138">
        <ele>142</ele>
        <time>2025-06-18T16:39:47Z</time>
      </trkpt>
      <trkpt lat="43.64414" lon="1.3914">
        <ele>141</ele>
        <time>2025-06-18T16:39:48Z</time>
      </trkpt>
      <trkpt lat="43.64414" lon="1.39143">
        <ele>141</ele>
        <time>2025-06-18T16:39:49Z</time>
      </trkpt>
      <trkpt lat="43.64413" lon="1.39146">
        <ele>140</ele>
        <time>2025-06-18T16:39:50Z</time>
      </trkpt>
      <trkpt lat="43.64413" lon="1.39148">
        <ele>140</ele>
        <time>2025-06-18T16:39:51Z</time>
      </trkpt>
      <trkpt lat="43.64413" lon="1.39151">
        <ele>140</ele>
        <time>2025-06-18T16:39:52Z</time>
      </trkpt>
      <trkpt lat="43.64413" lon="1.39151">
        <ele>140</ele>
        <time>2025-06-18T16:39:53Z</time>
      </trkpt>
      <trkpt lat="43.64412" lon="1.39157">
        <ele>140</ele>
        <time>2025-06-18T16:39:54Z</time>
      </trkpt>
      <trkpt lat="43.64412" lon="1.3916">
        <ele>140</ele>
        <time>2025-06-18T16:39:55Z</time>
      </trkpt>
      <trkpt lat="43.64412" lon="1.39163">
        <ele>140</ele>
        <time>2025-06-18T16:39:56Z</time>
      </trkpt>
      <trkpt lat="43.64412" lon="1.39165">
        <ele>140</ele>
        <time>2025-06-18T16:39:57Z</time>
      </trkpt>
      <trkpt lat="43.64412" lon="1.39165">
        <ele>140</ele>
        <time>2025-06-18T16:39:58Z</time>
      </trkpt>
      <trkpt lat="43.64412" lon="1.39171">
        <ele>140</ele>
        <time>2025-06-18T16:39:59Z</time>
      </trkpt>
      <trkpt lat="43.64413" lon="1.39174">
        <ele>139</ele>
        <time>2025-06-18T16:40:00Z</time>
      </trkpt>
      <trkpt lat="43.64413" lon="1.39176">
        <ele>139</ele>
        <time>2025-06-18T16:40:01Z</time>
      </trkpt>
      <trkpt lat="43.64413" lon="1.39179">
        <ele>138</ele>
        <time>2025-06-18T16:40:02Z</time>
      </trkpt>
      <trkpt lat="43.64413" lon="1.39179">
        <ele>138</ele>
        <time>2025-06-18T16:40:03Z</time>
      </trkpt>
      <trkpt lat="43.64415" lon="1.39185">
        <ele>138</ele>
        <time>2025-06-18T16:40:04Z</time>
      </trkpt>
      <trkpt lat="43.64416" lon="1.39187">
        <ele>138</ele>
        <time>2025-06-18T16:40:05Z</time>
      </trkpt>
      <trkpt lat="43.64418" lon="1.3919">
        <ele>137</ele>
        <time>2025-06-18T16:40:06Z</time>
      </trkpt>
      <trkpt lat="43.64419" lon="1.39192">
        <ele>137</ele>
        <time>2025-06-18T16:40:07Z</time>
      </trkpt>
      <trkpt lat="43.64421" lon="1.39194">
        <ele>137</ele>
        <time>2025-06-18T16:40:08Z</time>
      </trkpt>
      <trkpt lat="43.64421" lon="1.39194">
        <ele>137</ele>
        <time>2025-06-18T16:40:09Z</time>
      </trkpt>
      <trkpt lat="43.64423" lon="1.39199">
        <ele>137</ele>
        <time>2025-06-18T16:40:10Z</time>
      </trkpt>
      <trkpt lat="43.64425" lon="1.39201">
        <ele>137</ele>
        <time>2025-06-18T16:40:11Z</time>
      </trkpt>
      <trkpt lat="43.64427" lon="1.39202">
        <ele>137</ele>
        <time>2025-06-18T16:40:12Z</time>
      </trkpt>
      <trkpt lat="43.64429" lon="1.39204">
        <ele>137</ele>
        <time>2025-06-18T16:40:13Z</time>
      </trkpt>
      <trkpt lat="43.64431" lon="1.39206">
        <ele>136</ele>
        <time>2025-06-18T16:40:14Z</time>
      </trkpt>
      <trkpt lat="43.64432" lon="1.39208">
        <ele>136</ele>
        <time>2025-06-18T16:40:15Z</time>
      </trkpt>
      <trkpt lat="43.64434" lon="1.3921">
        <ele>136</ele>
        <time>2025-06-18T16:40:16Z</time>
      </trkpt>
      <trkpt lat="43.64434" lon="1.3921">
        <ele>136</ele>
        <time>2025-06-18T16:40:17Z</time>
      </trkpt>
      <trkpt lat="43.64437" lon="1.39214">
        <ele>136</ele>
        <time>2025-06-18T16:40:18Z</time>
      </trkpt>
      <trkpt lat="43.64437" lon="1.39214">
        <ele>135</ele>
        <time>2025-06-18T16:40:19Z</time>
      </trkpt>
      <trkpt lat="43.64441" lon="1.39219">
        <ele>135</ele>
        <time>2025-06-18T16:40:20Z</time>
      </trkpt>
      <trkpt lat="43.64442" lon="1.39221">
        <ele>134</ele>
        <time>2025-06-18T16:40:21Z</time>
      </trkpt>
      <trkpt lat="43.64442" lon="1.39221">
        <ele>134</ele>
        <time>2025-06-18T16:40:22Z</time>
      </trkpt>
      <trkpt lat="43.64444" lon="1.39223">
        <ele>134</ele>
        <time>2025-06-18T16:40:23Z</time>
      </trkpt>
      <trkpt lat="43.64442" lon="1.39222">
        <ele>134</ele>
        <time>2025-06-18T16:40:24Z</time>
      </trkpt>
      <trkpt lat="43.6444" lon="1.3922">
        <ele>133</ele>
        <time>2025-06-18T16:40:25Z</time>
      </trkpt>
      <trkpt lat="43.64438" lon="1.39219">
        <ele>133</ele>
        <time>2025-06-18T16:40:26Z</time>
      </trkpt>
      <trkpt lat="43.64435" lon="1.39217">
        <ele>132</ele>
        <time>2025-06-18T16:40:27Z</time>
      </trkpt>
      <trkpt lat="43.64433" lon="1.39215">
        <ele>132</ele>
        <time>2025-06-18T16:40:28Z</time>
      </trkpt>
      <trkpt lat="43.64433" lon="1.39215">
        <ele>133</ele>
        <time>2025-06-18T16:40:29Z</time>
      </trkpt>
      <trkpt lat="43.64431" lon="1.39213">
        <ele>133</ele>
        <time>2025-06-18T16:40:30Z</time>
      </trkpt>
      <trkpt lat="43.64427" lon="1.39208">
        <ele>133</ele>
        <time>2025-06-18T16:40:31Z</time>
      </trkpt>
      <trkpt lat="43.64427" lon="1.39208">
        <ele>134</ele>
        <time>2025-06-18T16:40:32Z</time>
      </trkpt>
      <trkpt lat="43.64423" lon="1.39203">
        <ele>134</ele>
        <time>2025-06-18T16:40:33Z</time>
      </trkpt>
      <trkpt lat="43.64421" lon="1.39201">
        <ele>134</ele>
        <time>2025-06-18T16:40:34Z</time>
      </trkpt>
      <trkpt lat="43.64421" lon="1.39201">
        <ele>134</ele>
        <time>2025-06-18T16:40:35Z</time>
      </trkpt>
      <trkpt lat="43.64417" lon="1.39196">
        <ele>135</ele>
        <time>2025-06-18T16:40:36Z</time>
      </trkpt>
      <trkpt lat="43.64415" lon="1.39193">
        <ele>135</ele>
        <time>2025-06-18T16:40:37Z</time>
      </trkpt>
      <trkpt lat="43.64414" lon="1.3919">
        <ele>136</ele>
        <time>2025-06-18T16:40:38Z</time>
      </trkpt>
      <trkpt lat="43.64412" lon="1.39187">
        <ele>136</ele>
        <time>2025-06-18T16:40:39Z</time>
      </trkpt>
      <trkpt lat="43.64411" lon="1.39183">
        <ele>136</ele>
        <time>2025-06-18T16:40:40Z</time>
      </trkpt>
      <trkpt lat="43.64411" lon="1.39183">
        <ele>136</ele>
        <time>2025-06-18T16:40:41Z</time>
      </trkpt>
      <trkpt lat="43.6441" lon="1.39176">
        <ele>136</ele>
        <time>2025-06-18T16:40:42Z</time>
      </trkpt>
      <trkpt lat="43.64409" lon="1.39173">
        <ele>137</ele>
        <time>2025-06-18T16:40:43Z</time>
      </trkpt>
      <trkpt lat="43.64409" lon="1.39169">
        <ele>138</ele>
        <time>2025-06-18T16:40:44Z</time>
      </trkpt>
      <trkpt lat="43.64409" lon="1.39166">
        <ele>138</ele>
        <time>2025-06-18T16:40:45Z</time>
      </trkpt>
      <trkpt lat="43.64409" lon="1.39162">
        <ele>138</ele>
        <time>2025-06-18T16:40:46Z</time>
      </trkpt>
      <trkpt lat="43.6441" lon="1.39158">
        <ele>138</ele>
        <time>2025-06-18T16:40:47Z</time>
      </trkpt>
      <trkpt lat="43.6441" lon="1.39158">
        <ele>139</ele>
        <time>2025-06-18T16:40:48Z</time>
      </trkpt>
      <trkpt lat="43.64411" lon="1.39155">
        <ele>139</ele>
        <time>2025-06-18T16:40:49Z</time>
      </trkpt>
      <trkpt lat="43.64412" lon="1.39149">
        <ele>139</ele>
        <time>2025-06-18T16:40:50Z</time>
      </trkpt>
      <trkpt lat="43.64412" lon="1.39149">
        <ele>139</ele>
        <time>2025-06-18T16:40:51Z</time>
      </trkpt>
      <trkpt lat="43.64412" lon="1.39143">
        <ele>140</ele>
        <time>2025-06-18T16:40:52Z</time>
      </trkpt>
      <trkpt lat="43.64412" lon="1.39143">
        <ele>140</ele>
        <time>2025-06-18T16:40:53Z</time>
      </trkpt>
      <trkpt lat="43.64413" lon="1.39136">
        <ele>140</ele>
        <time>2025-06-18T16:40:54Z</time>
      </trkpt>
      <trkpt lat="43.64414" lon="1.39132">
        <ele>140</ele>
        <time>2025-06-18T16:40:55Z</time>
      </trkpt>
      <trkpt lat="43.64415" lon="1.39129">
        <ele>140</ele>
        <time>2025-06-18T16:40:56Z</time>
      </trkpt>
      <trkpt lat="43.64416" lon="1.39126">
        <ele>141</ele>
        <time>2025-06-18T16:40:57Z</time>
      </trkpt>
      <trkpt lat="43.64416" lon="1.39126">
        <ele>141</ele>
        <time>2025-06-18T16:40:58Z</time>
      </trkpt>
      <trkpt lat="43.64417" lon="1.39124">
        <ele>142</ele>
        <time>2025-06-18T16:40:59Z</time>
      </trkpt>
      <trkpt lat="43.64418" lon="1.39121">
        <ele>142</ele>
        <time>2025-06-18T16:41:00Z</time>
      </trkpt>
      <trkpt lat="43.64419" lon="1.39119">
        <ele>142</ele>
        <time>2025-06-18T16:41:01Z</time>
      </trkpt>
      <trkpt lat="43.64419" lon="1.39119">
        <ele>142</ele>
        <time>2025-06-18T16:41:02Z</time>
      </trkpt>
      <trkpt lat="43.64418" lon="1.3912">
        <ele>142</ele>
        <time>2025-06-18T16:41:03Z</time>
      </trkpt>
      <trkpt lat="43.64417" lon="1.39123">
        <ele>142</ele>
        <time>2025-06-18T16:41:04Z</time>
      </trkpt>
      <trkpt lat="43.64417" lon="1.39123">
        <ele>142</ele>
        <time>2025-06-18T16:41:05Z</time>
      </trkpt>
      <trkpt lat="43.64416" lon="1.39129">
        <ele>143</ele>
        <time>2025-06-18T16:41:06Z</time>
      </trkpt>
      <trkpt lat="43.64415" lon="1.39132">
        <ele>143</ele>
        <time>2025-06-18T16:41:07Z</time>
      </trkpt>
      <trkpt lat="43.64414" lon="1.39136">
        <ele>143</ele>
        <time>2025-06-18T16:41:08Z</time>
      </trkpt>
      <trkpt lat="43.64413" lon="1.39139">
        <ele>142</ele>
        <time>2025-06-18T16:41:09Z</time>
      </trkpt>
      <trkpt lat="43.64413" lon="1.39139">
        <ele>142</ele>
        <time>2025-06-18T16:41:10Z</time>
      </trkpt>
      <trkpt lat="43.64412" lon="1.39145">
        <ele>142</ele>
        <time>2025-06-18T16:41:11Z</time>
      </trkpt>
      <trkpt lat="43.64411" lon="1.39148">
        <ele>141</ele>
        <time>2025-06-18T16:41:12Z</time>
      </trkpt>
      <trkpt lat="43.64411" lon="1.39151">
        <ele>141</ele>
        <time>2025-06-18T16:41:13Z</time>
      </trkpt>
      <trkpt lat="43.64411" lon="1.39154">
        <ele>141</ele>
        <time>2025-06-18T16:41:14Z</time>
      </trkpt>
      <trkpt lat="43.6441" lon="1.39157">
        <ele>140</ele>
        <time>2025-06-18T16:41:15Z</time>
      </trkpt>
      <trkpt lat="43.6441" lon="1.3916">
        <ele>140</ele>
        <time>2025-06-18T16:41:16Z</time>
      </trkpt>
      <trkpt lat="43.6441" lon="1.39164">
        <ele>140</ele>
        <time>2025-06-18T16:41:17Z</time>
      </trkpt>
      <trkpt lat="43.6441" lon="1.39167">
        <ele>140</ele>
        <time>2025-06-18T16:41:18Z</time>
      </trkpt>
      <trkpt lat="43.6441" lon="1.39167">
        <ele>140</ele>
        <time>2025-06-18T16:41:19Z</time>
      </trkpt>
      <trkpt lat="43.64411" lon="1.39174">
        <ele>140</ele>
        <time>2025-06-18T16:41:20Z</time>
      </trkpt>
      <trkpt lat="43.64411" lon="1.39174">
        <ele>140</ele>
        <time>2025-06-18T16:41:21Z</time>
      </trkpt>
      <trkpt lat="43.64411" lon="1.39179">
        <ele>140</ele>
        <time>2025-06-18T16:41:22Z</time>
      </trkpt>
      <trkpt lat="43.64412" lon="1.39182">
        <ele>139</ele>
        <time>2025-06-18T16:41:23Z</time>
      </trkpt>
      <trkpt lat="43.64413" lon="1.39185">
        <ele>138</ele>
        <time>2025-06-18T16:41:24Z</time>
      </trkpt>
      <trkpt lat="43.64413" lon="1.39185">
        <ele>138</ele>
        <time>2025-06-18T16:41:25Z</time>
      </trkpt>
      <trkpt lat="43.64416" lon="1.3919">
        <ele>138</ele>
        <time>2025-06-18T16:41:26Z</time>
      </trkpt>
      <trkpt lat="43.64416" lon="1.3919">
        <ele>138</ele>
        <time>2025-06-18T16:41:27Z</time>
      </trkpt>
      <trkpt lat="43.64417" lon="1.39193">
        <ele>138</ele>
        <time>2025-06-18T16:41:28Z</time>
      </trkpt>
      <trkpt lat="43.64419" lon="1.39195">
        <ele>137</ele>
        <time>2025-06-18T16:41:29Z</time>
      </trkpt>
      <trkpt lat="43.64421" lon="1.392">
        <ele>137</ele>
        <time>2025-06-18T16:41:30Z</time>
      </trkpt>
      <trkpt lat="43.64421" lon="1.392">
        <ele>137</ele>
        <time>2025-06-18T16:41:31Z</time>
      </trkpt>
      <trkpt lat="43.64425" lon="1.39203">
        <ele>136</ele>
        <time>2025-06-18T16:41:32Z</time>
      </trkpt>
      <trkpt lat="43.64427" lon="1.39205">
        <ele>137</ele>
        <time>2025-06-18T16:41:33Z</time>
      </trkpt>
      <trkpt lat="43.64429" lon="1.39207">
        <ele>137</ele>
        <time>2025-06-18T16:41:34Z</time>
      </trkpt>
      <trkpt lat="43.64431" lon="1.39208">
        <ele>137</ele>
        <time>2025-06-18T16:41:35Z</time>
      </trkpt>
      <trkpt lat="43.64433" lon="1.39211">
        <ele>137</ele>
        <time>2025-06-18T16:41:36Z</time>
      </trkpt>
      <trkpt lat="43.64433" lon="1.39211">
        <ele>136</ele>
        <time>2025-06-18T16:41:37Z</time>
      </trkpt>
      <trkpt lat="43.64435" lon="1.39213">
        <ele>135</ele>
        <time>2025-06-18T16:41:38Z</time>
      </trkpt>
      <trkpt lat="43.64436" lon="1.39216">
        <ele>134</ele>
        <time>2025-06-18T16:41:39Z</time>
      </trkpt>
      <trkpt lat="43.64438" lon="1.39218">
        <ele>134</ele>
        <time>2025-06-18T16:41:40Z</time>
      </trkpt>
      <trkpt lat="43.64442" lon="1.39223">
        <ele>134</ele>
        <time>2025-06-18T16:41:41Z</time>
      </trkpt>
      <trkpt lat="43.64442" lon="1.39223">
        <ele>134</ele>
        <time>2025-06-18T16:41:42Z</time>
      </trkpt>
      <trkpt lat="43.64442" lon="1.39223">
        <ele>134</ele>
        <time>2025-06-18T16:41:43Z</time>
      </trkpt>
      <trkpt lat="43.6444" lon="1.39222">
        <ele>133</ele>
        <time>2025-06-18T16:41:44Z</time>
      </trkpt>
      <trkpt lat="43.6444" lon="1.39222">
        <ele>132</ele>
        <time>2025-06-18T16:41:45Z</time>
      </trkpt>
      <trkpt lat="43.64435" lon="1.39217">
        <ele>132</ele>
        <time>2025-06-18T16:41:46Z</time>
      </trkpt>
      <trkpt lat="43.64435" lon="1.39217">
        <ele>133</ele>
        <time>2025-06-18T16:41:47Z</time>
      </trkpt>
      <trkpt lat="43.64431" lon="1.39212">
        <ele>133</ele>
        <time>2025-06-18T16:41:48Z</time>
      </trkpt>
      <trkpt lat="43.64429" lon="1.3921">
        <ele>133</ele>
        <time>2025-06-18T16:41:49Z</time>
      </trkpt>
      <trkpt lat="43.64427" lon="1.39208">
        <ele>133</ele>
        <time>2025-06-18T16:41:50Z</time>
      </trkpt>
      <trkpt lat="43.64426" lon="1.39205">
        <ele>134</ele>
        <time>2025-06-18T16:41:51Z</time>
      </trkpt>
      <trkpt lat="43.64423" lon="1.39203">
        <ele>134</ele>
        <time>2025-06-18T16:41:52Z</time>
      </trkpt>
      <trkpt lat="43.64421" lon="1.39201">
        <ele>134</ele>
        <time>2025-06-18T16:41:53Z</time>
      </trkpt>
      <trkpt lat="43.64419" lon="1.39198">
        <ele>134</ele>
        <time>2025-06-18T16:41:54Z</time>
      </trkpt>
      <trkpt lat="43.64419" lon="1.39198">
        <ele>135</ele>
        <time>2025-06-18T16:41:55Z</time>
      </trkpt>
      <trkpt lat="43.64415" lon="1.39193">
        <ele>135</ele>
        <time>2025-06-18T16:41:56Z</time>
      </trkpt>
      <trkpt lat="43.64415" lon="1.39193">
        <ele>136</ele>
        <time>2025-06-18T16:41:57Z</time>
      </trkpt>
      <trkpt lat="43.64412" lon="1.39187">
        <ele>136</ele>
        <time>2025-06-18T16:41:58Z</time>
      </trkpt>
      <trkpt lat="43.64412" lon="1.39187">
        <ele>136</ele>
        <time>2025-06-18T16:41:59Z</time>
      </trkpt>
      <trkpt lat="43.64411" lon="1.39179">
        <ele>137</ele>
        <time>2025-06-18T16:42:00Z</time>
      </trkpt>
      <trkpt lat="43.6441" lon="1.39175">
        <ele>137</ele>
        <time>2025-06-18T16:42:01Z</time>
      </trkpt>
      <trkpt lat="43.6441" lon="1.39171">
        <ele>137</ele>
        <time>2025-06-18T16:42:02Z</time>
      </trkpt>
      <trkpt lat="43.6441" lon="1.39168">
        <ele>138</ele>
        <time>2025-06-18T16:42:03Z</time>
      </trkpt>
      <trkpt lat="43.6441" lon="1.39168">
        <ele>138</ele>
        <time>2025-06-18T16:42:04Z</time>
      </trkpt>
      <trkpt lat="43.6441" lon="1.39161">
        <ele>139</ele>
        <time>2025-06-18T16:42:05Z</time>
      </trkpt>
      <trkpt lat="43.64411" lon="1.39158">
        <ele>139</ele>
        <time>2025-06-18T16:42:06Z</time>
      </trkpt>
      <trkpt lat="43.64411" lon="1.39154">
        <ele>139</ele>
        <time>2025-06-18T16:42:07Z</time>
      </trkpt>
      <trkpt lat="43.64411" lon="1.39154">
        <ele>139</ele>
        <time>2025-06-18T16:42:08Z</time>
      </trkpt>
      <trkpt lat="43.64412" lon="1.39147">
        <ele>139</ele>
        <time>2025-06-18T16:42:09Z</time>
      </trkpt>
      <trkpt lat="43.64412" lon="1.39147">
        <ele>140</ele>
        <time>2025-06-18T16:42:10Z</time>
      </trkpt>
      <trkpt lat="43.64413" lon="1.39144">
        <ele>140</ele>
        <time>2025-06-18T16:42:11Z</time>
      </trkpt>
      <trkpt lat="43.64413" lon="1.39141">
        <ele>140</ele>
        <time>2025-06-18T16:42:12Z</time>
      </trkpt>
      <trkpt lat="43.64415" lon="1.39134">
        <ele>140</ele>
        <time>2025-06-18T16:42:13Z</time>
      </trkpt>
      <trkpt lat="43.64415" lon="1.39134">
        <ele>140</ele>
        <time>2025-06-18T16:42:14Z</time>
      </trkpt>
      <trkpt lat="43.64417" lon="1.39127">
        <ele>140</ele>
        <time>2025-06-18T16:42:15Z</time>
      </trkpt>
      <trkpt lat="43.64417" lon="1.39127">
        <ele>141</ele>
        <time>2025-06-18T16:42:16Z</time>
      </trkpt>
      <trkpt lat="43.64419" lon="1.39121">
        <ele>141</ele>
        <time>2025-06-18T16:42:17Z</time>
      </trkpt>
      <trkpt lat="43.6442" lon="1.39119">
        <ele>142</ele>
        <time>2025-06-18T16:42:18Z</time>
      </trkpt>
      <trkpt lat="43.6442" lon="1.39119">
        <ele>142</ele>
        <time>2025-06-18T16:42:19Z</time>
      </trkpt>
      <trkpt lat="43.6442" lon="1.39119">
        <ele>142</ele>
        <time>2025-06-18T16:42:20Z</time>
      </trkpt>
      <trkpt lat="43.6442" lon="1.39119">
        <ele>143</ele>
        <time>2025-06-18T16:42:21Z</time>
      </trkpt>
      <trkpt lat="43.64418" lon="1.39123">
        <ele>143</ele>
        <time>2025-06-18T16:42:22Z</time>
      </trkpt>
      <trkpt lat="43.64418" lon="1.39123">
        <ele>143</ele>
        <time>2025-06-18T16:42:23Z</time>
      </trkpt>
      <trkpt lat="43.64416" lon="1.3913">
        <ele>143</ele>
        <time>2025-06-18T16:42:24Z</time>
      </trkpt>
      <trkpt lat="43.64416" lon="1.3913">
        <ele>143</ele>
        <time>2025-06-18T16:42:25Z</time>
      </trkpt>
      <trkpt lat="43.64415" lon="1.39136">
        <ele>143</ele>
        <time>2025-06-18T16:42:26Z</time>
      </trkpt>
      <trkpt lat="43.64414" lon="1.39139">
        <ele>143</ele>
        <time>2025-06-18T16:42:27Z</time>
      </trkpt>
      <trkpt lat="43.64414" lon="1.39139">
        <ele>143</ele>
        <time>2025-06-18T16:42:28Z</time>
      </trkpt>
      <trkpt lat="43.64413" lon="1.39146">
        <ele>142</ele>
        <time>2025-06-18T16:42:29Z</time>
      </trkpt>
      <trkpt lat="43.64413" lon="1.39146">
        <ele>141</ele>
        <time>2025-06-18T16:42:30Z</time>
      </trkpt>
      <trkpt lat="43.64412" lon="1.39152">
        <ele>141</ele>
        <time>2025-06-18T16:42:31Z</time>
      </trkpt>
      <trkpt lat="43.64411" lon="1.39155">
        <ele>141</ele>
        <time>2025-06-18T16:42:32Z</time>
      </trkpt>
      <trkpt lat="43.64411" lon="1.39155">
        <ele>140</ele>
        <time>2025-06-18T16:42:33Z</time>
      </trkpt>
      <trkpt lat="43.64412" lon="1.39162">
        <ele>139</ele>
        <time>2025-06-18T16:42:34Z</time>
      </trkpt>
      <trkpt lat="43.64412" lon="1.39165">
        <ele>139</ele>
        <time>2025-06-18T16:42:35Z</time>
      </trkpt>
      <trkpt lat="43.64412" lon="1.39169">
        <ele>139</ele>
        <time>2025-06-18T16:42:36Z</time>
      </trkpt>
      <trkpt lat="43.64412" lon="1.39172">
        <ele>139</ele>
        <time>2025-06-18T16:42:37Z</time>
      </trkpt>
      <trkpt lat="43.64412" lon="1.39176">
        <ele>139</ele>
        <time>2025-06-18T16:42:38Z</time>
      </trkpt>
      <trkpt lat="43.64412" lon="1.39179">
        <ele>139</ele>
        <time>2025-06-18T16:42:39Z</time>
      </trkpt>
      <trkpt lat="43.64412" lon="1.39179">
        <ele>139</ele>
        <time>2025-06-18T16:42:40Z</time>
      </trkpt>
      <trkpt lat="43.64414" lon="1.39186">
        <ele>139</ele>
        <time>2025-06-18T16:42:41Z</time>
      </trkpt>
      <trkpt lat="43.64415" lon="1.39188">
        <ele>139</ele>
        <time>2025-06-18T16:42:42Z</time>
      </trkpt>
      <trkpt lat="43.64417" lon="1.39191">
        <ele>139</ele>
        <time>2025-06-18T16:42:43Z</time>
      </trkpt>
      <trkpt lat="43.64418" lon="1.39194">
        <ele>138</ele>
        <time>2025-06-18T16:42:44Z</time>
      </trkpt>
      <trkpt lat="43.6442" lon="1.39196">
        <ele>138</ele>
        <time>2025-06-18T16:42:45Z</time>
      </trkpt>
      <trkpt lat="43.64422" lon="1.39198">
        <ele>138</ele>
        <time>2025-06-18T16:42:46Z</time>
      </trkpt>
      <trkpt lat="43.64422" lon="1.39198">
        <ele>137</ele>
        <time>2025-06-18T16:42:47Z</time>
      </trkpt>
      <trkpt lat="43.64423" lon="1.39201">
        <ele>137</ele>
        <time>2025-06-18T16:42:48Z</time>
      </trkpt>
      <trkpt lat="43.64425" lon="1.39203">
        <ele>137</ele>
        <time>2025-06-18T16:42:49Z</time>
      </trkpt>
      <trkpt lat="43.64426" lon="1.39204">
        <ele>137</ele>
        <time>2025-06-18T16:42:50Z</time>
      </trkpt>
      <trkpt lat="43.6443" lon="1.39208">
        <ele>136</ele>
        <time>2025-06-18T16:42:51Z</time>
      </trkpt>
      <trkpt lat="43.6443" lon="1.39208">
        <ele>136</ele>
        <time>2025-06-18T16:42:52Z</time>
      </trkpt>
      <trkpt lat="43.64433" lon="1.39214">
        <ele>135</ele>
        <time>2025-06-18T16:42:53Z</time>
      </trkpt>
      <trkpt lat="43.64433" lon="1.39214">
        <ele>135</ele>
        <time>2025-06-18T16:42:54Z</time>
      </trkpt>
      <trkpt lat="43.64437" lon="1.39217">
        <ele>135</ele>
        <time>2025-06-18T16:42:55Z</time>
      </trkpt>
      <trkpt lat="43.64437" lon="1.39217">
        <ele>135</ele>
        <time>2025-06-18T16:42:56Z</time>
      </trkpt>
      <trkpt lat="43.64441" lon="1.39222">
        <ele>135</ele>
        <time>2025-06-18T16:42:57Z</time>
      </trkpt>
      <trkpt lat="43.64441" lon="1.39222">
        <ele>134</ele>
        <time>2025-06-18T16:42:58Z</time>
      </trkpt>
      <trkpt lat="43.64441" lon="1.39222">
        <ele>133</ele>
        <time>2025-06-18T16:42:59Z</time>
      </trkpt>
      <trkpt lat="43.64441" lon="1.39222">
        <ele>133</ele>
        <time>2025-06-18T16:43:00Z</time>
      </trkpt>
      <trkpt lat="43.64441" lon="1.39222">
        <ele>133</ele>
        <time>2025-06-18T16:43:01Z</time>
      </trkpt>
      <trkpt lat="43.64436" lon="1.39217">
        <ele>132</ele>
        <time>2025-06-18T16:43:02Z</time>
      </trkpt>
      <trkpt lat="43.64436" lon="1.39217">
        <ele>133</ele>
        <time>2025-06-18T16:43:03Z</time>
      </trkpt>
      <trkpt lat="43.64432" lon="1.39212">
        <ele>133</ele>
        <time>2025-06-18T16:43:04Z</time>
      </trkpt>
      <trkpt lat="43.6443" lon="1.3921">
        <ele>133</ele>
        <time>2025-06-18T16:43:05Z</time>
      </trkpt>
      <trkpt lat="43.64428" lon="1.39208">
        <ele>133</ele>
        <time>2025-06-18T16:43:06Z</time>
      </trkpt>
      <trkpt lat="43.64426" lon="1.39206">
        <ele>133</ele>
        <time>2025-06-18T16:43:07Z</time>
      </trkpt>
      <trkpt lat="43.64426" lon="1.39206">
        <ele>134</ele>
        <time>2025-06-18T16:43:08Z</time>
      </trkpt>
      <trkpt lat="43.64422" lon="1.39201">
        <ele>134</ele>
        <time>2025-06-18T16:43:09Z</time>
      </trkpt>
      <trkpt lat="43.6442" lon="1.39199">
        <ele>134</ele>
        <time>2025-06-18T16:43:10Z</time>
      </trkpt>
      <trkpt lat="43.6442" lon="1.39199">
        <ele>134</ele>
        <time>2025-06-18T16:43:11Z</time>
      </trkpt>
      <trkpt lat="43.64418" lon="1.39197">
        <ele>135</ele>
        <time>2025-06-18T16:43:12Z</time>
      </trkpt>
      <trkpt lat="43.64416" lon="1.39194">
        <ele>135</ele>
        <time>2025-06-18T16:43:13Z</time>
      </trkpt>
      <trkpt lat="43.64415" lon="1.39191">
        <ele>135</ele>
        <time>2025-06-18T16:43:14Z</time>
      </trkpt>
      <trkpt lat="43.64413" lon="1.39188">
        <ele>136</ele>
        <time>2025-06-18T16:43:15Z</time>
      </trkpt>
      <trkpt lat="43.64412" lon="1.39185">
        <ele>137</ele>
        <time>2025-06-18T16:43:16Z</time>
      </trkpt>
      <trkpt lat="43.6441" lon="1.39178">
        <ele>137</ele>
        <time>2025-06-18T16:43:17Z</time>
      </trkpt>
      <trkpt lat="43.6441" lon="1.39178">
        <ele>137</ele>
        <time>2025-06-18T16:43:18Z</time>
      </trkpt>
      <trkpt lat="43.64409" lon="1.3917">
        <ele>137</ele>
        <time>2025-06-18T16:43:19Z</time>
      </trkpt>
      <trkpt lat="43.64409" lon="1.3917">
        <ele>137</ele>
        <time>2025-06-18T16:43:20Z</time>
      </trkpt>
      <trkpt lat="43.64408" lon="1.39163">
        <ele>138</ele>
        <time>2025-06-18T16:43:21Z</time>
      </trkpt>
      <trkpt lat="43.64409" lon="1.3916">
        <ele>139</ele>
        <time>2025-06-18T16:43:22Z</time>
      </trkpt>
      <trkpt lat="43.64409" lon="1.3916">
        <ele>139</ele>
        <time>2025-06-18T16:43:23Z</time>
      </trkpt>
      <trkpt lat="43.6441" lon="1.39153">
        <ele>139</ele>
        <time>2025-06-18T16:43:24Z</time>
      </trkpt>
      <trkpt lat="43.6441" lon="1.39153">
        <ele>139</ele>
        <time>2025-06-18T16:43:25Z</time>
      </trkpt>
      <trkpt lat="43.64411" lon="1.39146">
        <ele>139</ele>
        <time>2025-06-18T16:43:26Z</time>
      </trkpt>
      <trkpt lat="43.64411" lon="1.39146">
        <ele>139</ele>
        <time>2025-06-18T16:43:27Z</time>
      </trkpt>
      <trkpt lat="43.64412" lon="1.3914">
        <ele>139</ele>
        <time>2025-06-18T16:43:28Z</time>
      </trkpt>
      <trkpt lat="43.64412" lon="1.3914">
        <ele>140</ele>
        <time>2025-06-18T16:43:29Z</time>
      </trkpt>
      <trkpt lat="43.64414" lon="1.39135">
        <ele>140</ele>
        <time>2025-06-18T16:43:30Z</time>
      </trkpt>
      <trkpt lat="43.64414" lon="1.39135">
        <ele>140</ele>
        <time>2025-06-18T16:43:31Z</time>
      </trkpt>
      <trkpt lat="43.64416" lon="1.39131">
        <ele>141</ele>
        <time>2025-06-18T16:43:32Z</time>
      </trkpt>
      <trkpt lat="43.64416" lon="1.39126">
        <ele>141</ele>
        <time>2025-06-18T16:43:33Z</time>
      </trkpt>
      <trkpt lat="43.64419" lon="1.39119">
        <ele>142</ele>
        <time>2025-06-18T16:43:34Z</time>
      </trkpt>
      <trkpt lat="43.64419" lon="1.39119">
        <ele>142</ele>
        <time>2025-06-18T16:43:35Z</time>
      </trkpt>
      <trkpt lat="43.64419" lon="1.39119">
        <ele>142</ele>
        <time>2025-06-18T16:43:36Z</time>
      </trkpt>
      <trkpt lat="43.64419" lon="1.39119">
        <ele>143</ele>
        <time>2025-06-18T16:43:37Z</time>
      </trkpt>
      <trkpt lat="43.64419" lon="1.39119">
        <ele>143</ele>
        <time>2025-06-18T16:43:38Z</time>
      </trkpt>
      <trkpt lat="43.64417" lon="1.39123">
        <ele>144</ele>
        <time>2025-06-18T16:43:39Z</time>
      </trkpt>
      <trkpt lat="43.64417" lon="1.39126">
        <ele>144</ele>
        <time>2025-06-18T16:43:40Z</time>
      </trkpt>
      <trkpt lat="43.64417" lon="1.39126">
        <ele>144</ele>
        <time>2025-06-18T16:43:41Z</time>
      </trkpt>
      <trkpt lat="43.64416" lon="1.39132">
        <ele>143</ele>
        <time>2025-06-18T16:43:42Z</time>
      </trkpt>
      <trkpt lat="43.64415" lon="1.39135">
        <ele>143</ele>
        <time>2025-06-18T16:43:43Z</time>
      </trkpt>
      <trkpt lat="43.64415" lon="1.39135">
        <ele>143</ele>
        <time>2025-06-18T16:43:44Z</time>
      </trkpt>
      <trkpt lat="43.64414" lon="1.39141">
        <ele>142</ele>
        <time>2025-06-18T16:43:45Z</time>
      </trkpt>
      <trkpt lat="43.64413" lon="1.39144">
        <ele>142</ele>
        <time>2025-06-18T16:43:46Z</time>
      </trkpt>
      <trkpt lat="43.64412" lon="1.39147">
        <ele>142</ele>
        <time>2025-06-18T16:43:47Z</time>
      </trkpt>
      <trkpt lat="43.64412" lon="1.3915">
        <ele>142</ele>
        <time>2025-06-18T16:43:48Z</time>
      </trkpt>
      <trkpt lat="43.64412" lon="1.3915">
        <ele>141</ele>
        <time>2025-06-18T16:43:49Z</time>
      </trkpt>
      <trkpt lat="43.64411" lon="1.39155">
        <ele>141</ele>
        <time>2025-06-18T16:43:50Z</time>
      </trkpt>
      <trkpt lat="43.64411" lon="1.39155">
        <ele>140</ele>
        <time>2025-06-18T16:43:51Z</time>
      </trkpt>
      <trkpt lat="43.6441" lon="1.39161">
        <ele>140</ele>
        <time>2025-06-18T16:43:52Z</time>
      </trkpt>
      <trkpt lat="43.6441" lon="1.39161">
        <ele>140</ele>
        <time>2025-06-18T16:43:53Z</time>
      </trkpt>
      <trkpt lat="43.64411" lon="1.39167">
        <ele>139</ele>
        <time>2025-06-18T16:43:54Z</time>
      </trkpt>
      <trkpt lat="43.64411" lon="1.3917">
        <ele>139</ele>
        <time>2025-06-18T16:43:55Z</time>
      </trkpt>
      <trkpt lat="43.64411" lon="1.3917">
        <ele>139</ele>
        <time>2025-06-18T16:43:56Z</time>
      </trkpt>
      <trkpt lat="43.64411" lon="1.39173">
        <ele>139</ele>
        <time>2025-06-18T16:43:57Z</time>
      </trkpt>
      <trkpt lat="43.64412" lon="1.39179">
        <ele>138</ele>
        <time>2025-06-18T16:43:58Z</time>
      </trkpt>
      <trkpt lat="43.64412" lon="1.39182">
        <ele>138</ele>
        <time>2025-06-18T16:43:59Z</time>
      </trkpt>
      <trkpt lat="43.64413" lon="1.39185">
        <ele>138</ele>
        <time>2025-06-18T16:44:00Z</time>
      </trkpt>
      <trkpt lat="43.64413" lon="1.39185">
        <ele>138</ele>
        <time>2025-06-18T16:44:01Z</time>
      </trkpt>
      <trkpt lat="43.64413" lon="1.39187">
        <ele>138</ele>
        <time>2025-06-18T16:44:02Z</time>
      </trkpt>
      <trkpt lat="43.64415" lon="1.39189">
        <ele>138</ele>
        <time>2025-06-18T16:44:03Z</time>
      </trkpt>
      <trkpt lat="43.64417" lon="1.39193">
        <ele>138</ele>
        <time>2025-06-18T16:44:04Z</time>
      </trkpt>
      <trkpt lat="43.64417" lon="1.39193">
        <ele>138</ele>
        <time>2025-06-18T16:44:05Z</time>
      </trkpt>
      <trkpt lat="43.6442" lon="1.39198">
        <ele>138</ele>
        <time>2025-06-18T16:44:06Z</time>
      </trkpt>
      <trkpt lat="43.6442" lon="1.39198">
        <ele>138</ele>
        <time>2025-06-18T16:44:07Z</time>
      </trkpt>
      <trkpt lat="43.64423" lon="1.39202">
        <ele>137</ele>
        <time>2025-06-18T16:44:08Z</time>
      </trkpt>
      <trkpt lat="43.64425" lon="1.39203">
        <ele>137</ele>
        <time>2025-06-18T16:44:09Z</time>
      </trkpt>
      <trkpt lat="43.64425" lon="1.39203">
        <ele>137</ele>
        <time>2025-06-18T16:44:10Z</time>
      </trkpt>
      <trkpt lat="43.64427" lon="1.39205">
        <ele>136</ele>
        <time>2025-06-18T16:44:11Z</time>
      </trkpt>
      <trkpt lat="43.64429" lon="1.39207">
        <ele>135</ele>
        <time>2025-06-18T16:44:12Z</time>
      </trkpt>
      <trkpt lat="43.64432" lon="1.39212">
        <ele>135</ele>
        <time>2025-06-18T16:44:13Z</time>
      </trkpt>
      <trkpt lat="43.64434" lon="1.39214">
        <ele>135</ele>
        <time>2025-06-18T16:44:14Z</time>
      </trkpt>
      <trkpt lat="43.64435" lon="1.39215">
        <ele>135</ele>
        <time>2025-06-18T16:44:15Z</time>
      </trkpt>
      <trkpt lat="43.64437" lon="1.39216">
        <ele>134</ele>
        <time>2025-06-18T16:44:16Z</time>
      </trkpt>
      <trkpt lat="43.6444" lon="1.39218">
        <ele>134</ele>
        <time>2025-06-18T16:44:17Z</time>
      </trkpt>
      <trkpt lat="43.64442" lon="1.3922">
        <ele>134</ele>
        <time>2025-06-18T16:44:18Z</time>
      </trkpt>
      <trkpt lat="43.64442" lon="1.3922">
        <ele>133</ele>
        <time>2025-06-18T16:44:19Z</time>
      </trkpt>
      <trkpt lat="43.64442" lon="1.39222">
        <ele>132</ele>
        <time>2025-06-18T16:44:20Z</time>
      </trkpt>
      <trkpt lat="43.64439" lon="1.39221">
        <ele>132</ele>
        <time>2025-06-18T16:44:21Z</time>
      </trkpt>
      <trkpt lat="43.64437" lon="1.39218">
        <ele>132</ele>
        <time>2025-06-18T16:44:22Z</time>
      </trkpt>
      <trkpt lat="43.64432" lon="1.39212">
        <ele>132</ele>
        <time>2025-06-18T16:44:24Z</time>
      </trkpt>
      <trkpt lat="43.6443" lon="1.3921">
        <ele>132</ele>
        <time>2025-06-18T16:44:25Z</time>
      </trkpt>
      <trkpt lat="43.64428" lon="1.39208">
        <ele>132</ele>
        <time>2025-06-18T16:44:26Z</time>
      </trkpt>
      <trkpt lat="43.64426" lon="1.39205">
        <ele>133</ele>
        <time>2025-06-18T16:44:27Z</time>
      </trkpt>
      <trkpt lat="43.64426" lon="1.39205">
        <ele>134</ele>
        <time>2025-06-18T16:44:28Z</time>
      </trkpt>
      <trkpt lat="43.64421" lon="1.39201">
        <ele>134</ele>
        <time>2025-06-18T16:44:29Z</time>
      </trkpt>
      <trkpt lat="43.64419" lon="1.39198">
        <ele>135</ele>
        <time>2025-06-18T16:44:30Z</time>
      </trkpt>
      <trkpt lat="43.64417" lon="1.39196">
        <ele>135</ele>
        <time>2025-06-18T16:44:31Z</time>
      </trkpt>
      <trkpt lat="43.64415" lon="1.39193">
        <ele>135</ele>
        <time>2025-06-18T16:44:32Z</time>
      </trkpt>
      <trkpt lat="43.64413" lon="1.3919">
        <ele>136</ele>
        <time>2025-06-18T16:44:33Z</time>
      </trkpt>
      <trkpt lat="43.64412" lon="1.39186">
        <ele>136</ele>
        <time>2025-06-18T16:44:34Z</time>
      </trkpt>
      <trkpt lat="43.64412" lon="1.39186">
        <ele>136</ele>
        <time>2025-06-18T16:44:35Z</time>
      </trkpt>
      <trkpt lat="43.6441" lon="1.39179">
        <ele>137</ele>
        <time>2025-06-18T16:44:36Z</time>
      </trkpt>
      <trkpt lat="43.6441" lon="1.39179">
        <ele>138</ele>
        <time>2025-06-18T16:44:37Z</time>
      </trkpt>
      <trkpt lat="43.64409" lon="1.39171">
        <ele>138</ele>
        <time>2025-06-18T16:44:38Z</time>
      </trkpt>
      <trkpt lat="43.64409" lon="1.39167">
        <ele>138</ele>
        <time>2025-06-18T16:44:39Z</time>
      </trkpt>
      <trkpt lat="43.64409" lon="1.39167">
        <ele>138</ele>
        <time>2025-06-18T16:44:40Z</time>
      </trkpt>
      <trkpt lat="43.6441" lon="1.39159">
        <ele>138</ele>
        <time>2025-06-18T16:44:41Z</time>
      </trkpt>
      <trkpt lat="43.6441" lon="1.39155">
        <ele>138</ele>
        <time>2025-06-18T16:44:42Z</time>
      </trkpt>
      <trkpt lat="43.6441" lon="1.39155">
        <ele>138</ele>
        <time>2025-06-18T16:44:43Z</time>
      </trkpt>
      <trkpt lat="43.64411" lon="1.39148">
        <ele>138</ele>
        <time>2025-06-18T16:44:44Z</time>
      </trkpt>
      <trkpt lat="43.64412" lon="1.39144">
        <ele>139</ele>
        <time>2025-06-18T16:44:45Z</time>
      </trkpt>
      <trkpt lat="43.64412" lon="1.3914">
        <ele>140</ele>
        <time>2025-06-18T16:44:46Z</time>
      </trkpt>
      <trkpt lat="43.64412" lon="1.3914">
        <ele>140</ele>
        <time>2025-06-18T16:44:47Z</time>
      </trkpt>
      <trkpt lat="43.64413" lon="1.39136">
        <ele>141</ele>
        <time>2025-06-18T16:44:48Z</time>
      </trkpt>
      <trkpt lat="43.64414" lon="1.39133">
        <ele>141</ele>
        <time>2025-06-18T16:44:49Z</time>
      </trkpt>
      <trkpt lat="43.64415" lon="1.3913">
        <ele>141</ele>
        <time>2025-06-18T16:44:50Z</time>
      </trkpt>
      <trkpt lat="43.64417" lon="1.39122">
        <ele>141</ele>
        <time>2025-06-18T16:44:51Z</time>
      </trkpt>
      <trkpt lat="43.64419" lon="1.39119">
        <ele>142</ele>
        <time>2025-06-18T16:44:52Z</time>
      </trkpt>
      <trkpt lat="43.6442" lon="1.39117">
        <ele>143</ele>
        <time>2025-06-18T16:44:53Z</time>
      </trkpt>
      <trkpt lat="43.6442" lon="1.39117">
        <ele>143</ele>
        <time>2025-06-18T16:44:54Z</time>
      </trkpt>
      <trkpt lat="43.6442" lon="1.39117">
        <ele>143</ele>
        <time>2025-06-18T16:44:55Z</time>
      </trkpt>
      <trkpt lat="43.6442" lon="1.39117">
        <ele>143</ele>
        <time>2025-06-18T16:44:56Z</time>
      </trkpt>
      <trkpt lat="43.6442" lon="1.39117">
        <ele>143</ele>
        <time>2025-06-18T16:44:57Z</time>
      </trkpt>
      <trkpt lat="43.64416" lon="1.39123">
        <ele>143</ele>
        <time>2025-06-18T16:44:58Z</time>
      </trkpt>
      <trkpt lat="43.64416" lon="1.39126">
        <ele>143</ele>
        <time>2025-06-18T16:44:59Z</time>
      </trkpt>
      <trkpt lat="43.64416" lon="1.39126">
        <ele>143</ele>
        <time>2025-06-18T16:45:00Z</time>
      </trkpt>
      <trkpt lat="43.64415" lon="1.39129">
        <ele>143</ele>
        <time>2025-06-18T16:45:01Z</time>
      </trkpt>
      <trkpt lat="43.64415" lon="1.39132">
        <ele>143</ele>
        <time>2025-06-18T16:45:02Z</time>
      </trkpt>
      <trkpt lat="43.64414" lon="1.39139">
        <ele>143</ele>
        <time>2025-06-18T16:45:03Z</time>
      </trkpt>
      <trkpt lat="43.64414" lon="1.39142">
        <ele>142</ele>
        <time>2025-06-18T16:45:04Z</time>
      </trkpt>
      <trkpt lat="43.64413" lon="1.39145">
        <ele>141</ele>
        <time>2025-06-18T16:45:05Z</time>
      </trkpt>
      <trkpt lat="43.64413" lon="1.39145">
        <ele>141</ele>
        <time>2025-06-18T16:45:06Z</time>
      </trkpt>
      <trkpt lat="43.64412" lon="1.3915">
        <ele>141</ele>
        <time>2025-06-18T16:45:07Z</time>
      </trkpt>
      <trkpt lat="43.64412" lon="1.39153">
        <ele>141</ele>
        <time>2025-06-18T16:45:08Z</time>
      </trkpt>
      <trkpt lat="43.64412" lon="1.39156">
        <ele>140</ele>
        <time>2025-06-18T16:45:09Z</time>
      </trkpt>
      <trkpt lat="43.64412" lon="1.39159">
        <ele>140</ele>
        <time>2025-06-18T16:45:10Z</time>
      </trkpt>
      <trkpt lat="43.64412" lon="1.39159">
        <ele>139</ele>
        <time>2025-06-18T16:45:11Z</time>
      </trkpt>
      <trkpt lat="43.64411" lon="1.39164">
        <ele>139</ele>
        <time>2025-06-18T16:45:12Z</time>
      </trkpt>
      <trkpt lat="43.64411" lon="1.39164">
        <ele>139</ele>
        <time>2025-06-18T16:45:13Z</time>
      </trkpt>
      <trkpt lat="43.64412" lon="1.3917">
        <ele>139</ele>
        <time>2025-06-18T16:45:14Z</time>
      </trkpt>
      <trkpt lat="43.64412" lon="1.39173">
        <ele>139</ele>
        <time>2025-06-18T16:45:15Z</time>
      </trkpt>
      <trkpt lat="43.64413" lon="1.39176">
        <ele>139</ele>
        <time>2025-06-18T16:45:16Z</time>
      </trkpt>
      <trkpt lat="43.64413" lon="1.39176">
        <ele>139</ele>
        <time>2025-06-18T16:45:17Z</time>
      </trkpt>
      <trkpt lat="43.64413" lon="1.39181">
        <ele>138</ele>
        <time>2025-06-18T16:45:18Z</time>
      </trkpt>
      <trkpt lat="43.64414" lon="1.39184">
        <ele>137</ele>
        <time>2025-06-18T16:45:19Z</time>
      </trkpt>
      <trkpt lat="43.64414" lon="1.39184">
        <ele>137</ele>
        <time>2025-06-18T16:45:20Z</time>
      </trkpt>
      <trkpt lat="43.64416" lon="1.39189">
        <ele>137</ele>
        <time>2025-06-18T16:45:21Z</time>
      </trkpt>
      <trkpt lat="43.64418" lon="1.39191">
        <ele>137</ele>
        <time>2025-06-18T16:45:22Z</time>
      </trkpt>
      <trkpt lat="43.64418" lon="1.39191">
        <ele>137</ele>
        <time>2025-06-18T16:45:23Z</time>
      </trkpt>
      <trkpt lat="43.64419" lon="1.39193">
        <ele>137</ele>
        <time>2025-06-18T16:45:24Z</time>
      </trkpt>
      <trkpt lat="43.64423" lon="1.39197">
        <ele>137</ele>
        <time>2025-06-18T16:45:25Z</time>
      </trkpt>
      <trkpt lat="43.64425" lon="1.39199">
        <ele>137</ele>
        <time>2025-06-18T16:45:26Z</time>
      </trkpt>
      <trkpt lat="43.64425" lon="1.39199">
        <ele>137</ele>
        <time>2025-06-18T16:45:27Z</time>
      </trkpt>
      <trkpt lat="43.64427" lon="1.39204">
        <ele>136</ele>
        <time>2025-06-18T16:45:28Z</time>
      </trkpt>
      <trkpt lat="43.64427" lon="1.39204">
        <ele>136</ele>
        <time>2025-06-18T16:45:29Z</time>
      </trkpt>
      <trkpt lat="43.64431" lon="1.39206">
        <ele>136</ele>
        <time>2025-06-18T16:45:30Z</time>
      </trkpt>
      <trkpt lat="43.64431" lon="1.39206">
        <ele>136</ele>
        <time>2025-06-18T16:45:31Z</time>
      </trkpt>
      <trkpt lat="43.64434" lon="1.39211">
        <ele>136</ele>
        <time>2025-06-18T16:45:32Z</time>
      </trkpt>
      <trkpt lat="43.64434" lon="1.39211">
        <ele>135</ele>
        <time>2025-06-18T16:45:33Z</time>
      </trkpt>
      <trkpt lat="43.64435" lon="1.39213">
        <ele>134</ele>
        <time>2025-06-18T16:45:34Z</time>
      </trkpt>
      <trkpt lat="43.64438" lon="1.39216">
        <ele>134</ele>
        <time>2025-06-18T16:45:35Z</time>
      </trkpt>
      <trkpt lat="43.64438" lon="1.39216">
        <ele>134</ele>
        <time>2025-06-18T16:45:36Z</time>
      </trkpt>
      <trkpt lat="43.64442" lon="1.3922">
        <ele>133</ele>
        <time>2025-06-18T16:45:37Z</time>
      </trkpt>
      <trkpt lat="43.64442" lon="1.3922">
        <ele>133</ele>
        <time>2025-06-18T16:45:38Z</time>
      </trkpt>
      <trkpt lat="43.64442" lon="1.39223">
        <ele>133</ele>
        <time>2025-06-18T16:45:39Z</time>
      </trkpt>
      <trkpt lat="43.64442" lon="1.39223">
        <ele>133</ele>
        <time>2025-06-18T16:45:40Z</time>
      </trkpt>
      <trkpt lat="43.64437" lon="1.3922">
        <ele>133</ele>
        <time>2025-06-18T16:45:41Z</time>
      </trkpt>
      <trkpt lat="43.64435" lon="1.39217">
        <ele>132</ele>
        <time>2025-06-18T16:45:42Z</time>
      </trkpt>
      <trkpt lat="43.64433" lon="1.39214">
        <ele>132</ele>
        <time>2025-06-18T16:45:43Z</time>
      </trkpt>
      <trkpt lat="43.64431" lon="1.39212">
        <ele>132</ele>
        <time>2025-06-18T16:45:44Z</time>
      </trkpt>
      <trkpt lat="43.64431" lon="1.39212">
        <ele>132</ele>
        <time>2025-06-18T16:45:45Z</time>
      </trkpt>
      <trkpt lat="43.64426" lon="1.39206">
        <ele>133</ele>
        <time>2025-06-18T16:45:46Z</time>
      </trkpt>
      <trkpt lat="43.64426" lon="1.39206">
        <ele>133</ele>
        <time>2025-06-18T16:45:47Z</time>
      </trkpt>
      <trkpt lat="43.64422" lon="1.39201">
        <ele>134</ele>
        <time>2025-06-18T16:45:48Z</time>
      </trkpt>
      <trkpt lat="43.64422" lon="1.39201">
        <ele>134</ele>
        <time>2025-06-18T16:45:49Z</time>
      </trkpt>
      <trkpt lat="43.64418" lon="1.39197">
        <ele>134</ele>
        <time>2025-06-18T16:45:50Z</time>
      </trkpt>
      <trkpt lat="43.64418" lon="1.39197">
        <ele>135</ele>
        <time>2025-06-18T16:45:51Z</time>
      </trkpt>
      <trkpt lat="43.64413" lon="1.39191">
        <ele>135</ele>
        <time>2025-06-18T16:45:52Z</time>
      </trkpt>
      <trkpt lat="43.64413" lon="1.39191">
        <ele>135</ele>
        <time>2025-06-18T16:45:53Z</time>
      </trkpt>
      <trkpt lat="43.64411" lon="1.39183">
        <ele>136</ele>
        <time>2025-06-18T16:45:54Z</time>
      </trkpt>
      <trkpt lat="43.6441" lon="1.39179">
        <ele>137</ele>
        <time>2025-06-18T16:45:55Z</time>
      </trkpt>
      <trkpt lat="43.6441" lon="1.39179">
        <ele>137</ele>
        <time>2025-06-18T16:45:56Z</time>
      </trkpt>
      <trkpt lat="43.64409" lon="1.39172">
        <ele>137</ele>
        <time>2025-06-18T16:45:57Z</time>
      </trkpt>
      <trkpt lat="43.64409" lon="1.39168">
        <ele>137</ele>
        <time>2025-06-18T16:45:58Z</time>
      </trkpt>
      <trkpt lat="43.64409" lon="1.39168">
        <ele>138</ele>
        <time>2025-06-18T16:45:59Z</time>
      </trkpt>
      <trkpt lat="43.64409" lon="1.3916">
        <ele>138</ele>
        <time>2025-06-18T16:46:00Z</time>
      </trkpt>
      <trkpt lat="43.64409" lon="1.39156">
        <ele>138</ele>
        <time>2025-06-18T16:46:01Z</time>
      </trkpt>
      <trkpt lat="43.64409" lon="1.39156">
        <ele>138</ele>
        <time>2025-06-18T16:46:02Z</time>
      </trkpt>
      <trkpt lat="43.6441" lon="1.39152">
        <ele>139</ele>
        <time>2025-06-18T16:46:03Z</time>
      </trkpt>
      <trkpt lat="43.64411" lon="1.39149">
        <ele>139</ele>
        <time>2025-06-18T16:46:04Z</time>
      </trkpt>
      <trkpt lat="43.64412" lon="1.39142">
        <ele>139</ele>
        <time>2025-06-18T16:46:05Z</time>
      </trkpt>
      <trkpt lat="43.64412" lon="1.39142">
        <ele>139</ele>
        <time>2025-06-18T16:46:06Z</time>
      </trkpt>
      <trkpt lat="43.64413" lon="1.39135">
        <ele>140</ele>
        <time>2025-06-18T16:46:07Z</time>
      </trkpt>
      <trkpt lat="43.64413" lon="1.39135">
        <ele>140</ele>
        <time>2025-06-18T16:46:08Z</time>
      </trkpt>
      <trkpt lat="43.64415" lon="1.39129">
        <ele>141</ele>
        <time>2025-06-18T16:46:09Z</time>
      </trkpt>
      <trkpt lat="43.64416" lon="1.39125">
        <ele>142</ele>
        <time>2025-06-18T16:46:10Z</time>
      </trkpt>
      <trkpt lat="43.64417" lon="1.39123">
        <ele>142</ele>
        <time>2025-06-18T16:46:11Z</time>
      </trkpt>
      <trkpt lat="43.64417" lon="1.39123">
        <ele>142</ele>
        <time>2025-06-18T16:46:12Z</time>
      </trkpt>
      <trkpt lat="43.64419" lon="1.3912">
        <ele>142</ele>
        <time>2025-06-18T16:46:13Z</time>
      </trkpt>
      <trkpt lat="43.6442" lon="1.39117">
        <ele>142</ele>
        <time>2025-06-18T16:46:14Z</time>
      </trkpt>
      <trkpt lat="43.6442" lon="1.39117">
        <ele>143</ele>
        <time>2025-06-18T16:46:15Z</time>
      </trkpt>
      <trkpt lat="43.6442" lon="1.39117">
        <ele>143</ele>
        <time>2025-06-18T16:46:16Z</time>
      </trkpt>
      <trkpt lat="43.64418" lon="1.39121">
        <ele>143</ele>
        <time>2025-06-18T16:46:17Z</time>
      </trkpt>
      <trkpt lat="43.64418" lon="1.39121">
        <ele>143</ele>
        <time>2025-06-18T16:46:18Z</time>
      </trkpt>
      <trkpt lat="43.64416" lon="1.39126">
        <ele>143</ele>
        <time>2025-06-18T16:46:19Z</time>
      </trkpt>
      <trkpt lat="43.64416" lon="1.39126">
        <ele>143</ele>
        <time>2025-06-18T16:46:20Z</time>
      </trkpt>
      <trkpt lat="43.64415" lon="1.39132">
        <ele>143</ele>
        <time>2025-06-18T16:46:21Z</time>
      </trkpt>
      <trkpt lat="43.64415" lon="1.39135">
        <ele>143</ele>
        <time>2025-06-18T16:46:22Z</time>
      </trkpt>
      <trkpt lat="43.64414" lon="1.39138">
        <ele>143</ele>
        <time>2025-06-18T16:46:23Z</time>
      </trkpt>
      <trkpt lat="43.64414" lon="1.3914">
        <ele>142</ele>
        <time>2025-06-18T16:46:24Z</time>
      </trkpt>
      <trkpt lat="43.64413" lon="1.39143">
        <ele>142</ele>
        <time>2025-06-18T16:46:25Z</time>
      </trkpt>
      <trkpt lat="43.64412" lon="1.39146">
        <ele>142</ele>
        <time>2025-06-18T16:46:26Z</time>
      </trkpt>
      <trkpt lat="43.64412" lon="1.39149">
        <ele>141</ele>
        <time>2025-06-18T16:46:27Z</time>
      </trkpt>
      <trkpt lat="43.64411" lon="1.39152">
        <ele>141</ele>
        <time>2025-06-18T16:46:28Z</time>
      </trkpt>
      <trkpt lat="43.64411" lon="1.39152">
        <ele>141</ele>
        <time>2025-06-18T16:46:29Z</time>
      </trkpt>
      <trkpt lat="43.6441" lon="1.39158">
        <ele>140</ele>
        <time>2025-06-18T16:46:30Z</time>
      </trkpt>
      <trkpt lat="43.6441" lon="1.39158">
        <ele>140</ele>
        <time>2025-06-18T16:46:31Z</time>
      </trkpt>
      <trkpt lat="43.6441" lon="1.39164">
        <ele>139</ele>
        <time>2025-06-18T16:46:32Z</time>
      </trkpt>
      <trkpt lat="43.6441" lon="1.39164">
        <ele>139</ele>
        <time>2025-06-18T16:46:33Z</time>
      </trkpt>
      <trkpt lat="43.64409" lon="1.39169">
        <ele>139</ele>
        <time>2025-06-18T16:46:34Z</time>
      </trkpt>
      <trkpt lat="43.64409" lon="1.39169">
        <ele>139</ele>
        <time>2025-06-18T16:46:35Z</time>
      </trkpt>
      <trkpt lat="43.6441" lon="1.39175">
        <ele>138</ele>
        <time>2025-06-18T16:46:36Z</time>
      </trkpt>
      <trkpt lat="43.64411" lon="1.39177">
        <ele>138</ele>
        <time>2025-06-18T16:46:37Z</time>
      </trkpt>
      <trkpt lat="43.64411" lon="1.39177">
        <ele>138</ele>
        <time>2025-06-18T16:46:38Z</time>
      </trkpt>
      <trkpt lat="43.64411" lon="1.3918">
        <ele>138</ele>
        <time>2025-06-18T16:46:39Z</time>
      </trkpt>
      <trkpt lat="43.64412" lon="1.39183">
        <ele>138</ele>
        <time>2025-06-18T16:46:40Z</time>
      </trkpt>
      <trkpt lat="43.64413" lon="1.39185">
        <ele>138</ele>
        <time>2025-06-18T16:46:41Z</time>
      </trkpt>
      <trkpt lat="43.64414" lon="1.39187">
        <ele>138</ele>
        <time>2025-06-18T16:46:42Z</time>
      </trkpt>
      <trkpt lat="43.64417" lon="1.39193">
        <ele>138</ele>
        <time>2025-06-18T16:46:43Z</time>
      </trkpt>
      <trkpt lat="43.64418" lon="1.39195">
        <ele>137</ele>
        <time>2025-06-18T16:46:44Z</time>
      </trkpt>
      <trkpt lat="43.64419" lon="1.39197">
        <ele>137</ele>
        <time>2025-06-18T16:46:45Z</time>
      </trkpt>
      <trkpt lat="43.6442" lon="1.39199">
        <ele>136</ele>
        <time>2025-06-18T16:46:46Z</time>
      </trkpt>
      <trkpt lat="43.6442" lon="1.39199">
        <ele>136</ele>
        <time>2025-06-18T16:46:47Z</time>
      </trkpt>
      <trkpt lat="43.64422" lon="1.392">
        <ele>136</ele>
        <time>2025-06-18T16:46:48Z</time>
      </trkpt>
      <trkpt lat="43.64425" lon="1.39202">
        <ele>136</ele>
        <time>2025-06-18T16:46:49Z</time>
      </trkpt>
      <trkpt lat="43.64428" lon="1.39205">
        <ele>136</ele>
        <time>2025-06-18T16:46:50Z</time>
      </trkpt>
      <trkpt lat="43.6443" lon="1.39207">
        <ele>136</ele>
        <time>2025-06-18T16:46:51Z</time>
      </trkpt>
      <trkpt lat="43.64431" lon="1.3921">
        <ele>136</ele>
        <time>2025-06-18T16:46:52Z</time>
      </trkpt>
      <trkpt lat="43.64433" lon="1.39212">
        <ele>136</ele>
        <time>2025-06-18T16:46:53Z</time>
      </trkpt>
      <trkpt lat="43.64433" lon="1.39212">
        <ele>135</ele>
        <time>2025-06-18T16:46:54Z</time>
      </trkpt>
      <trkpt lat="43.64436" lon="1.39215">
        <ele>135</ele>
        <time>2025-06-18T16:46:55Z</time>
      </trkpt>
      <trkpt lat="43.64436" lon="1.39215">
        <ele>135</ele>
        <time>2025-06-18T16:46:56Z</time>
      </trkpt>
      <trkpt lat="43.6444" lon="1.39219">
        <ele>135</ele>
        <time>2025-06-18T16:46:57Z</time>
      </trkpt>
      <trkpt lat="43.6444" lon="1.39219">
        <ele>134</ele>
        <time>2025-06-18T16:46:58Z</time>
      </trkpt>
      <trkpt lat="43.64442" lon="1.39221">
        <ele>133</ele>
        <time>2025-06-18T16:46:59Z</time>
      </trkpt>
      <trkpt lat="43.64442" lon="1.39221">
        <ele>132</ele>
        <time>2025-06-18T16:47:00Z</time>
      </trkpt>
      <trkpt lat="43.64439" lon="1.39224">
        <ele>132</ele>
        <time>2025-06-18T16:47:01Z</time>
      </trkpt>
      <trkpt lat="43.64437" lon="1.39221">
        <ele>131</ele>
        <time>2025-06-18T16:47:02Z</time>
      </trkpt>
      <trkpt lat="43.64437" lon="1.39221">
        <ele>131</ele>
        <time>2025-06-18T16:47:03Z</time>
      </trkpt>
      <trkpt lat="43.64432" lon="1.39215">
        <ele>131</ele>
        <time>2025-06-18T16:47:04Z</time>
      </trkpt>
      <trkpt lat="43.6443" lon="1.39212">
        <ele>132</ele>
        <time>2025-06-18T16:47:05Z</time>
      </trkpt>
      <trkpt lat="43.64428" lon="1.3921">
        <ele>132</ele>
        <time>2025-06-18T16:47:06Z</time>
      </trkpt>
      <trkpt lat="43.64428" lon="1.3921">
        <ele>133</ele>
        <time>2025-06-18T16:47:07Z</time>
      </trkpt>
      <trkpt lat="43.64425" lon="1.39207">
        <ele>134</ele>
        <time>2025-06-18T16:47:08Z</time>
      </trkpt>
      <trkpt lat="43.64423" lon="1.39205">
        <ele>134</ele>
        <time>2025-06-18T16:47:09Z</time>
      </trkpt>
      <trkpt lat="43.6442" lon="1.39202">
        <ele>134</ele>
        <time>2025-06-18T16:47:10Z</time>
      </trkpt>
      <trkpt lat="43.64416" lon="1.39196">
        <ele>135</ele>
        <time>2025-06-18T16:47:11Z</time>
      </trkpt>
      <trkpt lat="43.64416" lon="1.39196">
        <ele>135</ele>
        <time>2025-06-18T16:47:12Z</time>
      </trkpt>
      <trkpt lat="43.64412" lon="1.3919">
        <ele>135</ele>
        <time>2025-06-18T16:47:13Z</time>
      </trkpt>
      <trkpt lat="43.64411" lon="1.39187">
        <ele>136</ele>
        <time>2025-06-18T16:47:14Z</time>
      </trkpt>
      <trkpt lat="43.64411" lon="1.39187">
        <ele>136</ele>
        <time>2025-06-18T16:47:15Z</time>
      </trkpt>
      <trkpt lat="43.6441" lon="1.39183">
        <ele>136</ele>
        <time>2025-06-18T16:47:16Z</time>
      </trkpt>
      <trkpt lat="43.64409" lon="1.39175">
        <ele>136</ele>
        <time>2025-06-18T16:47:17Z</time>
      </trkpt>
      <trkpt lat="43.64409" lon="1.39175">
        <ele>137</ele>
        <time>2025-06-18T16:47:18Z</time>
      </trkpt>
      <trkpt lat="43.64408" lon="1.39168">
        <ele>138</ele>
        <time>2025-06-18T16:47:19Z</time>
      </trkpt>
      <trkpt lat="43.64408" lon="1.39168">
        <ele>138</ele>
        <time>2025-06-18T16:47:20Z</time>
      </trkpt>
      <trkpt lat="43.64408" lon="1.3916">
        <ele>139</ele>
        <time>2025-06-18T16:47:21Z</time>
      </trkpt>
      <trkpt lat="43.64409" lon="1.39156">
        <ele>139</ele>
        <time>2025-06-18T16:47:22Z</time>
      </trkpt>
      <trkpt lat="43.64409" lon="1.39152">
        <ele>139</ele>
        <time>2025-06-18T16:47:23Z</time>
      </trkpt>
      <trkpt lat="43.6441" lon="1.39149">
        <ele>139</ele>
        <time>2025-06-18T16:47:24Z</time>
      </trkpt>
      <trkpt lat="43.6441" lon="1.39149">
        <ele>139</ele>
        <time>2025-06-18T16:47:25Z</time>
      </trkpt>
      <trkpt lat="43.64411" lon="1.39143">
        <ele>139</ele>
        <time>2025-06-18T16:47:26Z</time>
      </trkpt>
      <trkpt lat="43.64411" lon="1.39139">
        <ele>140</ele>
        <time>2025-06-18T16:47:27Z</time>
      </trkpt>
      <trkpt lat="43.64412" lon="1.39136">
        <ele>140</ele>
        <time>2025-06-18T16:47:28Z</time>
      </trkpt>
      <trkpt lat="43.64412" lon="1.39132">
        <ele>140</ele>
        <time>2025-06-18T16:47:29Z</time>
      </trkpt>
      <trkpt lat="43.64413" lon="1.39129">
        <ele>141</ele>
        <time>2025-06-18T16:47:30Z</time>
      </trkpt>
      <trkpt lat="43.64414" lon="1.39126">
        <ele>141</ele>
        <time>2025-06-18T16:47:31Z</time>
      </trkpt>
      <trkpt lat="43.64415" lon="1.39123">
        <ele>141</ele>
        <time>2025-06-18T16:47:32Z</time>
      </trkpt>
      <trkpt lat="43.64415" lon="1.39123">
        <ele>142</ele>
        <time>2025-06-18T16:47:33Z</time>
      </trkpt>
      <trkpt lat="43.64416" lon="1.3912">
        <ele>142</ele>
        <time>2025-06-18T16:47:34Z</time>
      </trkpt>
      <trkpt lat="43.64417" lon="1.39118">
        <ele>142</ele>
        <time>2025-06-18T16:47:35Z</time>
      </trkpt>
      <trkpt lat="43.64417" lon="1.39118">
        <ele>142</ele>
        <time>2025-06-18T16:47:36Z</time>
      </trkpt>
      <trkpt lat="43.64417" lon="1.39118">
        <ele>142</ele>
        <time>2025-06-18T16:47:37Z</time>
      </trkpt>
      <trkpt lat="43.64416" lon="1.3912">
        <ele>143</ele>
        <time>2025-06-18T16:47:38Z</time>
      </trkpt>
      <trkpt lat="43.64416" lon="1.3912">
        <ele>143</ele>
        <time>2025-06-18T16:47:39Z</time>
      </trkpt>
      <trkpt lat="43.64415" lon="1.39126">
        <ele>143</ele>
        <time>2025-06-18T16:47:40Z</time>
      </trkpt>
      <trkpt lat="43.64415" lon="1.39126">
        <ele>143</ele>
        <time>2025-06-18T16:47:41Z</time>
      </trkpt>
      <trkpt lat="43.64413" lon="1.39131">
        <ele>142</ele>
        <time>2025-06-18T16:47:42Z</time>
      </trkpt>
      <trkpt lat="43.64413" lon="1.39131">
        <ele>142</ele>
        <time>2025-06-18T16:47:43Z</time>
      </trkpt>
      <trkpt lat="43.64413" lon="1.39134">
        <ele>142</ele>
        <time>2025-06-18T16:47:44Z</time>
      </trkpt>
      <trkpt lat="43.64412" lon="1.39137">
        <ele>142</ele>
        <time>2025-06-18T16:47:45Z</time>
      </trkpt>
      <trkpt lat="43.64412" lon="1.3914">
        <ele>142</ele>
        <time>2025-06-18T16:47:46Z</time>
      </trkpt>
      <trkpt lat="43.64411" lon="1.39145">
        <ele>142</ele>
        <time>2025-06-18T16:47:47Z</time>
      </trkpt>
      <trkpt lat="43.6441" lon="1.39148">
        <ele>141</ele>
        <time>2025-06-18T16:47:48Z</time>
      </trkpt>
      <trkpt lat="43.6441" lon="1.39148">
        <ele>141</ele>
        <time>2025-06-18T16:47:49Z</time>
      </trkpt>
      <trkpt lat="43.6441" lon="1.39151">
        <ele>141</ele>
        <time>2025-06-18T16:47:50Z</time>
      </trkpt>
      <trkpt lat="43.6441" lon="1.39153">
        <ele>140</ele>
        <time>2025-06-18T16:47:51Z</time>
      </trkpt>
      <trkpt lat="43.64409" lon="1.39159">
        <ele>140</ele>
        <time>2025-06-18T16:47:52Z</time>
      </trkpt>
      <trkpt lat="43.64409" lon="1.39159">
        <ele>140</ele>
        <time>2025-06-18T16:47:53Z</time>
      </trkpt>
      <trkpt lat="43.64408" lon="1.39162">
        <ele>139</ele>
        <time>2025-06-18T16:47:54Z</time>
      </trkpt>
      <trkpt lat="43.64408" lon="1.39165">
        <ele>139</ele>
        <time>2025-06-18T16:47:55Z</time>
      </trkpt>
      <trkpt lat="43.64409" lon="1.39171">
        <ele>139</ele>
        <time>2025-06-18T16:47:56Z</time>
      </trkpt>
      <trkpt lat="43.6441" lon="1.39173">
        <ele>139</ele>
        <time>2025-06-18T16:47:57Z</time>
      </trkpt>
      <trkpt lat="43.6441" lon="1.39176">
        <ele>139</ele>
        <time>2025-06-18T16:47:58Z</time>
      </trkpt>
      <trkpt lat="43.64411" lon="1.39179">
        <ele>138</ele>
        <time>2025-06-18T16:47:59Z</time>
      </trkpt>
      <trkpt lat="43.64411" lon="1.39182">
        <ele>138</ele>
        <time>2025-06-18T16:48:00Z</time>
      </trkpt>
      <trkpt lat="43.64411" lon="1.39182">
        <ele>138</ele>
        <time>2025-06-18T16:48:01Z</time>
      </trkpt>
      <trkpt lat="43.64414" lon="1.39187">
        <ele>138</ele>
        <time>2025-06-18T16:48:02Z</time>
      </trkpt>
      <trkpt lat="43.64414" lon="1.39187">
        <ele>137</ele>
        <time>2025-06-18T16:48:03Z</time>
      </trkpt>
      <trkpt lat="43.64416" lon="1.39192">
        <ele>137</ele>
        <time>2025-06-18T16:48:04Z</time>
      </trkpt>
      <trkpt lat="43.64418" lon="1.39194">
        <ele>137</ele>
        <time>2025-06-18T16:48:05Z</time>
      </trkpt>
      <trkpt lat="43.64419" lon="1.39196">
        <ele>136</ele>
        <time>2025-06-18T16:48:06Z</time>
      </trkpt>
      <trkpt lat="43.64419" lon="1.39196">
        <ele>136</ele>
        <time>2025-06-18T16:48:07Z</time>
      </trkpt>
      <trkpt lat="43.64423" lon="1.392">
        <ele>136</ele>
        <time>2025-06-18T16:48:08Z</time>
      </trkpt>
      <trkpt lat="43.64425" lon="1.39201">
        <ele>136</ele>
        <time>2025-06-18T16:48:09Z</time>
      </trkpt>
      <trkpt lat="43.64425" lon="1.39201">
        <ele>136</ele>
        <time>2025-06-18T16:48:10Z</time>
      </trkpt>
      <trkpt lat="43.64428" lon="1.39205">
        <ele>136</ele>
        <time>2025-06-18T16:48:11Z</time>
      </trkpt>
      <trkpt lat="43.64428" lon="1.39205">
        <ele>136</ele>
        <time>2025-06-18T16:48:12Z</time>
      </trkpt>
      <trkpt lat="43.6443" lon="1.3921">
        <ele>136</ele>
        <time>2025-06-18T16:48:13Z</time>
      </trkpt>
      <trkpt lat="43.6443" lon="1.3921">
        <ele>135</ele>
        <time>2025-06-18T16:48:14Z</time>
      </trkpt>
      <trkpt lat="43.64434" lon="1.39213">
        <ele>135</ele>
        <time>2025-06-18T16:48:15Z</time>
      </trkpt>
      <trkpt lat="43.64435" lon="1.39216">
        <ele>135</ele>
        <time>2025-06-18T16:48:16Z</time>
      </trkpt>
      <trkpt lat="43.64435" lon="1.39216">
        <ele>135</ele>
        <time>2025-06-18T16:48:17Z</time>
      </trkpt>
      <trkpt lat="43.64438" lon="1.39219">
        <ele>134</ele>
        <time>2025-06-18T16:48:18Z</time>
      </trkpt>
      <trkpt lat="43.64438" lon="1.39219">
        <ele>134</ele>
        <time>2025-06-18T16:48:19Z</time>
      </trkpt>
      <trkpt lat="43.64441" lon="1.39223">
        <ele>134</ele>
        <time>2025-06-18T16:48:20Z</time>
      </trkpt>
      <trkpt lat="43.6444" lon="1.39225">
        <ele>133</ele>
        <time>2025-06-18T16:48:21Z</time>
      </trkpt>
      <trkpt lat="43.64438" lon="1.39224">
        <ele>132</ele>
        <time>2025-06-18T16:48:22Z</time>
      </trkpt>
      <trkpt lat="43.64438" lon="1.39224">
        <ele>131</ele>
        <time>2025-06-18T16:48:23Z</time>
      </trkpt>
      <trkpt lat="43.64435" lon="1.39222">
        <ele>131</ele>
        <time>2025-06-18T16:48:24Z</time>
      </trkpt>
      <trkpt lat="43.64431" lon="1.39216">
        <ele>131</ele>
        <time>2025-06-18T16:48:25Z</time>
      </trkpt>
      <trkpt lat="43.64431" lon="1.39216">
        <ele>132</ele>
        <time>2025-06-18T16:48:26Z</time>
      </trkpt>
      <trkpt lat="43.64426" lon="1.3921">
        <ele>133</ele>
        <time>2025-06-18T16:48:27Z</time>
      </trkpt>
      <trkpt lat="43.64423" lon="1.39207">
        <ele>133</ele>
        <time>2025-06-18T16:48:28Z</time>
      </trkpt>
      <trkpt lat="43.64421" lon="1.39204">
        <ele>133</ele>
        <time>2025-06-18T16:48:29Z</time>
      </trkpt>
      <trkpt lat="43.64419" lon="1.39202">
        <ele>134</ele>
        <time>2025-06-18T16:48:30Z</time>
      </trkpt>
      <trkpt lat="43.64419" lon="1.39202">
        <ele>135</ele>
        <time>2025-06-18T16:48:31Z</time>
      </trkpt>
      <trkpt lat="43.64414" lon="1.39197">
        <ele>135</ele>
        <time>2025-06-18T16:48:32Z</time>
      </trkpt>
      <trkpt lat="43.64414" lon="1.39197">
        <ele>135</ele>
        <time>2025-06-18T16:48:33Z</time>
      </trkpt>
      <trkpt lat="43.6441" lon="1.39191">
        <ele>135</ele>
        <time>2025-06-18T16:48:34Z</time>
      </trkpt>
      <trkpt lat="43.64409" lon="1.39187">
        <ele>135</ele>
        <time>2025-06-18T16:48:35Z</time>
      </trkpt>
      <trkpt lat="43.64409" lon="1.39182">
        <ele>135</ele>
        <time>2025-06-18T16:48:36Z</time>
      </trkpt>
      <trkpt lat="43.64409" lon="1.39182">
        <ele>136</ele>
        <time>2025-06-18T16:48:37Z</time>
      </trkpt>
      <trkpt lat="43.64408" lon="1.39177">
        <ele>136</ele>
        <time>2025-06-18T16:48:38Z</time>
      </trkpt>
      <trkpt lat="43.64408" lon="1.39173">
        <ele>137</ele>
        <time>2025-06-18T16:48:39Z</time>
      </trkpt>
      <trkpt lat="43.64408" lon="1.39164">
        <ele>138</ele>
        <time>2025-06-18T16:48:40Z</time>
      </trkpt>
      <trkpt lat="43.64408" lon="1.39164">
        <ele>138</ele>
        <time>2025-06-18T16:48:41Z</time>
      </trkpt>
      <trkpt lat="43.64409" lon="1.39155">
        <ele>139</ele>
        <time>2025-06-18T16:48:42Z</time>
      </trkpt>
      <trkpt lat="43.64409" lon="1.39155">
        <ele>139</ele>
        <time>2025-06-18T16:48:43Z</time>
      </trkpt>
      <trkpt lat="43.64409" lon="1.39151">
        <ele>140</ele>
        <time>2025-06-18T16:48:44Z</time>
      </trkpt>
      <trkpt lat="43.6441" lon="1.39147">
        <ele>140</ele>
        <time>2025-06-18T16:48:45Z</time>
      </trkpt>
      <trkpt lat="43.64411" lon="1.39143">
        <ele>140</ele>
        <time>2025-06-18T16:48:46Z</time>
      </trkpt>
      <trkpt lat="43.64412" lon="1.39136">
        <ele>140</ele>
        <time>2025-06-18T16:48:47Z</time>
      </trkpt>
      <trkpt lat="43.64412" lon="1.39136">
        <ele>141</ele>
        <time>2025-06-18T16:48:48Z</time>
      </trkpt>
      <trkpt lat="43.64414" lon="1.39128">
        <ele>141</ele>
        <time>2025-06-18T16:48:49Z</time>
      </trkpt>
      <trkpt lat="43.64415" lon="1.39125">
        <ele>142</ele>
        <time>2025-06-18T16:48:50Z</time>
      </trkpt>
      <trkpt lat="43.64416" lon="1.39121">
        <ele>141</ele>
        <time>2025-06-18T16:48:51Z</time>
      </trkpt>
      <trkpt lat="43.64417" lon="1.39117">
        <ele>141</ele>
        <time>2025-06-18T16:48:52Z</time>
      </trkpt>
      <trkpt lat="43.64417" lon="1.39117">
        <ele>141</ele>
        <time>2025-06-18T16:48:53Z</time>
      </trkpt>
      <trkpt lat="43.64418" lon="1.39114">
        <ele>141</ele>
        <time>2025-06-18T16:48:54Z</time>
      </trkpt>
      <trkpt lat="43.64418" lon="1.39114">
        <ele>141</ele>
        <time>2025-06-18T16:48:55Z</time>
      </trkpt>
      <trkpt lat="43.64417" lon="1.39117">
        <ele>142</ele>
        <time>2025-06-18T16:48:56Z</time>
      </trkpt>
      <trkpt lat="43.64417" lon="1.39117">
        <ele>142</ele>
        <time>2025-06-18T16:48:57Z</time>
      </trkpt>
      <trkpt lat="43.64416" lon="1.39122">
        <ele>143</ele>
        <time>2025-06-18T16:48:58Z</time>
      </trkpt>
      <trkpt lat="43.64415" lon="1.39125">
        <ele>144</ele>
        <time>2025-06-18T16:48:59Z</time>
      </trkpt>
      <trkpt lat="43.64415" lon="1.39125">
        <ele>143</ele>
        <time>2025-06-18T16:49:00Z</time>
      </trkpt>
      <trkpt lat="43.64414" lon="1.3913">
        <ele>143</ele>
        <time>2025-06-18T16:49:01Z</time>
      </trkpt>
      <trkpt lat="43.64414" lon="1.3913">
        <ele>142</ele>
        <time>2025-06-18T16:49:02Z</time>
      </trkpt>
      <trkpt lat="43.64413" lon="1.39136">
        <ele>142</ele>
        <time>2025-06-18T16:49:03Z</time>
      </trkpt>
      <trkpt lat="43.64413" lon="1.39136">
        <ele>141</ele>
        <time>2025-06-18T16:49:04Z</time>
      </trkpt>
      <trkpt lat="43.64412" lon="1.39139">
        <ele>141</ele>
        <time>2025-06-18T16:49:05Z</time>
      </trkpt>
      <trkpt lat="43.64412" lon="1.39144">
        <ele>141</ele>
        <time>2025-06-18T16:49:06Z</time>
      </trkpt>
      <trkpt lat="43.64412" lon="1.39148">
        <ele>140</ele>
        <time>2025-06-18T16:49:07Z</time>
      </trkpt>
      <trkpt lat="43.64411" lon="1.3915">
        <ele>140</ele>
        <time>2025-06-18T16:49:08Z</time>
      </trkpt>
      <trkpt lat="43.64411" lon="1.3915">
        <ele>140</ele>
        <time>2025-06-18T16:49:09Z</time>
      </trkpt>
      <trkpt lat="43.6441" lon="1.39156">
        <ele>140</ele>
        <time>2025-06-18T16:49:10Z</time>
      </trkpt>
      <trkpt lat="43.6441" lon="1.39156">
        <ele>140</ele>
        <time>2025-06-18T16:49:11Z</time>
      </trkpt>
      <trkpt lat="43.6441" lon="1.39162">
        <ele>139</ele>
        <time>2025-06-18T16:49:12Z</time>
      </trkpt>
      <trkpt lat="43.6441" lon="1.39162">
        <ele>139</ele>
        <time>2025-06-18T16:49:13Z</time>
      </trkpt>
      <trkpt lat="43.6441" lon="1.39165">
        <ele>139</ele>
        <time>2025-06-18T16:49:14Z</time>
      </trkpt>
      <trkpt lat="43.64409" lon="1.39168">
        <ele>139</ele>
        <time>2025-06-18T16:49:15Z</time>
      </trkpt>
      <trkpt lat="43.6441" lon="1.39172">
        <ele>138</ele>
        <time>2025-06-18T16:49:16Z</time>
      </trkpt>
      <trkpt lat="43.6441" lon="1.39177">
        <ele>138</ele>
        <time>2025-06-18T16:49:17Z</time>
      </trkpt>
      <trkpt lat="43.6441" lon="1.3918">
        <ele>138</ele>
        <time>2025-06-18T16:49:18Z</time>
      </trkpt>
      <trkpt lat="43.6441" lon="1.3918">
        <ele>137</ele>
        <time>2025-06-18T16:49:19Z</time>
      </trkpt>
      <trkpt lat="43.64412" lon="1.39186">
        <ele>137</ele>
        <time>2025-06-18T16:49:20Z</time>
      </trkpt>
      <trkpt lat="43.64412" lon="1.39186">
        <ele>137</ele>
        <time>2025-06-18T16:49:21Z</time>
      </trkpt>
      <trkpt lat="43.64413" lon="1.39188">
        <ele>137</ele>
        <time>2025-06-18T16:49:22Z</time>
      </trkpt>
      <trkpt lat="43.64415" lon="1.39191">
        <ele>137</ele>
        <time>2025-06-18T16:49:23Z</time>
      </trkpt>
      <trkpt lat="43.64417" lon="1.39193">
        <ele>137</ele>
        <time>2025-06-18T16:49:24Z</time>
      </trkpt>
      <trkpt lat="43.64417" lon="1.39193">
        <ele>137</ele>
        <time>2025-06-18T16:49:25Z</time>
      </trkpt>
      <trkpt lat="43.6442" lon="1.39198">
        <ele>137</ele>
        <time>2025-06-18T16:49:26Z</time>
      </trkpt>
      <trkpt lat="43.64421" lon="1.392">
        <ele>137</ele>
        <time>2025-06-18T16:49:27Z</time>
      </trkpt>
      <trkpt lat="43.64421" lon="1.392">
        <ele>136</ele>
        <time>2025-06-18T16:49:28Z</time>
      </trkpt>
      <trkpt lat="43.64424" lon="1.39204">
        <ele>136</ele>
        <time>2025-06-18T16:49:29Z</time>
      </trkpt>
      <trkpt lat="43.64427" lon="1.39206">
        <ele>136</ele>
        <time>2025-06-18T16:49:30Z</time>
      </trkpt>
      <trkpt lat="43.64428" lon="1.39207">
        <ele>136</ele>
        <time>2025-06-18T16:49:31Z</time>
      </trkpt>
      <trkpt lat="43.64428" lon="1.39207">
        <ele>135</ele>
        <time>2025-06-18T16:49:32Z</time>
      </trkpt>
      <trkpt lat="43.6443" lon="1.39209">
        <ele>135</ele>
        <time>2025-06-18T16:49:33Z</time>
      </trkpt>
      <trkpt lat="43.64431" lon="1.39211">
        <ele>134</ele>
        <time>2025-06-18T16:49:34Z</time>
      </trkpt>
      <trkpt lat="43.64432" lon="1.39214">
        <ele>134</ele>
        <time>2025-06-18T16:49:35Z</time>
      </trkpt>
      <trkpt lat="43.64436" lon="1.39216">
        <ele>134</ele>
        <time>2025-06-18T16:49:36Z</time>
      </trkpt>
      <trkpt lat="43.64437" lon="1.39217">
        <ele>134</ele>
        <time>2025-06-18T16:49:37Z</time>
      </trkpt>
      <trkpt lat="43.64439" lon="1.39219">
        <ele>134</ele>
        <time>2025-06-18T16:49:38Z</time>
      </trkpt>
      <trkpt lat="43.64441" lon="1.3922">
        <ele>133</ele>
        <time>2025-06-18T16:49:39Z</time>
      </trkpt>
      <trkpt lat="43.64441" lon="1.3922">
        <ele>133</ele>
        <time>2025-06-18T16:49:40Z</time>
      </trkpt>
      <trkpt lat="43.64441" lon="1.3922">
        <ele>133</ele>
        <time>2025-06-18T16:49:41Z</time>
      </trkpt>
      <trkpt lat="43.64441" lon="1.39223">
        <ele>132</ele>
        <time>2025-06-18T16:49:42Z</time>
      </trkpt>
      <trkpt lat="43.64436" lon="1.39219">
        <ele>132</ele>
        <time>2025-06-18T16:49:43Z</time>
      </trkpt>
      <trkpt lat="43.64434" lon="1.39215">
        <ele>131</ele>
        <time>2025-06-18T16:49:44Z</time>
      </trkpt>
      <trkpt lat="43.64434" lon="1.39215">
        <ele>131</ele>
        <time>2025-06-18T16:49:45Z</time>
      </trkpt>
      <trkpt lat="43.64429" lon="1.39209">
        <ele>132</ele>
        <time>2025-06-18T16:49:46Z</time>
      </trkpt>
      <trkpt lat="43.64429" lon="1.39209">
        <ele>132</ele>
        <time>2025-06-18T16:49:47Z</time>
      </trkpt>
      <trkpt lat="43.64425" lon="1.39204">
        <ele>132</ele>
        <time>2025-06-18T16:49:48Z</time>
      </trkpt>
      <trkpt lat="43.64425" lon="1.39204">
        <ele>133</ele>
        <time>2025-06-18T16:49:49Z</time>
      </trkpt>
      <trkpt lat="43.6442" lon="1.39199">
        <ele>134</ele>
        <time>2025-06-18T16:49:50Z</time>
      </trkpt>
      <trkpt lat="43.6442" lon="1.39199">
        <ele>134</ele>
        <time>2025-06-18T16:49:51Z</time>
      </trkpt>
      <trkpt lat="43.64418" lon="1.39196">
        <ele>135</ele>
        <time>2025-06-18T16:49:52Z</time>
      </trkpt>
      <trkpt lat="43.64414" lon="1.39191">
        <ele>135</ele>
        <time>2025-06-18T16:49:53Z</time>
      </trkpt>
      <trkpt lat="43.64414" lon="1.39191">
        <ele>135</ele>
        <time>2025-06-18T16:49:54Z</time>
      </trkpt>
      <trkpt lat="43.64411" lon="1.39183">
        <ele>136</ele>
        <time>2025-06-18T16:49:55Z</time>
      </trkpt>
      <trkpt lat="43.64411" lon="1.39183">
        <ele>137</ele>
        <time>2025-06-18T16:49:56Z</time>
      </trkpt>
      <trkpt lat="43.64409" lon="1.39176">
        <ele>137</ele>
        <time>2025-06-18T16:49:57Z</time>
      </trkpt>
      <trkpt lat="43.64409" lon="1.39176">
        <ele>138</ele>
        <time>2025-06-18T16:49:58Z</time>
      </trkpt>
      <trkpt lat="43.64409" lon="1.39172">
        <ele>138</ele>
        <time>2025-06-18T16:49:59Z</time>
      </trkpt>
      <trkpt lat="43.64408" lon="1.39165">
        <ele>138</ele>
        <time>2025-06-18T16:50:00Z</time>
      </trkpt>
      <trkpt lat="43.64408" lon="1.39161">
        <ele>138</ele>
        <time>2025-06-18T16:50:01Z</time>
      </trkpt>
      <trkpt lat="43.64408" lon="1.39161">
        <ele>138</ele>
        <time>2025-06-18T16:50:02Z</time>
      </trkpt>
      <trkpt lat="43.6441" lon="1.39153">
        <ele>139</ele>
        <time>2025-06-18T16:50:03Z</time>
      </trkpt>
      <trkpt lat="43.6441" lon="1.39153">
        <ele>139</ele>
        <time>2025-06-18T16:50:04Z</time>
      </trkpt>
      <trkpt lat="43.64411" lon="1.39146">
        <ele>140</ele>
        <time>2025-06-18T16:50:05Z</time>
      </trkpt>
      <trkpt lat="43.64411" lon="1.39146">
        <ele>140</ele>
        <time>2025-06-18T16:50:06Z</time>
      </trkpt>
      <trkpt lat="43.64413" lon="1.39138">
        <ele>140</ele>
        <time>2025-06-18T16:50:07Z</time>
      </trkpt>
      <trkpt lat="43.64413" lon="1.39134">
        <ele>140</ele>
        <time>2025-06-18T16:50:08Z</time>
      </trkpt>
      <trkpt lat="43.64414" lon="1.39129">
        <ele>140</ele>
        <time>2025-06-18T16:50:09Z</time>
      </trkpt>
      <trkpt lat="43.64415" lon="1.39125">
        <ele>140</ele>
        <time>2025-06-18T16:50:10Z</time>
      </trkpt>
      <trkpt lat="43.64415" lon="1.39125">
        <ele>141</ele>
        <time>2025-06-18T16:50:11Z</time>
      </trkpt>
      <trkpt lat="43.64417" lon="1.39118">
        <ele>141</ele>
        <time>2025-06-18T16:50:12Z</time>
      </trkpt>
      <trkpt lat="43.64417" lon="1.39118">
        <ele>142</ele>
        <time>2025-06-18T16:50:13Z</time>
      </trkpt>
      <trkpt lat="43.64418" lon="1.39116">
        <ele>142</ele>
        <time>2025-06-18T16:50:14Z</time>
      </trkpt>
      <trkpt lat="43.64418" lon="1.39116">
        <ele>142</ele>
        <time>2025-06-18T16:50:15Z</time>
      </trkpt>
      <trkpt lat="43.64417" lon="1.39117">
        <ele>142</ele>
        <time>2025-06-18T16:50:16Z</time>
      </trkpt>
      <trkpt lat="43.64417" lon="1.39117">
        <ele>142</ele>
        <time>2025-06-18T16:50:17Z</time>
      </trkpt>
      <trkpt lat="43.64416" lon="1.3912">
        <ele>142</ele>
        <time>2025-06-18T16:50:18Z</time>
      </trkpt>
      <trkpt lat="43.64416" lon="1.39123">
        <ele>142</ele>
        <time>2025-06-18T16:50:19Z</time>
      </trkpt>
      <trkpt lat="43.64415" lon="1.39126">
        <ele>142</ele>
        <time>2025-06-18T16:50:20Z</time>
      </trkpt>
      <trkpt lat="43.64414" lon="1.39129">
        <ele>142</ele>
        <time>2025-06-18T16:50:21Z</time>
      </trkpt>
      <trkpt lat="43.64413" lon="1.39132">
        <ele>142</ele>
        <time>2025-06-18T16:50:22Z</time>
      </trkpt>
      <trkpt lat="43.64413" lon="1.39135">
        <ele>142</ele>
        <time>2025-06-18T16:50:23Z</time>
      </trkpt>
      <trkpt lat="43.64413" lon="1.39138">
        <ele>141</ele>
        <time>2025-06-18T16:50:24Z</time>
      </trkpt>
      <trkpt lat="43.64412" lon="1.39141">
        <ele>141</ele>
        <time>2025-06-18T16:50:25Z</time>
      </trkpt>
      <trkpt lat="43.64412" lon="1.39144">
        <ele>141</ele>
        <time>2025-06-18T16:50:26Z</time>
      </trkpt>
      <trkpt lat="43.64412" lon="1.39147">
        <ele>141</ele>
        <time>2025-06-18T16:50:27Z</time>
      </trkpt>
      <trkpt lat="43.64411" lon="1.3915">
        <ele>140</ele>
        <time>2025-06-18T16:50:28Z</time>
      </trkpt>
      <trkpt lat="43.6441" lon="1.39156">
        <ele>140</ele>
        <time>2025-06-18T16:50:29Z</time>
      </trkpt>
      <trkpt lat="43.6441" lon="1.39156">
        <ele>140</ele>
        <time>2025-06-18T16:50:30Z</time>
      </trkpt>
      <trkpt lat="43.6441" lon="1.39161">
        <ele>139</ele>
        <time>2025-06-18T16:50:31Z</time>
      </trkpt>
      <trkpt lat="43.6441" lon="1.39164">
        <ele>139</ele>
        <time>2025-06-18T16:50:32Z</time>
      </trkpt>
      <trkpt lat="43.64411" lon="1.39168">
        <ele>139</ele>
        <time>2025-06-18T16:50:33Z</time>
      </trkpt>
      <trkpt lat="43.64411" lon="1.39171">
        <ele>139</ele>
        <time>2025-06-18T16:50:34Z</time>
      </trkpt>
      <trkpt lat="43.64411" lon="1.39171">
        <ele>139</ele>
        <time>2025-06-18T16:50:35Z</time>
      </trkpt>
      <trkpt lat="43.64412" lon="1.39177">
        <ele>138</ele>
        <time>2025-06-18T16:50:36Z</time>
      </trkpt>
      <trkpt lat="43.64412" lon="1.3918">
        <ele>138</ele>
        <time>2025-06-18T16:50:37Z</time>
      </trkpt>
      <trkpt lat="43.64412" lon="1.39182">
        <ele>138</ele>
        <time>2025-06-18T16:50:38Z</time>
      </trkpt>
      <trkpt lat="43.64414" lon="1.39184">
        <ele>138</ele>
        <time>2025-06-18T16:50:39Z</time>
      </trkpt>
      <trkpt lat="43.64414" lon="1.39184">
        <ele>138</ele>
        <time>2025-06-18T16:50:40Z</time>
      </trkpt>
      <trkpt lat="43.64415" lon="1.39186">
        <ele>137</ele>
        <time>2025-06-18T16:50:41Z</time>
      </trkpt>
      <trkpt lat="43.64416" lon="1.39189">
        <ele>137</ele>
        <time>2025-06-18T16:50:42Z</time>
      </trkpt>
      <trkpt lat="43.64418" lon="1.39194">
        <ele>137</ele>
        <time>2025-06-18T16:50:43Z</time>
      </trkpt>
      <trkpt lat="43.64418" lon="1.39194">
        <ele>136</ele>
        <time>2025-06-18T16:50:44Z</time>
      </trkpt>
      <trkpt lat="43.64421" lon="1.39198">
        <ele>136</ele>
        <time>2025-06-18T16:50:45Z</time>
      </trkpt>
      <trkpt lat="43.64421" lon="1.39198">
        <ele>136</ele>
        <time>2025-06-18T16:50:46Z</time>
      </trkpt>
      <trkpt lat="43.64422" lon="1.39199">
        <ele>136</ele>
        <time>2025-06-18T16:50:47Z</time>
      </trkpt>
      <trkpt lat="43.64424" lon="1.39201">
        <ele>136</ele>
        <time>2025-06-18T16:50:48Z</time>
      </trkpt>
      <trkpt lat="43.64428" lon="1.39204">
        <ele>136</ele>
        <time>2025-06-18T16:50:49Z</time>
      </trkpt>
      <trkpt lat="43.64428" lon="1.39204">
        <ele>136</ele>
        <time>2025-06-18T16:50:50Z</time>
      </trkpt>
      <trkpt lat="43.6443" lon="1.39209">
        <ele>136</ele>
        <time>2025-06-18T16:50:51Z</time>
      </trkpt>
      <trkpt lat="43.6443" lon="1.39209">
        <ele>135</ele>
        <time>2025-06-18T16:50:52Z</time>
      </trkpt>
      <trkpt lat="43.64432" lon="1.39212">
        <ele>134</ele>
        <time>2025-06-18T16:50:53Z</time>
      </trkpt>
      <trkpt lat="43.64435" lon="1.39216">
        <ele>134</ele>
        <time>2025-06-18T16:50:54Z</time>
      </trkpt>
      <trkpt lat="43.64435" lon="1.39216">
        <ele>134</ele>
        <time>2025-06-18T16:50:55Z</time>
      </trkpt>
      <trkpt lat="43.64439" lon="1.39219">
        <ele>133</ele>
        <time>2025-06-18T16:50:56Z</time>
      </trkpt>
      <trkpt lat="43.64441" lon="1.39221">
        <ele>133</ele>
        <time>2025-06-18T16:50:57Z</time>
      </trkpt>
      <trkpt lat="43.64442" lon="1.39222">
        <ele>133</ele>
        <time>2025-06-18T16:50:58Z</time>
      </trkpt>
      <trkpt lat="43.64442" lon="1.39222">
        <ele>133</ele>
        <time>2025-06-18T16:50:59Z</time>
      </trkpt>
      <trkpt lat="43.64442" lon="1.39222">
        <ele>131</ele>
        <time>2025-06-18T16:51:00Z</time>
      </trkpt>
      <trkpt lat="43.6444" lon="1.39223">
        <ele>131</ele>
        <time>2025-06-18T16:51:01Z</time>
      </trkpt>
      <trkpt lat="43.64437" lon="1.39221">
        <ele>131</ele>
        <time>2025-06-18T16:51:02Z</time>
      </trkpt>
      <trkpt lat="43.64435" lon="1.39217">
        <ele>131</ele>
        <time>2025-06-18T16:51:03Z</time>
      </trkpt>
      <trkpt lat="43.64429" lon="1.39211">
        <ele>131</ele>
        <time>2025-06-18T16:51:04Z</time>
      </trkpt>
      <trkpt lat="43.64429" lon="1.39211">
        <ele>132</ele>
        <time>2025-06-18T16:51:05Z</time>
      </trkpt>
      <trkpt lat="43.64426" lon="1.39208">
        <ele>133</ele>
        <time>2025-06-18T16:51:06Z</time>
      </trkpt>
      <trkpt lat="43.64423" lon="1.39205">
        <ele>133</ele>
        <time>2025-06-18T16:51:07Z</time>
      </trkpt>
      <trkpt lat="43.6442" lon="1.39203">
        <ele>133</ele>
        <time>2025-06-18T16:51:08Z</time>
      </trkpt>
      <trkpt lat="43.64418" lon="1.392">
        <ele>134</ele>
        <time>2025-06-18T16:51:09Z</time>
      </trkpt>
      <trkpt lat="43.64414" lon="1.39194">
        <ele>135</ele>
        <time>2025-06-18T16:51:10Z</time>
      </trkpt>
      <trkpt lat="43.64414" lon="1.39194">
        <ele>135</ele>
        <time>2025-06-18T16:51:11Z</time>
      </trkpt>
      <trkpt lat="43.6441" lon="1.39187">
        <ele>136</ele>
        <time>2025-06-18T16:51:12Z</time>
      </trkpt>
      <trkpt lat="43.64409" lon="1.39183">
        <ele>136</ele>
        <time>2025-06-18T16:51:13Z</time>
      </trkpt>
      <trkpt lat="43.64409" lon="1.39183">
        <ele>136</ele>
        <time>2025-06-18T16:51:14Z</time>
      </trkpt>
      <trkpt lat="43.64408" lon="1.39179">
        <ele>137</ele>
        <time>2025-06-18T16:51:15Z</time>
      </trkpt>
      <trkpt lat="43.64408" lon="1.39172">
        <ele>137</ele>
        <time>2025-06-18T16:51:16Z</time>
      </trkpt>
      <trkpt lat="43.64408" lon="1.39165">
        <ele>137</ele>
        <time>2025-06-18T16:51:17Z</time>
      </trkpt>
      <trkpt lat="43.64408" lon="1.39161">
        <ele>137</ele>
        <time>2025-06-18T16:51:18Z</time>
      </trkpt>
      <trkpt lat="43.64408" lon="1.39158">
        <ele>138</ele>
        <time>2025-06-18T16:51:19Z</time>
      </trkpt>
      <trkpt lat="43.64409" lon="1.39153">
        <ele>138</ele>
        <time>2025-06-18T16:51:20Z</time>
      </trkpt>
      <trkpt lat="43.6441" lon="1.3915">
        <ele>139</ele>
        <time>2025-06-18T16:51:22Z</time>
      </trkpt>
      <trkpt lat="43.6441" lon="1.3915">
        <ele>139</ele>
        <time>2025-06-18T16:51:23Z</time>
      </trkpt>
      <trkpt lat="43.64412" lon="1.39139">
        <ele>139</ele>
        <time>2025-06-18T16:51:24Z</time>
      </trkpt>
      <trkpt lat="43.64412" lon="1.39139">
        <ele>139</ele>
        <time>2025-06-18T16:51:25Z</time>
      </trkpt>
      <trkpt lat="43.64415" lon="1.39131">
        <ele>140</ele>
        <time>2025-06-18T16:51:26Z</time>
      </trkpt>
      <trkpt lat="43.64416" lon="1.39127">
        <ele>140</ele>
        <time>2025-06-18T16:51:27Z</time>
      </trkpt>
      <trkpt lat="43.64417" lon="1.39122">
        <ele>141</ele>
        <time>2025-06-18T16:51:28Z</time>
      </trkpt>
      <trkpt lat="43.64418" lon="1.39118">
        <ele>141</ele>
        <time>2025-06-18T16:51:29Z</time>
      </trkpt>
      <trkpt lat="43.64418" lon="1.39118">
        <ele>142</ele>
        <time>2025-06-18T16:51:30Z</time>
      </trkpt>
      <trkpt lat="43.64419" lon="1.39115">
        <ele>142</ele>
        <time>2025-06-18T16:51:31Z</time>
      </trkpt>
      <trkpt lat="43.64419" lon="1.39115">
        <ele>142</ele>
        <time>2025-06-18T16:51:32Z</time>
      </trkpt>
      <trkpt lat="43.64402" lon="1.39308">
        <ele>131</ele>
        <time>2025-06-18T16:54:17Z</time>
      </trkpt>
      <trkpt lat="43.64405" lon="1.39309">
        <ele>131</ele>
        <time>2025-06-18T16:54:18Z</time>
      </trkpt>
      <trkpt lat="43.64405" lon="1.39309">
        <ele>131</ele>
        <time>2025-06-18T16:54:19Z</time>
      </trkpt>
      <trkpt lat="43.6441" lon="1.39307">
        <ele>131</ele>
        <time>2025-06-18T16:54:20Z</time>
      </trkpt>
      <trkpt lat="43.64412" lon="1.39307">
        <ele>130</ele>
        <time>2025-06-18T16:54:21Z</time>
      </trkpt>
      <trkpt lat="43.64415" lon="1.39306">
        <ele>131</ele>
        <time>2025-06-18T16:54:22Z</time>
      </trkpt>
      <trkpt lat="43.64415" lon="1.39306">
        <ele>131</ele>
        <time>2025-06-18T16:54:23Z</time>
      </trkpt>
      <trkpt lat="43.64419" lon="1.39304">
        <ele>131</ele>
        <time>2025-06-18T16:54:24Z</time>
      </trkpt>
      <trkpt lat="43.64423" lon="1.39303">
        <ele>131</ele>
        <time>2025-06-18T16:54:25Z</time>
      </trkpt>
      <trkpt lat="43.64431" lon="1.39301">
        <ele>131</ele>
        <time>2025-06-18T16:54:26Z</time>
      </trkpt>
      <trkpt lat="43.64431" lon="1.39301">
        <ele>131</ele>
        <time>2025-06-18T16:54:27Z</time>
      </trkpt>
      <trkpt lat="43.64435" lon="1.39301">
        <ele>132</ele>
        <time>2025-06-18T16:54:28Z</time>
      </trkpt>
      <trkpt lat="43.64438" lon="1.39302">
        <ele>132</ele>
        <time>2025-06-18T16:54:29Z</time>
      </trkpt>
      <trkpt lat="43.64444" lon="1.39302">
        <ele>132</ele>
        <time>2025-06-18T16:54:30Z</time>
      </trkpt>
      <trkpt lat="43.64444" lon="1.39302">
        <ele>132</ele>
        <time>2025-06-18T16:54:31Z</time>
      </trkpt>
      <trkpt lat="43.64445" lon="1.393">
        <ele>132</ele>
        <time>2025-06-18T16:54:32Z</time>
      </trkpt>
      <trkpt lat="43.64447" lon="1.39299">
        <ele>133</ele>
        <time>2025-06-18T16:54:33Z</time>
      </trkpt>
      <trkpt lat="43.64448" lon="1.39297">
        <ele>133</ele>
        <time>2025-06-18T16:54:34Z</time>
      </trkpt>
      <trkpt lat="43.64449" lon="1.39296">
        <ele>133</ele>
        <time>2025-06-18T16:54:35Z</time>
      </trkpt>
      <trkpt lat="43.64454" lon="1.3929">
        <ele>133</ele>
        <time>2025-06-18T16:54:36Z</time>
      </trkpt>
      <trkpt lat="43.64454" lon="1.3929">
        <ele>133</ele>
        <time>2025-06-18T16:54:37Z</time>
      </trkpt>
      <trkpt lat="43.64452" lon="1.39281">
        <ele>133</ele>
        <time>2025-06-18T16:54:38Z</time>
      </trkpt>
      <trkpt lat="43.64451" lon="1.39277">
        <ele>133</ele>
        <time>2025-06-18T16:54:39Z</time>
      </trkpt>
      <trkpt lat="43.6445" lon="1.39273">
        <ele>133</ele>
        <time>2025-06-18T16:54:40Z</time>
      </trkpt>
      <trkpt lat="43.6445" lon="1.39273">
        <ele>133</ele>
        <time>2025-06-18T16:54:41Z</time>
      </trkpt>
      <trkpt lat="43.64449" lon="1.39268">
        <ele>133</ele>
        <time>2025-06-18T16:54:42Z</time>
      </trkpt>
      <trkpt lat="43.64448" lon="1.39264">
        <ele>133</ele>
        <time>2025-06-18T16:54:43Z</time>
      </trkpt>
      <trkpt lat="43.64445" lon="1.39255">
        <ele>133</ele>
        <time>2025-06-18T16:54:44Z</time>
      </trkpt>
      <trkpt lat="43.64445" lon="1.39255">
        <ele>133</ele>
        <time>2025-06-18T16:54:45Z</time>
      </trkpt>
      <trkpt lat="43.6444" lon="1.39247">
        <ele>133</ele>
        <time>2025-06-18T16:54:46Z</time>
      </trkpt>
      <trkpt lat="43.64438" lon="1.39243">
        <ele>133</ele>
        <time>2025-06-18T16:54:47Z</time>
      </trkpt>
      <trkpt lat="43.64438" lon="1.39243">
        <ele>133</ele>
        <time>2025-06-18T16:54:48Z</time>
      </trkpt>
      <trkpt lat="43.64436" lon="1.3924">
        <ele>133</ele>
        <time>2025-06-18T16:54:49Z</time>
      </trkpt>
      <trkpt lat="43.64433" lon="1.39236">
        <ele>133</ele>
        <time>2025-06-18T16:54:50Z</time>
      </trkpt>
      <trkpt lat="43.64431" lon="1.39232">
        <ele>133</ele>
        <time>2025-06-18T16:54:51Z</time>
      </trkpt>
      <trkpt lat="43.64428" lon="1.39228">
        <ele>133</ele>
        <time>2025-06-18T16:54:52Z</time>
      </trkpt>
      <trkpt lat="43.64425" lon="1.3922">
        <ele>133</ele>
        <time>2025-06-18T16:54:53Z</time>
      </trkpt>
      <trkpt lat="43.64422" lon="1.39216">
        <ele>133</ele>
        <time>2025-06-18T16:54:54Z</time>
      </trkpt>
      <trkpt lat="43.64421" lon="1.39212">
        <ele>133</ele>
        <time>2025-06-18T16:54:56Z</time>
      </trkpt>
      <trkpt lat="43.6442" lon="1.39209">
        <ele>133</ele>
        <time>2025-06-18T16:54:57Z</time>
      </trkpt>
      <trkpt lat="43.64418" lon="1.39207">
        <ele>134</ele>
        <time>2025-06-18T16:54:58Z</time>
      </trkpt>
      <trkpt lat="43.64417" lon="1.39204">
        <ele>135</ele>
        <time>2025-06-18T16:54:59Z</time>
      </trkpt>
      <trkpt lat="43.64414" lon="1.39196">
        <ele>135</ele>
        <time>2025-06-18T16:55:00Z</time>
      </trkpt>
      <trkpt lat="43.64412" lon="1.39192">
        <ele>136</ele>
        <time>2025-06-18T16:55:01Z</time>
      </trkpt>
      <trkpt lat="43.6441" lon="1.39183">
        <ele>136</ele>
        <time>2025-06-18T16:55:02Z</time>
      </trkpt>
      <trkpt lat="43.64409" lon="1.39179">
        <ele>136</ele>
        <time>2025-06-18T16:55:03Z</time>
      </trkpt>
      <trkpt lat="43.64409" lon="1.39179">
        <ele>136</ele>
        <time>2025-06-18T16:55:04Z</time>
      </trkpt>
      <trkpt lat="43.64408" lon="1.39171">
        <ele>136</ele>
        <time>2025-06-18T16:55:05Z</time>
      </trkpt>
      <trkpt lat="43.64408" lon="1.39171">
        <ele>137</ele>
        <time>2025-06-18T16:55:06Z</time>
      </trkpt>
      <trkpt lat="43.64408" lon="1.39163">
        <ele>137</ele>
        <time>2025-06-18T16:55:07Z</time>
      </trkpt>
      <trkpt lat="43.64408" lon="1.39163">
        <ele>137</ele>
        <time>2025-06-18T16:55:08Z</time>
      </trkpt>
      <trkpt lat="43.64408" lon="1.39156">
        <ele>138</ele>
        <time>2025-06-18T16:55:09Z</time>
      </trkpt>
      <trkpt lat="43.64409" lon="1.39153">
        <ele>138</ele>
        <time>2025-06-18T16:55:10Z</time>
      </trkpt>
      <trkpt lat="43.6441" lon="1.39149">
        <ele>139</ele>
        <time>2025-06-18T16:55:11Z</time>
      </trkpt>
      <trkpt lat="43.64411" lon="1.39145">
        <ele>139</ele>
        <time>2025-06-18T16:55:12Z</time>
      </trkpt>
      <trkpt lat="43.64411" lon="1.39145">
        <ele>139</ele>
        <time>2025-06-18T16:55:13Z</time>
      </trkpt>
      <trkpt lat="43.64412" lon="1.39141">
        <ele>139</ele>
        <time>2025-06-18T16:55:14Z</time>
      </trkpt>
      <trkpt lat="43.64412" lon="1.39137">
        <ele>139</ele>
        <time>2025-06-18T16:55:15Z</time>
      </trkpt>
      <trkpt lat="43.64413" lon="1.39133">
        <ele>139</ele>
        <time>2025-06-18T16:55:16Z</time>
      </trkpt>
      <trkpt lat="43.64415" lon="1.39127">
        <ele>141</ele>
        <time>2025-06-18T16:55:17Z</time>
      </trkpt>
      <trkpt lat="43.64416" lon="1.3912">
        <ele>141</ele>
        <time>2025-06-18T16:55:18Z</time>
      </trkpt>
      <trkpt lat="43.64418" lon="1.39116">
        <ele>141</ele>
        <time>2025-06-18T16:55:19Z</time>
      </trkpt>
      <trkpt lat="43.64418" lon="1.39112">
        <ele>141</ele>
        <time>2025-06-18T16:55:20Z</time>
      </trkpt>
      <trkpt lat="43.6442" lon="1.39108">
        <ele>142</ele>
        <time>2025-06-18T16:55:21Z</time>
      </trkpt>
      <trkpt lat="43.6442" lon="1.39108">
        <ele>142</ele>
        <time>2025-06-18T16:55:22Z</time>
      </trkpt>
      <trkpt lat="43.64422" lon="1.39103">
        <ele>142</ele>
        <time>2025-06-18T16:55:23Z</time>
      </trkpt>
      <trkpt lat="43.64425" lon="1.39098">
        <ele>142</ele>
        <time>2025-06-18T16:55:24Z</time>
      </trkpt>
      <trkpt lat="43.64425" lon="1.39098">
        <ele>143</ele>
        <time>2025-06-18T16:55:25Z</time>
      </trkpt>
      <trkpt lat="43.64428" lon="1.39092">
        <ele>143</ele>
        <time>2025-06-18T16:55:26Z</time>
      </trkpt>
      <trkpt lat="43.64428" lon="1.39092">
        <ele>143</ele>
        <time>2025-06-18T16:55:27Z</time>
      </trkpt>
      <trkpt lat="43.64431" lon="1.39087">
        <ele>144</ele>
        <time>2025-06-18T16:55:28Z</time>
      </trkpt>
      <trkpt lat="43.64431" lon="1.39087">
        <ele>144</ele>
        <time>2025-06-18T16:55:29Z</time>
      </trkpt>
      <trkpt lat="43.64432" lon="1.39085">
        <ele>144</ele>
        <time>2025-06-18T16:55:30Z</time>
      </trkpt>
      <trkpt lat="43.64432" lon="1.39085">
        <ele>144</ele>
        <time>2025-06-18T16:55:31Z</time>
      </trkpt>
      <trkpt lat="43.64434" lon="1.39082">
        <ele>144</ele>
        <time>2025-06-18T16:55:32Z</time>
      </trkpt>
      <trkpt lat="43.64434" lon="1.39082">
        <ele>144</ele>
        <time>2025-06-18T16:55:33Z</time>
      </trkpt>
      <trkpt lat="43.64434" lon="1.39082">
        <ele>144</ele>
        <time>2025-06-18T16:55:34Z</time>
      </trkpt>
      <trkpt lat="43.64434" lon="1.39082">
        <ele>144</ele>
        <time>2025-06-18T16:55:35Z</time>
      </trkpt>
      <trkpt lat="43.64435" lon="1.39079">
        <ele>144</ele>
        <time>2025-06-18T16:55:36Z</time>
      </trkpt>
      <trkpt lat="43.64435" lon="1.39079">
        <ele>144</ele>
        <time>2025-06-18T16:55:37Z</time>
      </trkpt>
      <trkpt lat="43.64435" lon="1.39079">
        <ele>144</ele>
        <time>2025-06-18T16:55:38Z</time>
      </trkpt>
      <trkpt lat="43.64437" lon="1.39076">
        <ele>144</ele>
        <time>2025-06-18T16:55:39Z</time>
      </trkpt>
      <trkpt lat="43.64439" lon="1.39073">
        <ele>144</ele>
        <time>2025-06-18T16:55:40Z</time>
      </trkpt>
      <trkpt lat="43.64439" lon="1.39073">
        <ele>144</ele>
        <time>2025-06-18T16:55:41Z</time>
      </trkpt>
      <trkpt lat="43.6444" lon="1.3907">
        <ele>144</ele>
        <time>2025-06-18T16:55:42Z</time>
      </trkpt>
      <trkpt lat="43.6444" lon="1.3907">
        <ele>145</ele>
        <time>2025-06-18T16:55:43Z</time>
      </trkpt>
      <trkpt lat="43.6444" lon="1.3907">
        <ele>145</ele>
        <time>2025-06-18T16:55:44Z</time>
      </trkpt>
      <trkpt lat="43.64442" lon="1.39067">
        <ele>145</ele>
        <time>2025-06-18T16:55:45Z</time>
      </trkpt>
      <trkpt lat="43.64442" lon="1.39067">
        <ele>146</ele>
        <time>2025-06-18T16:55:46Z</time>
      </trkpt>
      <trkpt lat="43.64443" lon="1.39064">
        <ele>146</ele>
        <time>2025-06-18T16:55:47Z</time>
      </trkpt>
      <trkpt lat="43.64443" lon="1.39064">
        <ele>146</ele>
        <time>2025-06-18T16:55:48Z</time>
      </trkpt>
      <trkpt lat="43.64445" lon="1.39062">
        <ele>146</ele>
        <time>2025-06-18T16:55:49Z</time>
      </trkpt>
      <trkpt lat="43.64446" lon="1.39059">
        <ele>146</ele>
        <time>2025-06-18T16:55:50Z</time>
      </trkpt>
      <trkpt lat="43.64446" lon="1.39059">
        <ele>145</ele>
        <time>2025-06-18T16:55:51Z</time>
      </trkpt>
      <trkpt lat="43.64448" lon="1.39056">
        <ele>145</ele>
        <time>2025-06-18T16:55:52Z</time>
      </trkpt>
      <trkpt lat="43.64448" lon="1.39056">
        <ele>145</ele>
        <time>2025-06-18T16:55:53Z</time>
      </trkpt>
      <trkpt lat="43.6445" lon="1.39053">
        <ele>145</ele>
        <time>2025-06-18T16:55:54Z</time>
      </trkpt>
      <trkpt lat="43.6445" lon="1.39053">
        <ele>145</ele>
        <time>2025-06-18T16:55:55Z</time>
      </trkpt>
      <trkpt lat="43.64451" lon="1.3905">
        <ele>145</ele>
        <time>2025-06-18T16:55:56Z</time>
      </trkpt>
      <trkpt lat="43.64451" lon="1.3905">
        <ele>145</ele>
        <time>2025-06-18T16:55:57Z</time>
      </trkpt>
      <trkpt lat="43.64451" lon="1.3905">
        <ele>145</ele>
        <time>2025-06-18T16:55:58Z</time>
      </trkpt>
      <trkpt lat="43.64453" lon="1.39047">
        <ele>145</ele>
        <time>2025-06-18T16:55:59Z</time>
      </trkpt>
      <trkpt lat="43.64453" lon="1.39047">
        <ele>145</ele>
        <time>2025-06-18T16:56:00Z</time>
      </trkpt>
      <trkpt lat="43.64454" lon="1.39044">
        <ele>145</ele>
        <time>2025-06-18T16:56:01Z</time>
      </trkpt>
      <trkpt lat="43.64457" lon="1.39043">
        <ele>145</ele>
        <time>2025-06-18T16:56:02Z</time>
      </trkpt>
      <trkpt lat="43.64457" lon="1.39043">
        <ele>145</ele>
        <time>2025-06-18T16:56:03Z</time>
      </trkpt>
      <trkpt lat="43.64459" lon="1.39042">
        <ele>145</ele>
        <time>2025-06-18T16:56:04Z</time>
      </trkpt>
      <trkpt lat="43.64459" lon="1.39042">
        <ele>145</ele>
        <time>2025-06-18T16:56:05Z</time>
      </trkpt>
      <trkpt lat="43.64459" lon="1.39042">
        <ele>145</ele>
        <time>2025-06-18T16:56:06Z</time>
      </trkpt>
      <trkpt lat="43.64461" lon="1.39042">
        <ele>145</ele>
        <time>2025-06-18T16:56:07Z</time>
      </trkpt>
      <trkpt lat="43.64464" lon="1.39041">
        <ele>146</ele>
        <time>2025-06-18T16:56:08Z</time>
      </trkpt>
      <trkpt lat="43.64464" lon="1.39041">
        <ele>146</ele>
        <time>2025-06-18T16:56:09Z</time>
      </trkpt>
      <trkpt lat="43.64467" lon="1.39041">
        <ele>146</ele>
        <time>2025-06-18T16:56:10Z</time>
      </trkpt>
      <trkpt lat="43.64467" lon="1.39041">
        <ele>146</ele>
        <time>2025-06-18T16:56:11Z</time>
      </trkpt>
      <trkpt lat="43.64467" lon="1.39041">
        <ele>145</ele>
        <time>2025-06-18T16:56:12Z</time>
      </trkpt>
      <trkpt lat="43.64469" lon="1.3904">
        <ele>145</ele>
        <time>2025-06-18T16:56:13Z</time>
      </trkpt>
      <trkpt lat="43.64471" lon="1.39039">
        <ele>145</ele>
        <time>2025-06-18T16:56:14Z</time>
      </trkpt>
      <trkpt lat="43.64471" lon="1.39039">
        <ele>145</ele>
        <time>2025-06-18T16:56:15Z</time>
      </trkpt>
      <trkpt lat="43.64471" lon="1.39039">
        <ele>145</ele>
        <time>2025-06-18T16:56:16Z</time>
      </trkpt>
      <trkpt lat="43.64473" lon="1.39039">
        <ele>145</ele>
        <time>2025-06-18T16:56:17Z</time>
      </trkpt>
      <trkpt lat="43.64475" lon="1.39036">
        <ele>145</ele>
        <time>2025-06-18T16:56:18Z</time>
      </trkpt>
      <trkpt lat="43.64475" lon="1.39036">
        <ele>145</ele>
        <time>2025-06-18T16:56:19Z</time>
      </trkpt>
      <trkpt lat="43.64477" lon="1.39034">
        <ele>145</ele>
        <time>2025-06-18T16:56:20Z</time>
      </trkpt>
      <trkpt lat="43.64477" lon="1.39034">
        <ele>146</ele>
        <time>2025-06-18T16:56:21Z</time>
      </trkpt>
      <trkpt lat="43.64479" lon="1.39029">
        <ele>146</ele>
        <time>2025-06-18T16:56:22Z</time>
      </trkpt>
      <trkpt lat="43.6448" lon="1.39027">
        <ele>146</ele>
        <time>2025-06-18T16:56:23Z</time>
      </trkpt>
      <trkpt lat="43.6448" lon="1.39027">
        <ele>146</ele>
        <time>2025-06-18T16:56:24Z</time>
      </trkpt>
      <trkpt lat="43.64481" lon="1.39024">
        <ele>145</ele>
        <time>2025-06-18T16:56:25Z</time>
      </trkpt>
      <trkpt lat="43.64482" lon="1.39022">
        <ele>145</ele>
        <time>2025-06-18T16:56:26Z</time>
      </trkpt>
      <trkpt lat="43.64484" lon="1.39016">
        <ele>145</ele>
        <time>2025-06-18T16:56:27Z</time>
      </trkpt>
      <trkpt lat="43.64485" lon="1.39014">
        <ele>145</ele>
        <time>2025-06-18T16:56:28Z</time>
      </trkpt>
      <trkpt lat="43.64486" lon="1.39011">
        <ele>145</ele>
        <time>2025-06-18T16:56:29Z</time>
      </trkpt>
      <trkpt lat="43.64487" lon="1.39008">
        <ele>146</ele>
        <time>2025-06-18T16:56:30Z</time>
      </trkpt>
      <trkpt lat="43.64487" lon="1.39008">
        <ele>146</ele>
        <time>2025-06-18T16:56:31Z</time>
      </trkpt>
      <trkpt lat="43.64489" lon="1.39002">
        <ele>146</ele>
        <time>2025-06-18T16:56:32Z</time>
      </trkpt>
      <trkpt lat="43.64489" lon="1.39002">
        <ele>146</ele>
        <time>2025-06-18T16:56:33Z</time>
      </trkpt>
      <trkpt lat="43.64491" lon="1.38995">
        <ele>146</ele>
        <time>2025-06-18T16:56:34Z</time>
      </trkpt>
      <trkpt lat="43.64492" lon="1.38991">
        <ele>146</ele>
        <time>2025-06-18T16:56:35Z</time>
      </trkpt>
      <trkpt lat="43.64492" lon="1.38991">
        <ele>146</ele>
        <time>2025-06-18T16:56:36Z</time>
      </trkpt>
      <trkpt lat="43.64494" lon="1.38984">
        <ele>146</ele>
        <time>2025-06-18T16:56:37Z</time>
      </trkpt>
      <trkpt lat="43.64495" lon="1.38981">
        <ele>146</ele>
        <time>2025-06-18T16:56:38Z</time>
      </trkpt>
      <trkpt lat="43.64496" lon="1.38978">
        <ele>146</ele>
        <time>2025-06-18T16:56:39Z</time>
      </trkpt>
      <trkpt lat="43.64497" lon="1.38974">
        <ele>146</ele>
        <time>2025-06-18T16:56:40Z</time>
      </trkpt>
      <trkpt lat="43.64497" lon="1.38974">
        <ele>146</ele>
        <time>2025-06-18T16:56:41Z</time>
      </trkpt>
      <trkpt lat="43.64498" lon="1.38971">
        <ele>146</ele>
        <time>2025-06-18T16:56:42Z</time>
      </trkpt>
      <trkpt lat="43.64499" lon="1.38968">
        <ele>145</ele>
        <time>2025-06-18T16:56:43Z</time>
      </trkpt>
      <trkpt lat="43.64502" lon="1.38962">
        <ele>145</ele>
        <time>2025-06-18T16:56:44Z</time>
      </trkpt>
      <trkpt lat="43.64502" lon="1.38962">
        <ele>145</ele>
        <time>2025-06-18T16:56:45Z</time>
      </trkpt>
      <trkpt lat="43.64504" lon="1.38956">
        <ele>145</ele>
        <time>2025-06-18T16:56:46Z</time>
      </trkpt>
      <trkpt lat="43.64505" lon="1.38953">
        <ele>145</ele>
        <time>2025-06-18T16:56:47Z</time>
      </trkpt>
      <trkpt lat="43.64506" lon="1.38949">
        <ele>145</ele>
        <time>2025-06-18T16:56:48Z</time>
      </trkpt>
      <trkpt lat="43.64506" lon="1.38945">
        <ele>145</ele>
        <time>2025-06-18T16:56:49Z</time>
      </trkpt>
      <trkpt lat="43.64506" lon="1.38945">
        <ele>145</ele>
        <time>2025-06-18T16:56:50Z</time>
      </trkpt>
      <trkpt lat="43.64508" lon="1.38939">
        <ele>145</ele>
        <time>2025-06-18T16:56:51Z</time>
      </trkpt>
      <trkpt lat="43.64509" lon="1.38937">
        <ele>145</ele>
        <time>2025-06-18T16:56:52Z</time>
      </trkpt>
      <trkpt lat="43.6451" lon="1.38934">
        <ele>145</ele>
        <time>2025-06-18T16:56:53Z</time>
      </trkpt>
      <trkpt lat="43.64511" lon="1.3893">
        <ele>145</ele>
        <time>2025-06-18T16:56:54Z</time>
      </trkpt>
      <trkpt lat="43.64513" lon="1.38927">
        <ele>146</ele>
        <time>2025-06-18T16:56:55Z</time>
      </trkpt>
      <trkpt lat="43.64514" lon="1.38924">
        <ele>146</ele>
        <time>2025-06-18T16:56:56Z</time>
      </trkpt>
      <trkpt lat="43.64514" lon="1.38924">
        <ele>146</ele>
        <time>2025-06-18T16:56:57Z</time>
      </trkpt>
      <trkpt lat="43.64514" lon="1.3892">
        <ele>146</ele>
        <time>2025-06-18T16:56:58Z</time>
      </trkpt>
      <trkpt lat="43.64513" lon="1.38914">
        <ele>146</ele>
        <time>2025-06-18T16:56:59Z</time>
      </trkpt>
      <trkpt lat="43.64512" lon="1.38911">
        <ele>146</ele>
        <time>2025-06-18T16:57:00Z</time>
      </trkpt>
      <trkpt lat="43.64512" lon="1.38911">
        <ele>145</ele>
        <time>2025-06-18T16:57:01Z</time>
      </trkpt>
      <trkpt lat="43.64511" lon="1.38904">
        <ele>145</ele>
        <time>2025-06-18T16:57:02Z</time>
      </trkpt>
      <trkpt lat="43.64511" lon="1.38904">
        <ele>145</ele>
        <time>2025-06-18T16:57:03Z</time>
      </trkpt>
      <trkpt lat="43.6451" lon="1.38902">
        <ele>145</ele>
        <time>2025-06-18T16:57:04Z</time>
      </trkpt>
      <trkpt lat="43.6451" lon="1.38896">
        <ele>145</ele>
        <time>2025-06-18T16:57:05Z</time>
      </trkpt>
      <trkpt lat="43.6451" lon="1.38896">
        <ele>145</ele>
        <time>2025-06-18T16:57:06Z</time>
      </trkpt>
      <trkpt lat="43.64508" lon="1.38889">
        <ele>146</ele>
        <time>2025-06-18T16:57:07Z</time>
      </trkpt>
      <trkpt lat="43.64508" lon="1.38885">
        <ele>146</ele>
        <time>2025-06-18T16:57:08Z</time>
      </trkpt>
      <trkpt lat="43.64508" lon="1.38885">
        <ele>146</ele>
        <time>2025-06-18T16:57:09Z</time>
      </trkpt>
      <trkpt lat="43.64507" lon="1.38879">
        <ele>146</ele>
        <time>2025-06-18T16:57:10Z</time>
      </trkpt>
      <trkpt lat="43.64507" lon="1.38876">
        <ele>146</ele>
        <time>2025-06-18T16:57:11Z</time>
      </trkpt>
      <trkpt lat="43.64507" lon="1.38873">
        <ele>146</ele>
        <time>2025-06-18T16:57:12Z</time>
      </trkpt>
      <trkpt lat="43.64507" lon="1.3887">
        <ele>146</ele>
        <time>2025-06-18T16:57:13Z</time>
      </trkpt>
      <trkpt lat="43.64507" lon="1.3887">
        <ele>146</ele>
        <time>2025-06-18T16:57:14Z</time>
      </trkpt>
      <trkpt lat="43.64509" lon="1.38862">
        <ele>146</ele>
        <time>2025-06-18T16:57:15Z</time>
      </trkpt>
      <trkpt lat="43.64509" lon="1.38862">
        <ele>146</ele>
        <time>2025-06-18T16:57:16Z</time>
      </trkpt>
      <trkpt lat="43.64513" lon="1.38858">
        <ele>146</ele>
        <time>2025-06-18T16:57:17Z</time>
      </trkpt>
      <trkpt lat="43.64513" lon="1.38858">
        <ele>146</ele>
        <time>2025-06-18T16:57:18Z</time>
      </trkpt>
      <trkpt lat="43.64515" lon="1.38856">
        <ele>146</ele>
        <time>2025-06-18T16:57:19Z</time>
      </trkpt>
      <trkpt lat="43.64517" lon="1.38855">
        <ele>146</ele>
        <time>2025-06-18T16:57:20Z</time>
      </trkpt>
      <trkpt lat="43.64522" lon="1.38851">
        <ele>146</ele>
        <time>2025-06-18T16:57:21Z</time>
      </trkpt>
      <trkpt lat="43.64522" lon="1.38851">
        <ele>146</ele>
        <time>2025-06-18T16:57:22Z</time>
      </trkpt>
      <trkpt lat="43.64525" lon="1.3885">
        <ele>146</ele>
        <time>2025-06-18T16:57:23Z</time>
      </trkpt>
      <trkpt lat="43.64525" lon="1.3885">
        <ele>146</ele>
        <time>2025-06-18T16:57:24Z</time>
      </trkpt>
      <trkpt lat="43.64528" lon="1.38848">
        <ele>146</ele>
        <time>2025-06-18T16:57:25Z</time>
      </trkpt>
      <trkpt lat="43.64532" lon="1.38845">
        <ele>146</ele>
        <time>2025-06-18T16:57:26Z</time>
      </trkpt>
      <trkpt lat="43.64534" lon="1.38843">
        <ele>146</ele>
        <time>2025-06-18T16:57:27Z</time>
      </trkpt>
      <trkpt lat="43.64534" lon="1.38843">
        <ele>146</ele>
        <time>2025-06-18T16:57:28Z</time>
      </trkpt>
      <trkpt lat="43.64539" lon="1.3884">
        <ele>146</ele>
        <time>2025-06-18T16:57:29Z</time>
      </trkpt>
      <trkpt lat="43.64539" lon="1.3884">
        <ele>146</ele>
        <time>2025-06-18T16:57:30Z</time>
      </trkpt>
      <trkpt lat="43.64545" lon="1.38839">
        <ele>146</ele>
        <time>2025-06-18T16:57:31Z</time>
      </trkpt>
      <trkpt lat="43.64546" lon="1.38839">
        <ele>146</ele>
        <time>2025-06-18T16:57:32Z</time>
      </trkpt>
      <trkpt lat="43.64546" lon="1.38839">
        <ele>146</ele>
        <time>2025-06-18T16:57:33Z</time>
      </trkpt>
      <trkpt lat="43.64551" lon="1.38838">
        <ele>146</ele>
        <time>2025-06-18T16:57:34Z</time>
      </trkpt>
      <trkpt lat="43.64551" lon="1.38838">
        <ele>146</ele>
        <time>2025-06-18T16:57:35Z</time>
      </trkpt>
      <trkpt lat="43.64553" lon="1.38839">
        <ele>146</ele>
        <time>2025-06-18T16:57:36Z</time>
      </trkpt>
      <trkpt lat="43.64556" lon="1.38839">
        <ele>146</ele>
        <time>2025-06-18T16:57:37Z</time>
      </trkpt>
      <trkpt lat="43.64559" lon="1.3884">
        <ele>146</ele>
        <time>2025-06-18T16:57:38Z</time>
      </trkpt>
      <trkpt lat="43.64564" lon="1.3884">
        <ele>146</ele>
        <time>2025-06-18T16:57:39Z</time>
      </trkpt>
      <trkpt lat="43.64564" lon="1.3884">
        <ele>146</ele>
        <time>2025-06-18T16:57:40Z</time>
      </trkpt>
      <trkpt lat="43.64568" lon="1.38839">
        <ele>146</ele>
        <time>2025-06-18T16:57:41Z</time>
      </trkpt>
      <trkpt lat="43.64568" lon="1.38839">
        <ele>146</ele>
        <time>2025-06-18T16:57:42Z</time>
      </trkpt>
      <trkpt lat="43.64573" lon="1.38837">
        <ele>146</ele>
        <time>2025-06-18T16:57:43Z</time>
      </trkpt>
      <trkpt lat="43.64573" lon="1.38837">
        <ele>146</ele>
        <time>2025-06-18T16:57:44Z</time>
      </trkpt>
      <trkpt lat="43.64575" lon="1.38837">
        <ele>146</ele>
        <time>2025-06-18T16:57:45Z</time>
      </trkpt>
      <trkpt lat="43.6458" lon="1.38836">
        <ele>146</ele>
        <time>2025-06-18T16:57:46Z</time>
      </trkpt>
      <trkpt lat="43.6458" lon="1.38836">
        <ele>146</ele>
        <time>2025-06-18T16:57:47Z</time>
      </trkpt>
      <trkpt lat="43.64584" lon="1.38837">
        <ele>146</ele>
        <time>2025-06-18T16:57:48Z</time>
      </trkpt>
      <trkpt lat="43.64586" lon="1.38836">
        <ele>146</ele>
        <time>2025-06-18T16:57:49Z</time>
      </trkpt>
      <trkpt lat="43.64589" lon="1.38836">
        <ele>146</ele>
        <time>2025-06-18T16:57:50Z</time>
      </trkpt>
      <trkpt lat="43.64589" lon="1.38836">
        <ele>146</ele>
        <time>2025-06-18T16:57:51Z</time>
      </trkpt>
      <trkpt lat="43.64591" lon="1.38835">
        <ele>146</ele>
        <time>2025-06-18T16:57:52Z</time>
      </trkpt>
      <trkpt lat="43.64594" lon="1.38835">
        <ele>146</ele>
        <time>2025-06-18T16:57:53Z</time>
      </trkpt>
      <trkpt lat="43.64597" lon="1.38834">
        <ele>146</ele>
        <time>2025-06-18T16:57:54Z</time>
      </trkpt>
      <trkpt lat="43.64601" lon="1.38832">
        <ele>146</ele>
        <time>2025-06-18T16:57:55Z</time>
      </trkpt>
      <trkpt lat="43.64601" lon="1.38832">
        <ele>146</ele>
        <time>2025-06-18T16:57:56Z</time>
      </trkpt>
      <trkpt lat="43.64606" lon="1.38831">
        <ele>146</ele>
        <time>2025-06-18T16:57:57Z</time>
      </trkpt>
      <trkpt lat="43.64608" lon="1.3883">
        <ele>146</ele>
        <time>2025-06-18T16:57:58Z</time>
      </trkpt>
      <trkpt lat="43.64611" lon="1.38829">
        <ele>146</ele>
        <time>2025-06-18T16:57:59Z</time>
      </trkpt>
      <trkpt lat="43.64613" lon="1.38828">
        <ele>146</ele>
        <time>2025-06-18T16:58:00Z</time>
      </trkpt>
      <trkpt lat="43.64616" lon="1.38827">
        <ele>146</ele>
        <time>2025-06-18T16:58:01Z</time>
      </trkpt>
      <trkpt lat="43.64616" lon="1.38827">
        <ele>146</ele>
        <time>2025-06-18T16:58:02Z</time>
      </trkpt>
      <trkpt lat="43.64618" lon="1.38826">
        <ele>146</ele>
        <time>2025-06-18T16:58:03Z</time>
      </trkpt>
      <trkpt lat="43.64622" lon="1.38825">
        <ele>146</ele>
        <time>2025-06-18T16:58:04Z</time>
      </trkpt>
      <trkpt lat="43.64625" lon="1.38824">
        <ele>146</ele>
        <time>2025-06-18T16:58:05Z</time>
      </trkpt>
      <trkpt lat="43.64625" lon="1.38824">
        <ele>146</ele>
        <time>2025-06-18T16:58:06Z</time>
      </trkpt>
      <trkpt lat="43.64628" lon="1.38824">
        <ele>146</ele>
        <time>2025-06-18T16:58:07Z</time>
      </trkpt>
      <trkpt lat="43.64628" lon="1.38824">
        <ele>146</ele>
        <time>2025-06-18T16:58:08Z</time>
      </trkpt>
      <trkpt lat="43.64631" lon="1.38823">
        <ele>146</ele>
        <time>2025-06-18T16:58:09Z</time>
      </trkpt>
      <trkpt lat="43.64633" lon="1.38823">
        <ele>146</ele>
        <time>2025-06-18T16:58:10Z</time>
      </trkpt>
      <trkpt lat="43.64633" lon="1.38823">
        <ele>146</ele>
        <time>2025-06-18T16:58:11Z</time>
      </trkpt>
      <trkpt lat="43.64635" lon="1.38821">
        <ele>146</ele>
        <time>2025-06-18T16:58:12Z</time>
      </trkpt>
      <trkpt lat="43.64638" lon="1.38819">
        <ele>147</ele>
        <time>2025-06-18T16:58:13Z</time>
      </trkpt>
      <trkpt lat="43.64643" lon="1.38816">
        <ele>147</ele>
        <time>2025-06-18T16:58:14Z</time>
      </trkpt>
      <trkpt lat="43.64646" lon="1.38814">
        <ele>147</ele>
        <time>2025-06-18T16:58:15Z</time>
      </trkpt>
      <trkpt lat="43.64648" lon="1.38813">
        <ele>147</ele>
        <time>2025-06-18T16:58:16Z</time>
      </trkpt>
      <trkpt lat="43.64648" lon="1.38813">
        <ele>147</ele>
        <time>2025-06-18T16:58:17Z</time>
      </trkpt>
      <trkpt lat="43.6465" lon="1.38811">
        <ele>147</ele>
        <time>2025-06-18T16:58:18Z</time>
      </trkpt>
      <trkpt lat="43.64656" lon="1.38809">
        <ele>147</ele>
        <time>2025-06-18T16:58:19Z</time>
      </trkpt>
      <trkpt lat="43.64657" lon="1.38808">
        <ele>147</ele>
        <time>2025-06-18T16:58:20Z</time>
      </trkpt>
      <trkpt lat="43.6466" lon="1.38807">
        <ele>146</ele>
        <time>2025-06-18T16:58:21Z</time>
      </trkpt>
      <trkpt lat="43.64662" lon="1.38806">
        <ele>146</ele>
        <time>2025-06-18T16:58:22Z</time>
      </trkpt>
      <trkpt lat="43.64662" lon="1.38806">
        <ele>146</ele>
        <time>2025-06-18T16:58:23Z</time>
      </trkpt>
      <trkpt lat="43.64668" lon="1.38805">
        <ele>146</ele>
        <time>2025-06-18T16:58:24Z</time>
      </trkpt>
      <trkpt lat="43.64668" lon="1.38805">
        <ele>146</ele>
        <time>2025-06-18T16:58:25Z</time>
      </trkpt>
      <trkpt lat="43.64673" lon="1.38802">
        <ele>146</ele>
        <time>2025-06-18T16:58:26Z</time>
      </trkpt>
      <trkpt lat="43.64673" lon="1.38802">
        <ele>146</ele>
        <time>2025-06-18T16:58:27Z</time>
      </trkpt>
      <trkpt lat="43.64678" lon="1.38801">
        <ele>146</ele>
        <time>2025-06-18T16:58:28Z</time>
      </trkpt>
      <trkpt lat="43.6468" lon="1.38801">
        <ele>146</ele>
        <time>2025-06-18T16:58:29Z</time>
      </trkpt>
      <trkpt lat="43.6468" lon="1.38801">
        <ele>146</ele>
        <time>2025-06-18T16:58:30Z</time>
      </trkpt>
      <trkpt lat="43.64682" lon="1.388">
        <ele>146</ele>
        <time>2025-06-18T16:58:31Z</time>
      </trkpt>
      <trkpt lat="43.64685" lon="1.388">
        <ele>146</ele>
        <time>2025-06-18T16:58:32Z</time>
      </trkpt>
      <trkpt lat="43.64687" lon="1.38799">
        <ele>146</ele>
        <time>2025-06-18T16:58:33Z</time>
      </trkpt>
      <trkpt lat="43.64689" lon="1.38799">
        <ele>146</ele>
        <time>2025-06-18T16:58:34Z</time>
      </trkpt>
      <trkpt lat="43.64694" lon="1.38796">
        <ele>147</ele>
        <time>2025-06-18T16:58:35Z</time>
      </trkpt>
      <trkpt lat="43.64694" lon="1.38796">
        <ele>147</ele>
        <time>2025-06-18T16:58:36Z</time>
      </trkpt>
      <trkpt lat="43.64699" lon="1.38792">
        <ele>147</ele>
        <time>2025-06-18T16:58:37Z</time>
      </trkpt>
      <trkpt lat="43.64699" lon="1.38792">
        <ele>147</ele>
        <time>2025-06-18T16:58:38Z</time>
      </trkpt>
      <trkpt lat="43.64702" lon="1.38791">
        <ele>146</ele>
        <time>2025-06-18T16:58:39Z</time>
      </trkpt>
      <trkpt lat="43.64704" lon="1.3879">
        <ele>146</ele>
        <time>2025-06-18T16:58:40Z</time>
      </trkpt>
      <trkpt lat="43.64707" lon="1.38789">
        <ele>146</ele>
        <time>2025-06-18T16:58:41Z</time>
      </trkpt>
      <trkpt lat="43.64709" lon="1.38788">
        <ele>147</ele>
        <time>2025-06-18T16:58:42Z</time>
      </trkpt>
      <trkpt lat="43.64711" lon="1.38787">
        <ele>147</ele>
        <time>2025-06-18T16:58:43Z</time>
      </trkpt>
      <trkpt lat="43.64714" lon="1.38785">
        <ele>147</ele>
        <time>2025-06-18T16:58:44Z</time>
      </trkpt>
      <trkpt lat="43.64716" lon="1.38784">
        <ele>147</ele>
        <time>2025-06-18T16:58:45Z</time>
      </trkpt>
      <trkpt lat="43.64718" lon="1.38783">
        <ele>147</ele>
        <time>2025-06-18T16:58:46Z</time>
      </trkpt>
      <trkpt lat="43.6472" lon="1.38781">
        <ele>147</ele>
        <time>2025-06-18T16:58:47Z</time>
      </trkpt>
      <trkpt lat="43.64725" lon="1.38778">
        <ele>147</ele>
        <time>2025-06-18T16:58:48Z</time>
      </trkpt>
      <trkpt lat="43.64727" lon="1.38777">
        <ele>146</ele>
        <time>2025-06-18T16:58:49Z</time>
      </trkpt>
      <trkpt lat="43.6473" lon="1.38776">
        <ele>146</ele>
        <time>2025-06-18T16:58:50Z</time>
      </trkpt>
      <trkpt lat="43.64732" lon="1.38774">
        <ele>146</ele>
        <time>2025-06-18T16:58:51Z</time>
      </trkpt>
      <trkpt lat="43.64732" lon="1.38774">
        <ele>146</ele>
        <time>2025-06-18T16:58:52Z</time>
      </trkpt>
      <trkpt lat="43.64734" lon="1.38773">
        <ele>146</ele>
        <time>2025-06-18T16:58:53Z</time>
      </trkpt>
      <trkpt lat="43.64736" lon="1.38771">
        <ele>147</ele>
        <time>2025-06-18T16:58:54Z</time>
      </trkpt>
      <trkpt lat="43.64739" lon="1.3877">
        <ele>147</ele>
        <time>2025-06-18T16:58:55Z</time>
      </trkpt>
      <trkpt lat="43.6474" lon="1.38769">
        <ele>147</ele>
        <time>2025-06-18T16:58:56Z</time>
      </trkpt>
      <trkpt lat="43.64741" lon="1.38768">
        <ele>147</ele>
        <time>2025-06-18T16:58:57Z</time>
      </trkpt>
      <trkpt lat="43.64742" lon="1.38767">
        <ele>147</ele>
        <time>2025-06-18T16:58:58Z</time>
      </trkpt>
      <trkpt lat="43.64743" lon="1.38766">
        <ele>146</ele>
        <time>2025-06-18T16:58:59Z</time>
      </trkpt>
      <trkpt lat="43.6475" lon="1.38761">
        <ele>146</ele>
        <time>2025-06-18T16:59:00Z</time>
      </trkpt>
      <trkpt lat="43.64752" lon="1.38759">
        <ele>146</ele>
        <time>2025-06-18T16:59:01Z</time>
      </trkpt>
      <trkpt lat="43.64755" lon="1.38757">
        <ele>146</ele>
        <time>2025-06-18T16:59:02Z</time>
      </trkpt>
      <trkpt lat="43.64757" lon="1.38755">
        <ele>146</ele>
        <time>2025-06-18T16:59:03Z</time>
      </trkpt>
      <trkpt lat="43.64759" lon="1.38753">
        <ele>146</ele>
        <time>2025-06-18T16:59:04Z</time>
      </trkpt>
      <trkpt lat="43.64761" lon="1.38752">
        <ele>146</ele>
        <time>2025-06-18T16:59:05Z</time>
      </trkpt>
      <trkpt lat="43.64763" lon="1.38751">
        <ele>146</ele>
        <time>2025-06-18T16:59:06Z</time>
      </trkpt>
      <trkpt lat="43.64765" lon="1.38749">
        <ele>146</ele>
        <time>2025-06-18T16:59:07Z</time>
      </trkpt>
      <trkpt lat="43.64768" lon="1.38747">
        <ele>146</ele>
        <time>2025-06-18T16:59:08Z</time>
      </trkpt>
      <trkpt lat="43.64771" lon="1.38744">
        <ele>146</ele>
        <time>2025-06-18T16:59:09Z</time>
      </trkpt>
      <trkpt lat="43.64771" lon="1.38744">
        <ele>146</ele>
        <time>2025-06-18T16:59:10Z</time>
      </trkpt>
      <trkpt lat="43.64774" lon="1.38742">
        <ele>146</ele>
        <time>2025-06-18T16:59:11Z</time>
      </trkpt>
      <trkpt lat="43.64776" lon="1.38741">
        <ele>146</ele>
        <time>2025-06-18T16:59:12Z</time>
      </trkpt>
      <trkpt lat="43.64778" lon="1.38739">
        <ele>146</ele>
        <time>2025-06-18T16:59:13Z</time>
      </trkpt>
      <trkpt lat="43.6478" lon="1.38737">
        <ele>146</ele>
        <time>2025-06-18T16:59:14Z</time>
      </trkpt>
      <trkpt lat="43.64782" lon="1.38736">
        <ele>146</ele>
        <time>2025-06-18T16:59:15Z</time>
      </trkpt>
      <trkpt lat="43.64784" lon="1.38734">
        <ele>146</ele>
        <time>2025-06-18T16:59:16Z</time>
      </trkpt>
      <trkpt lat="43.64786" lon="1.38733">
        <ele>146</ele>
        <time>2025-06-18T16:59:17Z</time>
      </trkpt>
      <trkpt lat="43.64791" lon="1.3873">
        <ele>146</ele>
        <time>2025-06-18T16:59:18Z</time>
      </trkpt>
      <trkpt lat="43.64791" lon="1.3873">
        <ele>146</ele>
        <time>2025-06-18T16:59:19Z</time>
      </trkpt>
      <trkpt lat="43.64793" lon="1.38728">
        <ele>146</ele>
        <time>2025-06-18T16:59:20Z</time>
      </trkpt>
      <trkpt lat="43.64797" lon="1.38723">
        <ele>146</ele>
        <time>2025-06-18T16:59:21Z</time>
      </trkpt>
      <trkpt lat="43.64797" lon="1.38723">
        <ele>146</ele>
        <time>2025-06-18T16:59:22Z</time>
      </trkpt>
      <trkpt lat="43.64802" lon="1.3872">
        <ele>146</ele>
        <time>2025-06-18T16:59:23Z</time>
      </trkpt>
      <trkpt lat="43.64804" lon="1.3872">
        <ele>146</ele>
        <time>2025-06-18T16:59:24Z</time>
      </trkpt>
      <trkpt lat="43.64806" lon="1.38718">
        <ele>146</ele>
        <time>2025-06-18T16:59:25Z</time>
      </trkpt>
      <trkpt lat="43.64808" lon="1.38717">
        <ele>146</ele>
        <time>2025-06-18T16:59:26Z</time>
      </trkpt>
      <trkpt lat="43.64808" lon="1.38717">
        <ele>146</ele>
        <time>2025-06-18T16:59:27Z</time>
      </trkpt>
      <trkpt lat="43.6481" lon="1.38715">
        <ele>146</ele>
        <time>2025-06-18T16:59:28Z</time>
      </trkpt>
      <trkpt lat="43.64812" lon="1.38714">
        <ele>146</ele>
        <time>2025-06-18T16:59:29Z</time>
      </trkpt>
      <trkpt lat="43.64817" lon="1.38711">
        <ele>146</ele>
        <time>2025-06-18T16:59:30Z</time>
      </trkpt>
      <trkpt lat="43.6482" lon="1.3871">
        <ele>146</ele>
        <time>2025-06-18T16:59:31Z</time>
      </trkpt>
      <trkpt lat="43.64823" lon="1.38709">
        <ele>146</ele>
        <time>2025-06-18T16:59:32Z</time>
      </trkpt>
      <trkpt lat="43.64823" lon="1.38709">
        <ele>146</ele>
        <time>2025-06-18T16:59:33Z</time>
      </trkpt>
      <trkpt lat="43.64825" lon="1.38707">
        <ele>146</ele>
        <time>2025-06-18T16:59:34Z</time>
      </trkpt>
      <trkpt lat="43.64827" lon="1.38706">
        <ele>146</ele>
        <time>2025-06-18T16:59:35Z</time>
      </trkpt>
      <trkpt lat="43.64829" lon="1.38704">
        <ele>146</ele>
        <time>2025-06-18T16:59:36Z</time>
      </trkpt>
      <trkpt lat="43.64831" lon="1.38703">
        <ele>146</ele>
        <time>2025-06-18T16:59:37Z</time>
      </trkpt>
      <trkpt lat="43.64833" lon="1.38702">
        <ele>146</ele>
        <time>2025-06-18T16:59:38Z</time>
      </trkpt>
      <trkpt lat="43.64835" lon="1.387">
        <ele>146</ele>
        <time>2025-06-18T16:59:39Z</time>
      </trkpt>
      <trkpt lat="43.64836" lon="1.38699">
        <ele>146</ele>
        <time>2025-06-18T16:59:40Z</time>
      </trkpt>
      <trkpt lat="43.64838" lon="1.38698">
        <ele>146</ele>
        <time>2025-06-18T16:59:41Z</time>
      </trkpt>
      <trkpt lat="43.64839" lon="1.38697">
        <ele>146</ele>
        <time>2025-06-18T16:59:42Z</time>
      </trkpt>
      <trkpt lat="43.64845" lon="1.38691">
        <ele>146</ele>
        <time>2025-06-18T16:59:43Z</time>
      </trkpt>
      <trkpt lat="43.64846" lon="1.38691">
        <ele>146</ele>
        <time>2025-06-18T16:59:44Z</time>
      </trkpt>
      <trkpt lat="43.64849" lon="1.38689">
        <ele>146</ele>
        <time>2025-06-18T16:59:45Z</time>
      </trkpt>
      <trkpt lat="43.64851" lon="1.38687">
        <ele>146</ele>
        <time>2025-06-18T16:59:46Z</time>
      </trkpt>
      <trkpt lat="43.64851" lon="1.38687">
        <ele>146</ele>
        <time>2025-06-18T16:59:47Z</time>
      </trkpt>
      <trkpt lat="43.64853" lon="1.38686">
        <ele>146</ele>
        <time>2025-06-18T16:59:48Z</time>
      </trkpt>
      <trkpt lat="43.64855" lon="1.38684">
        <ele>146</ele>
        <time>2025-06-18T16:59:49Z</time>
      </trkpt>
      <trkpt lat="43.64858" lon="1.38682">
        <ele>146</ele>
        <time>2025-06-18T16:59:50Z</time>
      </trkpt>
      <trkpt lat="43.6486" lon="1.38679">
        <ele>146</ele>
        <time>2025-06-18T16:59:51Z</time>
      </trkpt>
      <trkpt lat="43.64863" lon="1.38677">
        <ele>146</ele>
        <time>2025-06-18T16:59:52Z</time>
      </trkpt>
      <trkpt lat="43.64865" lon="1.38676">
        <ele>146</ele>
        <time>2025-06-18T16:59:53Z</time>
      </trkpt>
      <trkpt lat="43.64867" lon="1.38675">
        <ele>146</ele>
        <time>2025-06-18T16:59:54Z</time>
      </trkpt>
      <trkpt lat="43.64869" lon="1.38674">
        <ele>146</ele>
        <time>2025-06-18T16:59:55Z</time>
      </trkpt>
      <trkpt lat="43.64872" lon="1.38672">
        <ele>146</ele>
        <time>2025-06-18T16:59:56Z</time>
      </trkpt>
      <trkpt lat="43.64874" lon="1.3867">
        <ele>146</ele>
        <time>2025-06-18T16:59:57Z</time>
      </trkpt>
      <trkpt lat="43.64876" lon="1.38669">
        <ele>146</ele>
        <time>2025-06-18T16:59:58Z</time>
      </trkpt>
      <trkpt lat="43.64879" lon="1.38667">
        <ele>146</ele>
        <time>2025-06-18T16:59:59Z</time>
      </trkpt>
      <trkpt lat="43.64881" lon="1.38666">
        <ele>146</ele>
        <time>2025-06-18T17:00:00Z</time>
      </trkpt>
      <trkpt lat="43.64885" lon="1.38663">
        <ele>146</ele>
        <time>2025-06-18T17:00:01Z</time>
      </trkpt>
      <trkpt lat="43.64885" lon="1.38663">
        <ele>146</ele>
        <time>2025-06-18T17:00:02Z</time>
      </trkpt>
      <trkpt lat="43.6489" lon="1.38661">
        <ele>145</ele>
        <time>2025-06-18T17:00:03Z</time>
      </trkpt>
      <trkpt lat="43.6489" lon="1.38661">
        <ele>145</ele>
        <time>2025-06-18T17:00:04Z</time>
      </trkpt>
      <trkpt lat="43.64894" lon="1.38658">
        <ele>145</ele>
        <time>2025-06-18T17:00:05Z</time>
      </trkpt>
      <trkpt lat="43.64894" lon="1.38658">
        <ele>145</ele>
        <time>2025-06-18T17:00:06Z</time>
      </trkpt>
      <trkpt lat="43.64895" lon="1.38656">
        <ele>146</ele>
        <time>2025-06-18T17:00:07Z</time>
      </trkpt>
      <trkpt lat="43.649" lon="1.38653">
        <ele>146</ele>
        <time>2025-06-18T17:00:08Z</time>
      </trkpt>
      <trkpt lat="43.649" lon="1.38653">
        <ele>146</ele>
        <time>2025-06-18T17:00:09Z</time>
      </trkpt>
      <trkpt lat="43.64903" lon="1.38651">
        <ele>146</ele>
        <time>2025-06-18T17:00:10Z</time>
      </trkpt>
      <trkpt lat="43.64905" lon="1.3865">
        <ele>146</ele>
        <time>2025-06-18T17:00:11Z</time>
      </trkpt>
      <trkpt lat="43.64909" lon="1.38647">
        <ele>146</ele>
        <time>2025-06-18T17:00:12Z</time>
      </trkpt>
      <trkpt lat="43.64909" lon="1.38647">
        <ele>146</ele>
        <time>2025-06-18T17:00:13Z</time>
      </trkpt>
      <trkpt lat="43.64912" lon="1.38645">
        <ele>146</ele>
        <time>2025-06-18T17:00:14Z</time>
      </trkpt>
      <trkpt lat="43.64914" lon="1.38644">
        <ele>146</ele>
        <time>2025-06-18T17:00:15Z</time>
      </trkpt>
      <trkpt lat="43.64916" lon="1.38643">
        <ele>146</ele>
        <time>2025-06-18T17:00:16Z</time>
      </trkpt>
      <trkpt lat="43.64919" lon="1.38641">
        <ele>146</ele>
        <time>2025-06-18T17:00:17Z</time>
      </trkpt>
      <trkpt lat="43.64923" lon="1.38639">
        <ele>146</ele>
        <time>2025-06-18T17:00:18Z</time>
      </trkpt>
      <trkpt lat="43.64924" lon="1.38638">
        <ele>146</ele>
        <time>2025-06-18T17:00:19Z</time>
      </trkpt>
      <trkpt lat="43.64926" lon="1.38637">
        <ele>146</ele>
        <time>2025-06-18T17:00:20Z</time>
      </trkpt>
      <trkpt lat="43.64928" lon="1.38635">
        <ele>146</ele>
        <time>2025-06-18T17:00:21Z</time>
      </trkpt>
      <trkpt lat="43.6493" lon="1.38634">
        <ele>146</ele>
        <time>2025-06-18T17:00:22Z</time>
      </trkpt>
      <trkpt lat="43.64933" lon="1.38632">
        <ele>146</ele>
        <time>2025-06-18T17:00:23Z</time>
      </trkpt>
      <trkpt lat="43.64935" lon="1.38631">
        <ele>146</ele>
        <time>2025-06-18T17:00:24Z</time>
      </trkpt>
      <trkpt lat="43.64937" lon="1.38629">
        <ele>146</ele>
        <time>2025-06-18T17:00:25Z</time>
      </trkpt>
      <trkpt lat="43.64939" lon="1.38629">
        <ele>146</ele>
        <time>2025-06-18T17:00:26Z</time>
      </trkpt>
      <trkpt lat="43.64941" lon="1.38628">
        <ele>146</ele>
        <time>2025-06-18T17:00:27Z</time>
      </trkpt>
      <trkpt lat="43.64943" lon="1.38626">
        <ele>146</ele>
        <time>2025-06-18T17:00:28Z</time>
      </trkpt>
      <trkpt lat="43.64948" lon="1.38623">
        <ele>146</ele>
        <time>2025-06-18T17:00:29Z</time>
      </trkpt>
      <trkpt lat="43.6495" lon="1.38621">
        <ele>146</ele>
        <time>2025-06-18T17:00:30Z</time>
      </trkpt>
      <trkpt lat="43.6495" lon="1.38621">
        <ele>146</ele>
        <time>2025-06-18T17:00:31Z</time>
      </trkpt>
      <trkpt lat="43.64956" lon="1.38618">
        <ele>146</ele>
        <time>2025-06-18T17:00:32Z</time>
      </trkpt>
      <trkpt lat="43.64956" lon="1.38618">
        <ele>146</ele>
        <time>2025-06-18T17:00:33Z</time>
      </trkpt>
      <trkpt lat="43.64958" lon="1.38617">
        <ele>146</ele>
        <time>2025-06-18T17:00:34Z</time>
      </trkpt>
      <trkpt lat="43.6496" lon="1.38617">
        <ele>146</ele>
        <time>2025-06-18T17:00:35Z</time>
      </trkpt>
      <trkpt lat="43.64962" lon="1.38616">
        <ele>146</ele>
        <time>2025-06-18T17:00:36Z</time>
      </trkpt>
      <trkpt lat="43.64965" lon="1.38615">
        <ele>146</ele>
        <time>2025-06-18T17:00:37Z</time>
      </trkpt>
      <trkpt lat="43.64967" lon="1.38614">
        <ele>146</ele>
        <time>2025-06-18T17:00:38Z</time>
      </trkpt>
      <trkpt lat="43.64969" lon="1.38612">
        <ele>146</ele>
        <time>2025-06-18T17:00:39Z</time>
      </trkpt>
      <trkpt lat="43.64971" lon="1.38611">
        <ele>146</ele>
        <time>2025-06-18T17:00:40Z</time>
      </trkpt>
      <trkpt lat="43.64973" lon="1.38609">
        <ele>145</ele>
        <time>2025-06-18T17:00:41Z</time>
      </trkpt>
      <trkpt lat="43.64975" lon="1.38608">
        <ele>145</ele>
        <time>2025-06-18T17:00:42Z</time>
      </trkpt>
      <trkpt lat="43.64977" lon="1.38606">
        <ele>145</ele>
        <time>2025-06-18T17:00:43Z</time>
      </trkpt>
      <trkpt lat="43.6498" lon="1.38605">
        <ele>145</ele>
        <time>2025-06-18T17:00:44Z</time>
      </trkpt>
      <trkpt lat="43.64982" lon="1.38604">
        <ele>145</ele>
        <time>2025-06-18T17:00:45Z</time>
      </trkpt>
      <trkpt lat="43.64984" lon="1.38602">
        <ele>145</ele>
        <time>2025-06-18T17:00:46Z</time>
      </trkpt>
      <trkpt lat="43.64987" lon="1.38601">
        <ele>145</ele>
        <time>2025-06-18T17:00:47Z</time>
      </trkpt>
      <trkpt lat="43.6499" lon="1.38599">
        <ele>145</ele>
        <time>2025-06-18T17:00:48Z</time>
      </trkpt>
      <trkpt lat="43.64992" lon="1.38598">
        <ele>145</ele>
        <time>2025-06-18T17:00:49Z</time>
      </trkpt>
      <trkpt lat="43.64994" lon="1.38596">
        <ele>145</ele>
        <time>2025-06-18T17:00:50Z</time>
      </trkpt>
      <trkpt lat="43.64997" lon="1.38594">
        <ele>145</ele>
        <time>2025-06-18T17:00:51Z</time>
      </trkpt>
      <trkpt lat="43.64999" lon="1.38593">
        <ele>145</ele>
        <time>2025-06-18T17:00:52Z</time>
      </trkpt>
      <trkpt lat="43.65002" lon="1.38592">
        <ele>145</ele>
        <time>2025-06-18T17:00:53Z</time>
      </trkpt>
      <trkpt lat="43.65004" lon="1.3859">
        <ele>145</ele>
        <time>2025-06-18T17:00:54Z</time>
      </trkpt>
      <trkpt lat="43.65007" lon="1.38589">
        <ele>145</ele>
        <time>2025-06-18T17:00:55Z</time>
      </trkpt>
      <trkpt lat="43.65011" lon="1.38586">
        <ele>145</ele>
        <time>2025-06-18T17:00:56Z</time>
      </trkpt>
      <trkpt lat="43.65011" lon="1.38586">
        <ele>145</ele>
        <time>2025-06-18T17:00:57Z</time>
      </trkpt>
      <trkpt lat="43.65013" lon="1.38584">
        <ele>145</ele>
        <time>2025-06-18T17:00:58Z</time>
      </trkpt>
      <trkpt lat="43.65018" lon="1.38581">
        <ele>145</ele>
        <time>2025-06-18T17:00:59Z</time>
      </trkpt>
      <trkpt lat="43.65018" lon="1.38581">
        <ele>145</ele>
        <time>2025-06-18T17:01:00Z</time>
      </trkpt>
      <trkpt lat="43.6502" lon="1.3858">
        <ele>145</ele>
        <time>2025-06-18T17:01:01Z</time>
      </trkpt>
      <trkpt lat="43.65022" lon="1.38579">
        <ele>146</ele>
        <time>2025-06-18T17:01:02Z</time>
      </trkpt>
      <trkpt lat="43.65024" lon="1.38578">
        <ele>146</ele>
        <time>2025-06-18T17:01:03Z</time>
      </trkpt>
      <trkpt lat="43.65027" lon="1.38576">
        <ele>146</ele>
        <time>2025-06-18T17:01:04Z</time>
      </trkpt>
      <trkpt lat="43.65029" lon="1.38575">
        <ele>146</ele>
        <time>2025-06-18T17:01:05Z</time>
      </trkpt>
      <trkpt lat="43.65031" lon="1.38574">
        <ele>146</ele>
        <time>2025-06-18T17:01:06Z</time>
      </trkpt>
      <trkpt lat="43.65033" lon="1.38572">
        <ele>146</ele>
        <time>2025-06-18T17:01:07Z</time>
      </trkpt>
      <trkpt lat="43.65036" lon="1.38571">
        <ele>145</ele>
        <time>2025-06-18T17:01:08Z</time>
      </trkpt>
      <trkpt lat="43.65038" lon="1.3857">
        <ele>145</ele>
        <time>2025-06-18T17:01:09Z</time>
      </trkpt>
      <trkpt lat="43.65041" lon="1.38569">
        <ele>145</ele>
        <time>2025-06-18T17:01:10Z</time>
      </trkpt>
      <trkpt lat="43.65043" lon="1.38567">
        <ele>145</ele>
        <time>2025-06-18T17:01:11Z</time>
      </trkpt>
      <trkpt lat="43.65045" lon="1.38565">
        <ele>145</ele>
        <time>2025-06-18T17:01:12Z</time>
      </trkpt>
      <trkpt lat="43.65049" lon="1.38561">
        <ele>145</ele>
        <time>2025-06-18T17:01:13Z</time>
      </trkpt>
      <trkpt lat="43.65049" lon="1.38561">
        <ele>145</ele>
        <time>2025-06-18T17:01:14Z</time>
      </trkpt>
      <trkpt lat="43.65053" lon="1.38558">
        <ele>145</ele>
        <time>2025-06-18T17:01:15Z</time>
      </trkpt>
      <trkpt lat="43.65053" lon="1.38558">
        <ele>145</ele>
        <time>2025-06-18T17:01:16Z</time>
      </trkpt>
      <trkpt lat="43.65056" lon="1.38556">
        <ele>145</ele>
        <time>2025-06-18T17:01:17Z</time>
      </trkpt>
      <trkpt lat="43.65058" lon="1.38554">
        <ele>145</ele>
        <time>2025-06-18T17:01:18Z</time>
      </trkpt>
      <trkpt lat="43.6506" lon="1.38554">
        <ele>145</ele>
        <time>2025-06-18T17:01:19Z</time>
      </trkpt>
      <trkpt lat="43.65063" lon="1.38553">
        <ele>145</ele>
        <time>2025-06-18T17:01:20Z</time>
      </trkpt>
      <trkpt lat="43.65065" lon="1.38551">
        <ele>145</ele>
        <time>2025-06-18T17:01:21Z</time>
      </trkpt>
      <trkpt lat="43.65067" lon="1.3855">
        <ele>145</ele>
        <time>2025-06-18T17:01:22Z</time>
      </trkpt>
      <trkpt lat="43.65069" lon="1.38548">
        <ele>145</ele>
        <time>2025-06-18T17:01:23Z</time>
      </trkpt>
      <trkpt lat="43.65071" lon="1.38547">
        <ele>145</ele>
        <time>2025-06-18T17:01:24Z</time>
      </trkpt>
      <trkpt lat="43.65073" lon="1.38545">
        <ele>145</ele>
        <time>2025-06-18T17:01:25Z</time>
      </trkpt>
      <trkpt lat="43.65076" lon="1.38544">
        <ele>145</ele>
        <time>2025-06-18T17:01:26Z</time>
      </trkpt>
      <trkpt lat="43.65078" lon="1.38543">
        <ele>145</ele>
        <time>2025-06-18T17:01:27Z</time>
      </trkpt>
      <trkpt lat="43.6508" lon="1.38542">
        <ele>145</ele>
        <time>2025-06-18T17:01:28Z</time>
      </trkpt>
      <trkpt lat="43.65083" lon="1.38541">
        <ele>145</ele>
        <time>2025-06-18T17:01:29Z</time>
      </trkpt>
      <trkpt lat="43.65085" lon="1.3854">
        <ele>145</ele>
        <time>2025-06-18T17:01:30Z</time>
      </trkpt>
      <trkpt lat="43.65088" lon="1.38539">
        <ele>145</ele>
        <time>2025-06-18T17:01:31Z</time>
      </trkpt>
      <trkpt lat="43.6509" lon="1.38537">
        <ele>145</ele>
        <time>2025-06-18T17:01:32Z</time>
      </trkpt>
      <trkpt lat="43.65092" lon="1.38535">
        <ele>145</ele>
        <time>2025-06-18T17:01:33Z</time>
      </trkpt>
      <trkpt lat="43.65095" lon="1.3853">
        <ele>145</ele>
        <time>2025-06-18T17:01:34Z</time>
      </trkpt>
      <trkpt lat="43.65095" lon="1.3853">
        <ele>145</ele>
        <time>2025-06-18T17:01:35Z</time>
      </trkpt>
      <trkpt lat="43.65096" lon="1.38527">
        <ele>145</ele>
        <time>2025-06-18T17:01:36Z</time>
      </trkpt>
      <trkpt lat="43.65097" lon="1.38523">
        <ele>145</ele>
        <time>2025-06-18T17:01:37Z</time>
      </trkpt>
      <trkpt lat="43.65097" lon="1.3852">
        <ele>145</ele>
        <time>2025-06-18T17:01:38Z</time>
      </trkpt>
      <trkpt lat="43.65098" lon="1.38517">
        <ele>145</ele>
        <time>2025-06-18T17:01:39Z</time>
      </trkpt>
      <trkpt lat="43.65099" lon="1.38514">
        <ele>145</ele>
        <time>2025-06-18T17:01:40Z</time>
      </trkpt>
      <trkpt lat="43.651" lon="1.38511">
        <ele>146</ele>
        <time>2025-06-18T17:01:41Z</time>
      </trkpt>
      <trkpt lat="43.65101" lon="1.38508">
        <ele>146</ele>
        <time>2025-06-18T17:01:42Z</time>
      </trkpt>
      <trkpt lat="43.65101" lon="1.38505">
        <ele>146</ele>
        <time>2025-06-18T17:01:43Z</time>
      </trkpt>
      <trkpt lat="43.65101" lon="1.38502">
        <ele>146</ele>
        <time>2025-06-18T17:01:44Z</time>
      </trkpt>
      <trkpt lat="43.651" lon="1.38499">
        <ele>146</ele>
        <time>2025-06-18T17:01:45Z</time>
      </trkpt>
      <trkpt lat="43.65099" lon="1.38496">
        <ele>146</ele>
        <time>2025-06-18T17:01:46Z</time>
      </trkpt>
      <trkpt lat="43.65098" lon="1.38492">
        <ele>146</ele>
        <time>2025-06-18T17:01:47Z</time>
      </trkpt>
      <trkpt lat="43.65096" lon="1.3849">
        <ele>146</ele>
        <time>2025-06-18T17:01:48Z</time>
      </trkpt>
      <trkpt lat="43.65095" lon="1.38486">
        <ele>146</ele>
        <time>2025-06-18T17:01:49Z</time>
      </trkpt>
      <trkpt lat="43.65094" lon="1.38483">
        <ele>146</ele>
        <time>2025-06-18T17:01:50Z</time>
      </trkpt>
      <trkpt lat="43.65093" lon="1.38479">
        <ele>146</ele>
        <time>2025-06-18T17:01:51Z</time>
      </trkpt>
      <trkpt lat="43.65091" lon="1.38473">
        <ele>146</ele>
        <time>2025-06-18T17:01:52Z</time>
      </trkpt>
      <trkpt lat="43.6509" lon="1.3847">
        <ele>146</ele>
        <time>2025-06-18T17:01:53Z</time>
      </trkpt>
      <trkpt lat="43.6509" lon="1.3847">
        <ele>146</ele>
        <time>2025-06-18T17:01:54Z</time>
      </trkpt>
      <trkpt lat="43.65088" lon="1.38468">
        <ele>146</ele>
        <time>2025-06-18T17:01:55Z</time>
      </trkpt>
      <trkpt lat="43.65087" lon="1.38465">
        <ele>146</ele>
        <time>2025-06-18T17:01:56Z</time>
      </trkpt>
      <trkpt lat="43.65085" lon="1.38459">
        <ele>146</ele>
        <time>2025-06-18T17:01:57Z</time>
      </trkpt>
      <trkpt lat="43.65085" lon="1.38459">
        <ele>146</ele>
        <time>2025-06-18T17:01:58Z</time>
      </trkpt>
      <trkpt lat="43.65083" lon="1.38456">
        <ele>146</ele>
        <time>2025-06-18T17:01:59Z</time>
      </trkpt>
      <trkpt lat="43.65082" lon="1.38452">
        <ele>146</ele>
        <time>2025-06-18T17:02:00Z</time>
      </trkpt>
      <trkpt lat="43.65081" lon="1.38449">
        <ele>146</ele>
        <time>2025-06-18T17:02:01Z</time>
      </trkpt>
      <trkpt lat="43.6508" lon="1.38446">
        <ele>146</ele>
        <time>2025-06-18T17:02:02Z</time>
      </trkpt>
      <trkpt lat="43.65079" lon="1.38443">
        <ele>146</ele>
        <time>2025-06-18T17:02:03Z</time>
      </trkpt>
      <trkpt lat="43.65078" lon="1.3844">
        <ele>146</ele>
        <time>2025-06-18T17:02:04Z</time>
      </trkpt>
      <trkpt lat="43.65076" lon="1.38437">
        <ele>146</ele>
        <time>2025-06-18T17:02:05Z</time>
      </trkpt>
      <trkpt lat="43.65074" lon="1.38432">
        <ele>146</ele>
        <time>2025-06-18T17:02:06Z</time>
      </trkpt>
      <trkpt lat="43.65074" lon="1.38432">
        <ele>146</ele>
        <time>2025-06-18T17:02:07Z</time>
      </trkpt>
      <trkpt lat="43.65073" lon="1.38429">
        <ele>146</ele>
        <time>2025-06-18T17:02:08Z</time>
      </trkpt>
      <trkpt lat="43.65072" lon="1.38426">
        <ele>146</ele>
        <time>2025-06-18T17:02:09Z</time>
      </trkpt>
      <trkpt lat="43.65072" lon="1.38423">
        <ele>146</ele>
        <time>2025-06-18T17:02:10Z</time>
      </trkpt>
      <trkpt lat="43.65072" lon="1.38423">
        <ele>146</ele>
        <time>2025-06-18T17:02:11Z</time>
      </trkpt>
    </trkseg>
  </trk>
</gpx>